<?xml version='1.0' encoding='UTF-8'?><gpx version="1.1" creator="JPX - https://github.com/jenetics/jpx" xmlns="http://www.topografix.com/GPX/1/1"><trk><trkseg><trkpt lat="45.6322045" lon="10.6010686"><ele>63.0</ele><time>2026-03-28T16:46:38.771Z</time></trkpt><trkpt lat="45.6322782" lon="10.6010678"><ele>63.0</ele><time>2026-03-28T16:46:42.771Z</time></trkpt><trkpt lat="45.6323429" lon="10.6010455"><ele>63.0</ele><time>2026-03-28T16:46:48.771Z</time></trkpt><trkpt lat="45.6324074" lon="10.6010532"><ele>63.0</ele><time>2026-03-28T16:46:58.771Z</time></trkpt><trkpt lat="45.6324767" lon="10.6010561"><ele>63.0</ele><time>2026-03-28T16:48:45.77Z</time></trkpt><trkpt lat="45.6325441" lon="10.6009929"><ele>63.0</ele><time>2026-03-28T16:48:49.771Z</time></trkpt><trkpt lat="45.6325969" lon="10.600943"><ele>63.0</ele><time>2026-03-28T16:48:54.77Z</time></trkpt><trkpt lat="45.632676" lon="10.6009034"><ele>63.0</ele><time>2026-03-28T16:48:58.772Z</time></trkpt><trkpt lat="45.6327478" lon="10.6008745"><ele>63.0</ele><time>2026-03-28T16:49:01.77Z</time></trkpt><trkpt lat="45.6328245" lon="10.6008773"><ele>63.0</ele><time>2026-03-28T16:49:04.772Z</time></trkpt><trkpt lat="45.6329076" lon="10.6009166"><ele>63.0</ele><time>2026-03-28T16:49:07.771Z</time></trkpt><trkpt lat="45.6329824" lon="10.6009609"><ele>63.0</ele><time>2026-03-28T16:49:10.771Z</time></trkpt><trkpt lat="45.633016" lon="10.6010455"><ele>63.0</ele><time>2026-03-28T16:49:13.771Z</time></trkpt><trkpt lat="45.6329933" lon="10.6011532"><ele>63.333333333333336</ele><time>2026-03-28T16:49:16.771Z</time></trkpt><trkpt lat="45.6329689" lon="10.6012421"><ele>63.66666666666667</ele><time>2026-03-28T16:49:18.772Z</time></trkpt><trkpt lat="45.6329392" lon="10.601349"><ele>64.0</ele><time>2026-03-28T16:49:20.77Z</time></trkpt><trkpt lat="45.6329045" lon="10.6014615"><ele>64.33333333333334</ele><time>2026-03-28T16:49:23.771Z</time></trkpt><trkpt lat="45.6328663" lon="10.6015569"><ele>64.66666666666667</ele><time>2026-03-28T16:49:25.771Z</time></trkpt><trkpt lat="45.6328155" lon="10.6016561"><ele>65.0</ele><time>2026-03-28T16:49:27.77Z</time></trkpt><trkpt lat="45.6327834" lon="10.6017373"><ele>65.0</ele><time>2026-03-28T16:49:29.771Z</time></trkpt><trkpt lat="45.6327612" lon="10.6018648"><ele>65.0</ele><time>2026-03-28T16:50:02.771Z</time></trkpt><trkpt lat="45.6327201" lon="10.6020117"><ele>65.0</ele><time>2026-03-28T16:50:04.771Z</time></trkpt><trkpt lat="45.6326906" lon="10.6021028"><ele>65.0</ele><time>2026-03-28T16:50:05.771Z</time></trkpt><trkpt lat="45.6326603" lon="10.6021916"><ele>65.0</ele><time>2026-03-28T16:50:06.771Z</time></trkpt><trkpt lat="45.6326306" lon="10.6022811"><ele>65.0</ele><time>2026-03-28T16:50:07.77Z</time></trkpt><trkpt lat="45.6326014" lon="10.6023701"><ele>65.5</ele><time>2026-03-28T16:50:08.771Z</time></trkpt><trkpt lat="45.6325712" lon="10.6024693"><ele>66.0</ele><time>2026-03-28T16:50:09.771Z</time></trkpt><trkpt lat="45.6325405" lon="10.6025828"><ele>66.5</ele><time>2026-03-28T16:50:10.772Z</time></trkpt><trkpt lat="45.6325077" lon="10.6026957"><ele>67.0</ele><time>2026-03-28T16:50:11.77Z</time></trkpt><trkpt lat="45.6324739" lon="10.6028158"><ele>67.5</ele><time>2026-03-28T16:50:12.77Z</time></trkpt><trkpt lat="45.6324416" lon="10.6029342"><ele>68.0</ele><time>2026-03-28T16:50:13.772Z</time></trkpt><trkpt lat="45.6324055" lon="10.6030559"><ele>68.2</ele><time>2026-03-28T16:50:14.771Z</time></trkpt><trkpt lat="45.6323672" lon="10.6031745"><ele>68.4</ele><time>2026-03-28T16:50:15.771Z</time></trkpt><trkpt lat="45.6323268" lon="10.6032987"><ele>68.60000000000001</ele><time>2026-03-28T16:50:16.77Z</time></trkpt><trkpt lat="45.6322855" lon="10.603423"><ele>68.8</ele><time>2026-03-28T16:50:17.771Z</time></trkpt><trkpt lat="45.632251" lon="10.6035419"><ele>69.0</ele><time>2026-03-28T16:50:18.771Z</time></trkpt><trkpt lat="45.6322171" lon="10.6036521"><ele>69.0</ele><time>2026-03-28T16:50:19.77Z</time></trkpt><trkpt lat="45.6321849" lon="10.6037551"><ele>69.0</ele><time>2026-03-28T16:50:20.77Z</time></trkpt><trkpt lat="45.6321775" lon="10.6038471"><ele>69.0</ele><time>2026-03-28T16:50:21.771Z</time></trkpt><trkpt lat="45.6322463" lon="10.604011"><ele>69.0</ele><time>2026-03-28T16:50:23.772Z</time></trkpt><trkpt lat="45.6323103" lon="10.6040792"><ele>69.0</ele><time>2026-03-28T16:50:24.772Z</time></trkpt><trkpt lat="45.6323824" lon="10.6041545"><ele>69.0</ele><time>2026-03-28T16:50:25.771Z</time></trkpt><trkpt lat="45.6324491" lon="10.6042276"><ele>69.0</ele><time>2026-03-28T16:50:26.771Z</time></trkpt><trkpt lat="45.632509" lon="10.6042992"><ele>69.0</ele><time>2026-03-28T16:50:27.771Z</time></trkpt><trkpt lat="45.6325624" lon="10.6043725"><ele>69.0</ele><time>2026-03-28T16:50:28.771Z</time></trkpt><trkpt lat="45.6326155" lon="10.6044472"><ele>69.0</ele><time>2026-03-28T16:50:29.77Z</time></trkpt><trkpt lat="45.6326669" lon="10.6045176"><ele>69.0</ele><time>2026-03-28T16:50:30.772Z</time></trkpt><trkpt lat="45.6327138" lon="10.6045942"><ele>69.0</ele><time>2026-03-28T16:50:31.771Z</time></trkpt><trkpt lat="45.6327612" lon="10.6046652"><ele>69.0</ele><time>2026-03-28T16:50:32.77Z</time></trkpt><trkpt lat="45.6328089" lon="10.6047366"><ele>68.83333333333333</ele><time>2026-03-28T16:50:33.771Z</time></trkpt><trkpt lat="45.6328639" lon="10.6048132"><ele>68.66666666666667</ele><time>2026-03-28T16:50:34.771Z</time></trkpt><trkpt lat="45.6329221" lon="10.6048954"><ele>68.5</ele><time>2026-03-28T16:50:35.77Z</time></trkpt><trkpt lat="45.6329798" lon="10.6049829"><ele>68.33333333333334</ele><time>2026-03-28T16:50:36.77Z</time></trkpt><trkpt lat="45.6330359" lon="10.6050667"><ele>68.16666666666667</ele><time>2026-03-28T16:50:37.771Z</time></trkpt><trkpt lat="45.6330887" lon="10.6051395"><ele>68.0</ele><time>2026-03-28T16:50:38.771Z</time></trkpt><trkpt lat="45.6331389" lon="10.605213"><ele>67.99999999999999</ele><time>2026-03-28T16:50:39.771Z</time></trkpt><trkpt lat="45.6331879" lon="10.6052851"><ele>68.0</ele><time>2026-03-28T16:50:40.771Z</time></trkpt><trkpt lat="45.6332394" lon="10.6053511"><ele>68.0</ele><time>2026-03-28T16:50:41.77Z</time></trkpt><trkpt lat="45.6332886" lon="10.6054173"><ele>68.0</ele><time>2026-03-28T16:50:42.771Z</time></trkpt><trkpt lat="45.6333375" lon="10.6054868"><ele>68.0</ele><time>2026-03-28T16:50:43.77Z</time></trkpt><trkpt lat="45.6333904" lon="10.6055522"><ele>67.99999999999999</ele><time>2026-03-28T16:50:44.771Z</time></trkpt><trkpt lat="45.6334418" lon="10.6056228"><ele>68.0</ele><time>2026-03-28T16:50:45.771Z</time></trkpt><trkpt lat="45.6334927" lon="10.6056907"><ele>68.28571428571428</ele><time>2026-03-28T16:50:46.771Z</time></trkpt><trkpt lat="45.6335409" lon="10.6057595"><ele>68.57142857142857</ele><time>2026-03-28T16:50:47.772Z</time></trkpt><trkpt lat="45.6335902" lon="10.6058286"><ele>68.85714285714286</ele><time>2026-03-28T16:50:48.77Z</time></trkpt><trkpt lat="45.6336456" lon="10.6058954"><ele>69.14285714285714</ele><time>2026-03-28T16:50:49.77Z</time></trkpt><trkpt lat="45.6337062" lon="10.6059655"><ele>69.42857142857143</ele><time>2026-03-28T16:50:50.77Z</time></trkpt><trkpt lat="45.6337642" lon="10.6060418"><ele>69.71428571428571</ele><time>2026-03-28T16:50:51.771Z</time></trkpt><trkpt lat="45.6338233" lon="10.6061147"><ele>70.0</ele><time>2026-03-28T16:50:52.771Z</time></trkpt><trkpt lat="45.6338803" lon="10.6061834"><ele>70.0</ele><time>2026-03-28T16:50:53.77Z</time></trkpt><trkpt lat="45.6339319" lon="10.6062487"><ele>70.0</ele><time>2026-03-28T16:50:54.77Z</time></trkpt><trkpt lat="45.6339829" lon="10.6063044"><ele>70.0</ele><time>2026-03-28T16:50:55.771Z</time></trkpt><trkpt lat="45.6340368" lon="10.6063653"><ele>70.0</ele><time>2026-03-28T16:50:56.771Z</time></trkpt><trkpt lat="45.6340887" lon="10.6064248"><ele>70.0</ele><time>2026-03-28T16:50:57.77Z</time></trkpt><trkpt lat="45.6341414" lon="10.606481"><ele>70.0</ele><time>2026-03-28T16:50:58.771Z</time></trkpt><trkpt lat="45.6342075" lon="10.606536"><ele>70.0</ele><time>2026-03-28T16:50:59.771Z</time></trkpt><trkpt lat="45.6342811" lon="10.6065961"><ele>70.0</ele><time>2026-03-28T16:51:00.771Z</time></trkpt><trkpt lat="45.6343589" lon="10.6066588"><ele>70.0</ele><time>2026-03-28T16:51:01.771Z</time></trkpt><trkpt lat="45.6344401" lon="10.6067156"><ele>70.0</ele><time>2026-03-28T16:51:02.772Z</time></trkpt><trkpt lat="45.6345219" lon="10.6067781"><ele>70.0</ele><time>2026-03-28T16:51:03.771Z</time></trkpt><trkpt lat="45.634597" lon="10.6068611"><ele>70.0</ele><time>2026-03-28T16:51:04.77Z</time></trkpt><trkpt lat="45.6346584" lon="10.6069534"><ele>70.16666666666666</ele><time>2026-03-28T16:51:05.77Z</time></trkpt><trkpt lat="45.6347184" lon="10.6070431"><ele>70.33333333333333</ele><time>2026-03-28T16:51:06.771Z</time></trkpt><trkpt lat="45.6347746" lon="10.6071248"><ele>70.5</ele><time>2026-03-28T16:51:07.77Z</time></trkpt><trkpt lat="45.6348237" lon="10.6071978"><ele>70.66666666666667</ele><time>2026-03-28T16:51:08.771Z</time></trkpt><trkpt lat="45.6349003" lon="10.6073159"><ele>70.83333333333334</ele><time>2026-03-28T16:51:10.772Z</time></trkpt><trkpt lat="45.6349475" lon="10.6073932"><ele>71.0</ele><time>2026-03-28T16:51:12.771Z</time></trkpt><trkpt lat="45.6349893" lon="10.6074783"><ele>71.0</ele><time>2026-03-28T16:51:15.771Z</time></trkpt><trkpt lat="45.6350464" lon="10.6075615"><ele>71.0</ele><time>2026-03-28T16:51:17.77Z</time></trkpt><trkpt lat="45.6350942" lon="10.6076379"><ele>71.0</ele><time>2026-03-28T16:51:19.771Z</time></trkpt><trkpt lat="45.6351561" lon="10.6076577"><ele>71.0</ele><time>2026-03-28T16:51:21.771Z</time></trkpt><trkpt lat="45.6352179" lon="10.6076014"><ele>71.0</ele><time>2026-03-28T16:51:22.771Z</time></trkpt><trkpt lat="45.6352772" lon="10.6075201"><ele>71.0</ele><time>2026-03-28T16:51:23.772Z</time></trkpt><trkpt lat="45.635335" lon="10.6074279"><ele>71.2</ele><time>2026-03-28T16:51:24.771Z</time></trkpt><trkpt lat="45.6354072" lon="10.6073287"><ele>71.39999999999999</ele><time>2026-03-28T16:51:25.771Z</time></trkpt><trkpt lat="45.6354755" lon="10.6072268"><ele>71.6</ele><time>2026-03-28T16:51:26.772Z</time></trkpt><trkpt lat="45.6355452" lon="10.6071242"><ele>71.8</ele><time>2026-03-28T16:51:27.771Z</time></trkpt><trkpt lat="45.6356153" lon="10.6070145"><ele>72.0</ele><time>2026-03-28T16:51:28.77Z</time></trkpt><trkpt lat="45.6356923" lon="10.606897"><ele>72.0</ele><time>2026-03-28T16:51:29.771Z</time></trkpt><trkpt lat="45.6357733" lon="10.6067726"><ele>72.0</ele><time>2026-03-28T16:51:30.771Z</time></trkpt><trkpt lat="45.6358542" lon="10.6066458"><ele>72.0</ele><time>2026-03-28T16:51:31.77Z</time></trkpt><trkpt lat="45.6359353" lon="10.6065219"><ele>72.0</ele><time>2026-03-28T16:51:32.77Z</time></trkpt><trkpt lat="45.6360165" lon="10.6064039"><ele>72.0</ele><time>2026-03-28T16:51:33.771Z</time></trkpt><trkpt lat="45.6360915" lon="10.6062916"><ele>72.0</ele><time>2026-03-28T16:51:34.771Z</time></trkpt><trkpt lat="45.636164" lon="10.6061811"><ele>72.0</ele><time>2026-03-28T16:51:35.77Z</time></trkpt><trkpt lat="45.6362328" lon="10.6060701"><ele>72.0</ele><time>2026-03-28T16:51:36.772Z</time></trkpt><trkpt lat="45.6363068" lon="10.6059627"><ele>72.0</ele><time>2026-03-28T16:51:37.771Z</time></trkpt><trkpt lat="45.6363735" lon="10.605865"><ele>72.4</ele><time>2026-03-28T16:51:38.771Z</time></trkpt><trkpt lat="45.6364408" lon="10.6057774"><ele>72.80000000000001</ele><time>2026-03-28T16:51:39.771Z</time></trkpt><trkpt lat="45.636494" lon="10.6057012"><ele>73.2</ele><time>2026-03-28T16:51:40.771Z</time></trkpt><trkpt lat="45.6365801" lon="10.6055827"><ele>73.60000000000001</ele><time>2026-03-28T16:51:42.771Z</time></trkpt><trkpt lat="45.6366501" lon="10.6054708"><ele>74.0</ele><time>2026-03-28T16:51:44.771Z</time></trkpt><trkpt lat="45.6366961" lon="10.605385"><ele>73.83333333333334</ele><time>2026-03-28T16:51:46.771Z</time></trkpt><trkpt lat="45.6367535" lon="10.6053009"><ele>73.66666666666667</ele><time>2026-03-28T16:51:49.771Z</time></trkpt><trkpt lat="45.6368193" lon="10.6052246"><ele>73.5</ele><time>2026-03-28T16:51:52.77Z</time></trkpt><trkpt lat="45.6368311" lon="10.6051033"><ele>73.33333333333333</ele><time>2026-03-28T16:51:55.771Z</time></trkpt><trkpt lat="45.6367818" lon="10.6050241"><ele>73.16666666666666</ele><time>2026-03-28T16:51:57.771Z</time></trkpt><trkpt lat="45.6367241" lon="10.6049521"><ele>73.0</ele><time>2026-03-28T16:51:59.771Z</time></trkpt><trkpt lat="45.6366453" lon="10.6048142"><ele>73.0</ele><time>2026-03-28T16:52:01.771Z</time></trkpt><trkpt lat="45.6365967" lon="10.604722"><ele>73.0</ele><time>2026-03-28T16:52:02.771Z</time></trkpt><trkpt lat="45.6365463" lon="10.6046242"><ele>73.0</ele><time>2026-03-28T16:52:03.77Z</time></trkpt><trkpt lat="45.6364969" lon="10.604529"><ele>73.0</ele><time>2026-03-28T16:52:04.771Z</time></trkpt><trkpt lat="45.6364461" lon="10.6044384"><ele>73.0</ele><time>2026-03-28T16:52:05.772Z</time></trkpt><trkpt lat="45.6363955" lon="10.6043451"><ele>73.0</ele><time>2026-03-28T16:52:06.771Z</time></trkpt><trkpt lat="45.6363449" lon="10.6042479"><ele>72.83333333333333</ele><time>2026-03-28T16:52:07.771Z</time></trkpt><trkpt lat="45.6362972" lon="10.6041508"><ele>72.66666666666666</ele><time>2026-03-28T16:52:08.771Z</time></trkpt><trkpt lat="45.6362488" lon="10.6040547"><ele>72.5</ele><time>2026-03-28T16:52:09.771Z</time></trkpt><trkpt lat="45.6361995" lon="10.6039597"><ele>72.33333333333333</ele><time>2026-03-28T16:52:10.77Z</time></trkpt><trkpt lat="45.6361499" lon="10.6038648"><ele>72.16666666666667</ele><time>2026-03-28T16:52:11.771Z</time></trkpt><trkpt lat="45.6361015" lon="10.6037692"><ele>72.0</ele><time>2026-03-28T16:52:12.77Z</time></trkpt><trkpt lat="45.6360524" lon="10.6036754"><ele>71.6</ele><time>2026-03-28T16:52:13.771Z</time></trkpt><trkpt lat="45.6360031" lon="10.6035755"><ele>71.2</ele><time>2026-03-28T16:52:14.771Z</time></trkpt><trkpt lat="45.6359502" lon="10.6034729"><ele>70.8</ele><time>2026-03-28T16:52:15.771Z</time></trkpt><trkpt lat="45.6358895" lon="10.6033552"><ele>70.4</ele><time>2026-03-28T16:52:16.771Z</time></trkpt><trkpt lat="45.6358303" lon="10.6032371"><ele>70.0</ele><time>2026-03-28T16:52:17.77Z</time></trkpt><trkpt lat="45.6357725" lon="10.6031209"><ele>70.0</ele><time>2026-03-28T16:52:18.77Z</time></trkpt><trkpt lat="45.6357189" lon="10.6030083"><ele>70.0</ele><time>2026-03-28T16:52:19.771Z</time></trkpt><trkpt lat="45.6356633" lon="10.6028945"><ele>70.0</ele><time>2026-03-28T16:52:20.77Z</time></trkpt><trkpt lat="45.6356105" lon="10.6027932"><ele>70.0</ele><time>2026-03-28T16:52:21.771Z</time></trkpt><trkpt lat="45.6355676" lon="10.6027065"><ele>70.0</ele><time>2026-03-28T16:52:22.772Z</time></trkpt><trkpt lat="45.6355209" lon="10.6026286"><ele>70.0</ele><time>2026-03-28T16:52:23.77Z</time></trkpt><trkpt lat="45.6354765" lon="10.602546"><ele>70.16666666666666</ele><time>2026-03-28T16:52:24.771Z</time></trkpt><trkpt lat="45.6354369" lon="10.6024712"><ele>70.33333333333333</ele><time>2026-03-28T16:52:25.77Z</time></trkpt><trkpt lat="45.6353653" lon="10.6023304"><ele>70.5</ele><time>2026-03-28T16:52:27.77Z</time></trkpt><trkpt lat="45.6353255" lon="10.6022535"><ele>70.66666666666667</ele><time>2026-03-28T16:52:28.77Z</time></trkpt><trkpt lat="45.6352859" lon="10.6021776"><ele>70.83333333333334</ele><time>2026-03-28T16:52:29.77Z</time></trkpt><trkpt lat="45.6352448" lon="10.6020956"><ele>71.0</ele><time>2026-03-28T16:52:30.771Z</time></trkpt><trkpt lat="45.6352052" lon="10.602018"><ele>70.66666666666667</ele><time>2026-03-28T16:52:31.771Z</time></trkpt><trkpt lat="45.6351701" lon="10.6019404"><ele>70.33333333333334</ele><time>2026-03-28T16:52:32.77Z</time></trkpt><trkpt lat="45.6351323" lon="10.601859"><ele>70.0</ele><time>2026-03-28T16:52:33.77Z</time></trkpt><trkpt lat="45.6350876" lon="10.6017633"><ele>69.66666666666667</ele><time>2026-03-28T16:52:34.772Z</time></trkpt><trkpt lat="45.6350418" lon="10.6016664"><ele>69.33333333333333</ele><time>2026-03-28T16:52:35.77Z</time></trkpt><trkpt lat="45.6349971" lon="10.6015579"><ele>69.0</ele><time>2026-03-28T16:52:36.77Z</time></trkpt><trkpt lat="45.6349628" lon="10.601438"><ele>69.0</ele><time>2026-03-28T16:52:37.771Z</time></trkpt><trkpt lat="45.6349369" lon="10.6013184"><ele>69.0</ele><time>2026-03-28T16:52:38.77Z</time></trkpt><trkpt lat="45.6349194" lon="10.6011896"><ele>69.0</ele><time>2026-03-28T16:52:39.77Z</time></trkpt><trkpt lat="45.634915" lon="10.6010598"><ele>69.0</ele><time>2026-03-28T16:52:40.77Z</time></trkpt><trkpt lat="45.6349191" lon="10.6009398"><ele>69.0</ele><time>2026-03-28T16:52:41.77Z</time></trkpt><trkpt lat="45.6349324" lon="10.6008271"><ele>69.0</ele><time>2026-03-28T16:52:42.77Z</time></trkpt><trkpt lat="45.6349524" lon="10.6007142"><ele>69.2</ele><time>2026-03-28T16:52:43.772Z</time></trkpt><trkpt lat="45.63498" lon="10.6005996"><ele>69.4</ele><time>2026-03-28T16:52:44.772Z</time></trkpt><trkpt lat="45.6350171" lon="10.6004884"><ele>69.6</ele><time>2026-03-28T16:52:45.771Z</time></trkpt><trkpt lat="45.6350588" lon="10.600374"><ele>69.8</ele><time>2026-03-28T16:52:46.77Z</time></trkpt><trkpt lat="45.6351011" lon="10.6002544"><ele>70.0</ele><time>2026-03-28T16:52:47.77Z</time></trkpt><trkpt lat="45.6351497" lon="10.6001246"><ele>70.4</ele><time>2026-03-28T16:52:48.771Z</time></trkpt><trkpt lat="45.6352027" lon="10.5999836"><ele>70.8</ele><time>2026-03-28T16:52:49.77Z</time></trkpt><trkpt lat="45.6352604" lon="10.5998402"><ele>71.2</ele><time>2026-03-28T16:52:50.772Z</time></trkpt><trkpt lat="45.6353193" lon="10.5997059"><ele>71.6</ele><time>2026-03-28T16:52:51.77Z</time></trkpt><trkpt lat="45.6353798" lon="10.5995783"><ele>72.0</ele><time>2026-03-28T16:52:52.771Z</time></trkpt><trkpt lat="45.6354392" lon="10.5994639"><ele>72.0</ele><time>2026-03-28T16:52:53.771Z</time></trkpt><trkpt lat="45.6354953" lon="10.5993624"><ele>72.0</ele><time>2026-03-28T16:52:54.771Z</time></trkpt><trkpt lat="45.6355503" lon="10.5992694"><ele>72.0</ele><time>2026-03-28T16:52:55.77Z</time></trkpt><trkpt lat="45.6356035" lon="10.5991624"><ele>72.0</ele><time>2026-03-28T16:52:56.771Z</time></trkpt><trkpt lat="45.635647" lon="10.5990505"><ele>72.0</ele><time>2026-03-28T16:52:57.772Z</time></trkpt><trkpt lat="45.6356834" lon="10.5989328"><ele>72.0</ele><time>2026-03-28T16:52:58.771Z</time></trkpt><trkpt lat="45.6357117" lon="10.5988151"><ele>72.0</ele><time>2026-03-28T16:52:59.771Z</time></trkpt><trkpt lat="45.6357316" lon="10.5987004"><ele>72.0</ele><time>2026-03-28T16:53:00.771Z</time></trkpt><trkpt lat="45.6357345" lon="10.5985833"><ele>72.0</ele><time>2026-03-28T16:53:01.772Z</time></trkpt><trkpt lat="45.6357339" lon="10.5984718"><ele>72.0</ele><time>2026-03-28T16:53:02.771Z</time></trkpt><trkpt lat="45.6357332" lon="10.5983654"><ele>72.0</ele><time>2026-03-28T16:53:03.77Z</time></trkpt><trkpt lat="45.6357367" lon="10.5982651"><ele>72.0</ele><time>2026-03-28T16:53:04.771Z</time></trkpt><trkpt lat="45.6357364" lon="10.598159"><ele>72.4</ele><time>2026-03-28T16:53:05.771Z</time></trkpt><trkpt lat="45.6357283" lon="10.5980608"><ele>72.80000000000001</ele><time>2026-03-28T16:53:06.771Z</time></trkpt><trkpt lat="45.6357145" lon="10.5978831"><ele>73.2</ele><time>2026-03-28T16:53:08.772Z</time></trkpt><trkpt lat="45.635693" lon="10.5977179"><ele>73.60000000000001</ele><time>2026-03-28T16:53:10.771Z</time></trkpt><trkpt lat="45.635671" lon="10.5975595"><ele>74.0</ele><time>2026-03-28T16:53:12.771Z</time></trkpt><trkpt lat="45.6356375" lon="10.597388"><ele>75.0</ele><time>2026-03-28T16:53:14.771Z</time></trkpt><trkpt lat="45.6356098" lon="10.5972872"><ele>76.0</ele><time>2026-03-28T16:53:15.771Z</time></trkpt><trkpt lat="45.6355625" lon="10.5971651"><ele>77.0</ele><time>2026-03-28T16:53:16.772Z</time></trkpt><trkpt lat="45.6355081" lon="10.5970209"><ele>78.0</ele><time>2026-03-28T16:53:17.77Z</time></trkpt><trkpt lat="45.6354507" lon="10.596865"><ele>79.0</ele><time>2026-03-28T16:53:18.771Z</time></trkpt><trkpt lat="45.6353881" lon="10.5967137"><ele>78.8</ele><time>2026-03-28T16:53:19.77Z</time></trkpt><trkpt lat="45.6353205" lon="10.5965787"><ele>78.60000000000001</ele><time>2026-03-28T16:53:20.77Z</time></trkpt><trkpt lat="45.6352564" lon="10.5964502"><ele>78.4</ele><time>2026-03-28T16:53:21.77Z</time></trkpt><trkpt lat="45.6351997" lon="10.5963321"><ele>78.2</ele><time>2026-03-28T16:53:22.77Z</time></trkpt><trkpt lat="45.6351467" lon="10.5962221"><ele>78.0</ele><time>2026-03-28T16:53:23.77Z</time></trkpt><trkpt lat="45.6350961" lon="10.5961104"><ele>78.0</ele><time>2026-03-28T16:53:24.772Z</time></trkpt><trkpt lat="45.635052" lon="10.5960006"><ele>78.0</ele><time>2026-03-28T16:53:25.77Z</time></trkpt><trkpt lat="45.6350128" lon="10.5958862"><ele>78.0</ele><time>2026-03-28T16:53:26.771Z</time></trkpt><trkpt lat="45.634974" lon="10.595774"><ele>78.0</ele><time>2026-03-28T16:53:27.771Z</time></trkpt><trkpt lat="45.6349294" lon="10.5956562"><ele>78.0</ele><time>2026-03-28T16:53:28.771Z</time></trkpt><trkpt lat="45.6348806" lon="10.5955333"><ele>78.0</ele><time>2026-03-28T16:53:29.77Z</time></trkpt><trkpt lat="45.6348289" lon="10.5954041"><ele>78.0</ele><time>2026-03-28T16:53:30.77Z</time></trkpt><trkpt lat="45.6347747" lon="10.595271"><ele>78.0</ele><time>2026-03-28T16:53:31.77Z</time></trkpt><trkpt lat="45.6347201" lon="10.5951373"><ele>78.0</ele><time>2026-03-28T16:53:32.77Z</time></trkpt><trkpt lat="45.6346602" lon="10.5949992"><ele>78.0</ele><time>2026-03-28T16:53:33.771Z</time></trkpt><trkpt lat="45.6345954" lon="10.5948557"><ele>77.75</ele><time>2026-03-28T16:53:34.77Z</time></trkpt><trkpt lat="45.6345226" lon="10.594716"><ele>77.5</ele><time>2026-03-28T16:53:35.771Z</time></trkpt><trkpt lat="45.6344528" lon="10.5945724"><ele>77.25</ele><time>2026-03-28T16:53:36.77Z</time></trkpt><trkpt lat="45.6343774" lon="10.5944268"><ele>77.0</ele><time>2026-03-28T16:53:37.771Z</time></trkpt><trkpt lat="45.6342981" lon="10.5942702"><ele>77.0</ele><time>2026-03-28T16:53:38.772Z</time></trkpt><trkpt lat="45.6342167" lon="10.5941093"><ele>77.0</ele><time>2026-03-28T16:53:39.771Z</time></trkpt><trkpt lat="45.6341335" lon="10.5939471"><ele>77.0</ele><time>2026-03-28T16:53:40.771Z</time></trkpt><trkpt lat="45.6340465" lon="10.5937794"><ele>77.0</ele><time>2026-03-28T16:53:41.771Z</time></trkpt><trkpt lat="45.6339548" lon="10.5936124"><ele>83.33333333333334</ele><time>2026-03-28T16:53:42.77Z</time></trkpt><trkpt lat="45.6338636" lon="10.593442"><ele>89.66666666666667</ele><time>2026-03-28T16:53:43.77Z</time></trkpt><trkpt lat="45.6337671" lon="10.5932676"><ele>96.0</ele><time>2026-03-28T16:53:44.771Z</time></trkpt><trkpt lat="45.6336673" lon="10.5930838"><ele>89.0</ele><time>2026-03-28T16:53:45.77Z</time></trkpt><trkpt lat="45.6335659" lon="10.5928955"><ele>82.0</ele><time>2026-03-28T16:53:46.77Z</time></trkpt><trkpt lat="45.6334608" lon="10.5927025"><ele>75.0</ele><time>2026-03-28T16:53:47.771Z</time></trkpt><trkpt lat="45.6333579" lon="10.592513"><ele>75.0</ele><time>2026-03-28T16:53:48.771Z</time></trkpt><trkpt lat="45.6332567" lon="10.5923242"><ele>75.0</ele><time>2026-03-28T16:53:49.771Z</time></trkpt><trkpt lat="45.6331502" lon="10.5921524"><ele>75.0</ele><time>2026-03-28T16:53:50.77Z</time></trkpt><trkpt lat="45.6330368" lon="10.5920011"><ele>74.5</ele><time>2026-03-28T16:53:51.77Z</time></trkpt><trkpt lat="45.6329187" lon="10.5918649"><ele>74.0</ele><time>2026-03-28T16:53:52.77Z</time></trkpt><trkpt lat="45.6328038" lon="10.5917423"><ele>73.5</ele><time>2026-03-28T16:53:53.771Z</time></trkpt><trkpt lat="45.6326959" lon="10.5916271"><ele>73.0</ele><time>2026-03-28T16:53:54.772Z</time></trkpt><trkpt lat="45.6325963" lon="10.5915036"><ele>73.0</ele><time>2026-03-28T16:53:55.771Z</time></trkpt><trkpt lat="45.6325122" lon="10.5913654"><ele>73.0</ele><time>2026-03-28T16:53:56.771Z</time></trkpt><trkpt lat="45.6324383" lon="10.5912135"><ele>73.0</ele><time>2026-03-28T16:53:57.769Z</time></trkpt><trkpt lat="45.6323681" lon="10.5910498"><ele>73.0</ele><time>2026-03-28T16:53:58.769Z</time></trkpt><trkpt lat="45.6322998" lon="10.5908898"><ele>77.5</ele><time>2026-03-28T16:53:59.771Z</time></trkpt><trkpt lat="45.6322356" lon="10.5907273"><ele>82.0</ele><time>2026-03-28T16:54:00.77Z</time></trkpt><trkpt lat="45.632173" lon="10.59057"><ele>86.5</ele><time>2026-03-28T16:54:01.771Z</time></trkpt><trkpt lat="45.6321063" lon="10.5904142"><ele>91.0</ele><time>2026-03-28T16:54:02.77Z</time></trkpt><trkpt lat="45.6320343" lon="10.5902658"><ele>87.25</ele><time>2026-03-28T16:54:03.77Z</time></trkpt><trkpt lat="45.6319542" lon="10.5901177"><ele>83.5</ele><time>2026-03-28T16:54:04.77Z</time></trkpt><trkpt lat="45.6318737" lon="10.5899627"><ele>79.75</ele><time>2026-03-28T16:54:05.77Z</time></trkpt><trkpt lat="45.631793" lon="10.589804"><ele>76.0</ele><time>2026-03-28T16:54:06.77Z</time></trkpt><trkpt lat="45.6317099" lon="10.5896506"><ele>78.5</ele><time>2026-03-28T16:54:07.771Z</time></trkpt><trkpt lat="45.6316244" lon="10.5894992"><ele>81.0</ele><time>2026-03-28T16:54:08.769Z</time></trkpt><trkpt lat="45.6315355" lon="10.5893499"><ele>83.5</ele><time>2026-03-28T16:54:09.77Z</time></trkpt><trkpt lat="45.6314433" lon="10.5891954"><ele>86.0</ele><time>2026-03-28T16:54:10.77Z</time></trkpt><trkpt lat="45.6313506" lon="10.589048"><ele>86.0</ele><time>2026-03-28T16:54:11.77Z</time></trkpt><trkpt lat="45.6312613" lon="10.5888981"><ele>86.0</ele><time>2026-03-28T16:54:12.77Z</time></trkpt><trkpt lat="45.6311753" lon="10.5887539"><ele>86.0</ele><time>2026-03-28T16:54:13.77Z</time></trkpt><trkpt lat="45.6310825" lon="10.5886106"><ele>86.0</ele><time>2026-03-28T16:54:14.769Z</time></trkpt><trkpt lat="45.6309874" lon="10.5884707"><ele>83.5</ele><time>2026-03-28T16:54:15.77Z</time></trkpt><trkpt lat="45.6308925" lon="10.5883379"><ele>81.0</ele><time>2026-03-28T16:54:16.77Z</time></trkpt><trkpt lat="45.6308018" lon="10.5882009"><ele>78.5</ele><time>2026-03-28T16:54:17.77Z</time></trkpt><trkpt lat="45.6307097" lon="10.5880602"><ele>76.0</ele><time>2026-03-28T16:54:18.771Z</time></trkpt><trkpt lat="45.6306158" lon="10.5879234"><ele>77.0</ele><time>2026-03-28T16:54:19.77Z</time></trkpt><trkpt lat="45.6305255" lon="10.5877914"><ele>78.0</ele><time>2026-03-28T16:54:20.77Z</time></trkpt><trkpt lat="45.6304324" lon="10.5876575"><ele>79.0</ele><time>2026-03-28T16:54:21.771Z</time></trkpt><trkpt lat="45.6303428" lon="10.5875279"><ele>80.0</ele><time>2026-03-28T16:54:22.771Z</time></trkpt><trkpt lat="45.6302601" lon="10.5874156"><ele>80.0</ele><time>2026-03-28T16:54:23.77Z</time></trkpt><trkpt lat="45.630177" lon="10.5873083"><ele>80.0</ele><time>2026-03-28T16:54:24.769Z</time></trkpt><trkpt lat="45.630098" lon="10.5872066"><ele>80.0</ele><time>2026-03-28T16:54:25.769Z</time></trkpt><trkpt lat="45.6300153" lon="10.5871119"><ele>80.0</ele><time>2026-03-28T16:54:26.769Z</time></trkpt><trkpt lat="45.6299293" lon="10.5870174"><ele>80.0</ele><time>2026-03-28T16:54:27.771Z</time></trkpt><trkpt lat="45.6298383" lon="10.5869235"><ele>79.25</ele><time>2026-03-28T16:54:28.771Z</time></trkpt><trkpt lat="45.6297408" lon="10.5868322"><ele>78.5</ele><time>2026-03-28T16:54:29.77Z</time></trkpt><trkpt lat="45.6296359" lon="10.5867561"><ele>77.75</ele><time>2026-03-28T16:54:30.77Z</time></trkpt><trkpt lat="45.6295212" lon="10.5866939"><ele>77.0</ele><time>2026-03-28T16:54:31.771Z</time></trkpt><trkpt lat="45.6293965" lon="10.5866446"><ele>77.0</ele><time>2026-03-28T16:54:32.77Z</time></trkpt><trkpt lat="45.6292633" lon="10.5866176"><ele>77.0</ele><time>2026-03-28T16:54:33.77Z</time></trkpt><trkpt lat="45.6291241" lon="10.5866038"><ele>77.0</ele><time>2026-03-28T16:54:34.77Z</time></trkpt><trkpt lat="45.6289793" lon="10.586594"><ele>77.0</ele><time>2026-03-28T16:54:35.77Z</time></trkpt><trkpt lat="45.6288329" lon="10.5865923"><ele>77.0</ele><time>2026-03-28T16:54:36.769Z</time></trkpt><trkpt lat="45.6286865" lon="10.5865991"><ele>77.0</ele><time>2026-03-28T16:54:37.77Z</time></trkpt><trkpt lat="45.6285441" lon="10.5866046"><ele>77.0</ele><time>2026-03-28T16:54:38.771Z</time></trkpt><trkpt lat="45.6284031" lon="10.5866037"><ele>77.0</ele><time>2026-03-28T16:54:39.77Z</time></trkpt><trkpt lat="45.6282683" lon="10.5866052"><ele>76.75</ele><time>2026-03-28T16:54:40.769Z</time></trkpt><trkpt lat="45.6281386" lon="10.5866078"><ele>76.5</ele><time>2026-03-28T16:54:41.77Z</time></trkpt><trkpt lat="45.6280174" lon="10.5866134"><ele>76.25</ele><time>2026-03-28T16:54:42.771Z</time></trkpt><trkpt lat="45.6278971" lon="10.5866021"><ele>76.0</ele><time>2026-03-28T16:54:43.77Z</time></trkpt><trkpt lat="45.6277811" lon="10.5865673"><ele>76.0</ele><time>2026-03-28T16:54:44.77Z</time></trkpt><trkpt lat="45.6276689" lon="10.5865077"><ele>76.0</ele><time>2026-03-28T16:54:45.769Z</time></trkpt><trkpt lat="45.6275591" lon="10.5864233"><ele>76.0</ele><time>2026-03-28T16:54:46.769Z</time></trkpt><trkpt lat="45.6274491" lon="10.5863266"><ele>76.0</ele><time>2026-03-28T16:54:47.77Z</time></trkpt><trkpt lat="45.6273408" lon="10.5862193"><ele>76.5</ele><time>2026-03-28T16:54:48.77Z</time></trkpt><trkpt lat="45.6272313" lon="10.5861108"><ele>77.0</ele><time>2026-03-28T16:54:49.77Z</time></trkpt><trkpt lat="45.627126" lon="10.5860032"><ele>77.5</ele><time>2026-03-28T16:54:50.77Z</time></trkpt><trkpt lat="45.6270199" lon="10.5859046"><ele>78.0</ele><time>2026-03-28T16:54:51.769Z</time></trkpt><trkpt lat="45.6269149" lon="10.5858046"><ele>78.0</ele><time>2026-03-28T16:54:52.769Z</time></trkpt><trkpt lat="45.6268075" lon="10.5857024"><ele>78.0</ele><time>2026-03-28T16:54:53.77Z</time></trkpt><trkpt lat="45.6267047" lon="10.5856057"><ele>78.0</ele><time>2026-03-28T16:54:54.77Z</time></trkpt><trkpt lat="45.6266016" lon="10.5855116"><ele>78.0</ele><time>2026-03-28T16:54:55.771Z</time></trkpt><trkpt lat="45.6264994" lon="10.5854112"><ele>78.25</ele><time>2026-03-28T16:54:56.771Z</time></trkpt><trkpt lat="45.6264104" lon="10.585294"><ele>78.5</ele><time>2026-03-28T16:54:57.769Z</time></trkpt><trkpt lat="45.6263348" lon="10.5851605"><ele>78.75</ele><time>2026-03-28T16:54:58.77Z</time></trkpt><trkpt lat="45.6262699" lon="10.5850249"><ele>79.0</ele><time>2026-03-28T16:54:59.77Z</time></trkpt><trkpt lat="45.6262069" lon="10.5848852"><ele>79.0</ele><time>2026-03-28T16:55:00.77Z</time></trkpt><trkpt lat="45.6261485" lon="10.584743"><ele>79.0</ele><time>2026-03-28T16:55:01.77Z</time></trkpt><trkpt lat="45.6261003" lon="10.5845978"><ele>79.0</ele><time>2026-03-28T16:55:02.769Z</time></trkpt><trkpt lat="45.6260711" lon="10.5844507"><ele>79.0</ele><time>2026-03-28T16:55:03.769Z</time></trkpt><trkpt lat="45.6260557" lon="10.5843059"><ele>79.0</ele><time>2026-03-28T16:55:04.771Z</time></trkpt><trkpt lat="45.6260541" lon="10.5841588"><ele>77.75</ele><time>2026-03-28T16:55:05.769Z</time></trkpt><trkpt lat="45.6260644" lon="10.5840024"><ele>76.5</ele><time>2026-03-28T16:55:06.77Z</time></trkpt><trkpt lat="45.6260853" lon="10.5838367"><ele>75.25</ele><time>2026-03-28T16:55:07.771Z</time></trkpt><trkpt lat="45.6261078" lon="10.5836702"><ele>74.0</ele><time>2026-03-28T16:55:08.769Z</time></trkpt><trkpt lat="45.6261335" lon="10.5835019"><ele>76.2</ele><time>2026-03-28T16:55:09.77Z</time></trkpt><trkpt lat="45.6261559" lon="10.5833393"><ele>78.4</ele><time>2026-03-28T16:55:10.77Z</time></trkpt><trkpt lat="45.6261749" lon="10.5831828"><ele>80.6</ele><time>2026-03-28T16:55:11.77Z</time></trkpt><trkpt lat="45.6261922" lon="10.5830383"><ele>82.8</ele><time>2026-03-28T16:55:12.77Z</time></trkpt><trkpt lat="45.6262051" lon="10.5829014"><ele>85.0</ele><time>2026-03-28T16:55:13.769Z</time></trkpt><trkpt lat="45.6262166" lon="10.5827641"><ele>85.0</ele><time>2026-03-28T16:55:14.77Z</time></trkpt><trkpt lat="45.6262235" lon="10.5826292"><ele>85.0</ele><time>2026-03-28T16:55:15.769Z</time></trkpt><trkpt lat="45.6262259" lon="10.5825048"><ele>85.0</ele><time>2026-03-28T16:55:16.77Z</time></trkpt><trkpt lat="45.6262271" lon="10.5823807"><ele>85.0</ele><time>2026-03-28T16:55:17.77Z</time></trkpt><trkpt lat="45.626225" lon="10.5822577"><ele>85.0</ele><time>2026-03-28T16:55:18.77Z</time></trkpt><trkpt lat="45.6262271" lon="10.5821498"><ele>85.0</ele><time>2026-03-28T16:55:19.77Z</time></trkpt><trkpt lat="45.626227" lon="10.5820453"><ele>84.83333333333333</ele><time>2026-03-28T16:55:20.77Z</time></trkpt><trkpt lat="45.6262244" lon="10.5819296"><ele>84.66666666666666</ele><time>2026-03-28T16:55:21.77Z</time></trkpt><trkpt lat="45.6262257" lon="10.5818137"><ele>84.5</ele><time>2026-03-28T16:55:22.77Z</time></trkpt><trkpt lat="45.6262307" lon="10.5817104"><ele>84.33333333333333</ele><time>2026-03-28T16:55:23.77Z</time></trkpt><trkpt lat="45.6262331" lon="10.5816112"><ele>84.16666666666667</ele><time>2026-03-28T16:55:24.771Z</time></trkpt><trkpt lat="45.6262306" lon="10.5815142"><ele>84.0</ele><time>2026-03-28T16:55:25.77Z</time></trkpt><trkpt lat="45.6262217" lon="10.5813694"><ele>84.0</ele><time>2026-03-28T16:55:27.77Z</time></trkpt><trkpt lat="45.6262092" lon="10.5812184"><ele>84.0</ele><time>2026-03-28T16:55:29.77Z</time></trkpt><trkpt lat="45.6262026" lon="10.5811203"><ele>84.0</ele><time>2026-03-28T16:55:30.77Z</time></trkpt><trkpt lat="45.6261963" lon="10.5810256"><ele>84.0</ele><time>2026-03-28T16:55:31.77Z</time></trkpt><trkpt lat="45.6261893" lon="10.5809141"><ele>84.0</ele><time>2026-03-28T16:55:32.77Z</time></trkpt><trkpt lat="45.6261893" lon="10.5807986"><ele>84.0</ele><time>2026-03-28T16:55:33.769Z</time></trkpt><trkpt lat="45.626196" lon="10.5806787"><ele>84.16666666666667</ele><time>2026-03-28T16:55:34.77Z</time></trkpt><trkpt lat="45.626204" lon="10.5805671"><ele>84.33333333333333</ele><time>2026-03-28T16:55:35.77Z</time></trkpt><trkpt lat="45.6262034" lon="10.5804243"><ele>84.5</ele><time>2026-03-28T16:55:37.77Z</time></trkpt><trkpt lat="45.6261962" lon="10.5803201"><ele>84.66666666666666</ele><time>2026-03-28T16:55:40.77Z</time></trkpt><trkpt lat="45.6261978" lon="10.5802279"><ele>84.83333333333333</ele><time>2026-03-28T16:55:43.77Z</time></trkpt><trkpt lat="45.6262" lon="10.5801019"><ele>85.0</ele><time>2026-03-28T16:55:46.77Z</time></trkpt><trkpt lat="45.626204" lon="10.5799954"><ele>85.5</ele><time>2026-03-28T16:55:48.77Z</time></trkpt><trkpt lat="45.6262064" lon="10.5798755"><ele>86.0</ele><time>2026-03-28T16:55:50.77Z</time></trkpt><trkpt lat="45.6262092" lon="10.5797776"><ele>86.5</ele><time>2026-03-28T16:55:52.769Z</time></trkpt><trkpt lat="45.6262092" lon="10.5796853"><ele>87.0</ele><time>2026-03-28T16:55:54.771Z</time></trkpt><trkpt lat="45.6262063" lon="10.5795772"><ele>87.5</ele><time>2026-03-28T16:55:56.769Z</time></trkpt><trkpt lat="45.6262045" lon="10.5794702"><ele>88.0</ele><time>2026-03-28T16:55:58.769Z</time></trkpt><trkpt lat="45.6262018" lon="10.5793507"><ele>88.0</ele><time>2026-03-28T16:56:00.77Z</time></trkpt><trkpt lat="45.6261915" lon="10.5792021"><ele>88.0</ele><time>2026-03-28T16:56:02.77Z</time></trkpt><trkpt lat="45.6261751" lon="10.5790206"><ele>88.0</ele><time>2026-03-28T16:56:04.77Z</time></trkpt><trkpt lat="45.6261621" lon="10.5789094"><ele>88.0</ele><time>2026-03-28T16:56:05.771Z</time></trkpt><trkpt lat="45.6261481" lon="10.5787855"><ele>88.0</ele><time>2026-03-28T16:56:06.77Z</time></trkpt><trkpt lat="45.6261327" lon="10.5786547"><ele>85.66666666666666</ele><time>2026-03-28T16:56:07.77Z</time></trkpt><trkpt lat="45.6261143" lon="10.578519"><ele>83.33333333333333</ele><time>2026-03-28T16:56:08.77Z</time></trkpt><trkpt lat="45.626097" lon="10.578386"><ele>81.0</ele><time>2026-03-28T16:56:09.77Z</time></trkpt><trkpt lat="45.6260828" lon="10.5782594"><ele>78.66666666666667</ele><time>2026-03-28T16:56:10.771Z</time></trkpt><trkpt lat="45.6260685" lon="10.5781337"><ele>76.33333333333334</ele><time>2026-03-28T16:56:11.769Z</time></trkpt><trkpt lat="45.6260536" lon="10.5780301"><ele>74.0</ele><time>2026-03-28T16:56:12.77Z</time></trkpt><trkpt lat="45.6260319" lon="10.5778676"><ele>74.8</ele><time>2026-03-28T16:56:14.77Z</time></trkpt><trkpt lat="45.6260126" lon="10.5777169"><ele>75.60000000000001</ele><time>2026-03-28T16:56:16.769Z</time></trkpt><trkpt lat="45.6259825" lon="10.5775284"><ele>76.4</ele><time>2026-03-28T16:56:18.771Z</time></trkpt><trkpt lat="45.6259716" lon="10.5774276"><ele>77.2</ele><time>2026-03-28T16:56:19.77Z</time></trkpt><trkpt lat="45.6259578" lon="10.5773049"><ele>78.0</ele><time>2026-03-28T16:56:20.769Z</time></trkpt><trkpt lat="45.6259392" lon="10.5771684"><ele>78.0</ele><time>2026-03-28T16:56:21.77Z</time></trkpt><trkpt lat="45.6259139" lon="10.5770354"><ele>78.0</ele><time>2026-03-28T16:56:22.769Z</time></trkpt><trkpt lat="45.625888" lon="10.5769052"><ele>78.0</ele><time>2026-03-28T16:56:23.77Z</time></trkpt><trkpt lat="45.6258605" lon="10.5767798"><ele>78.0</ele><time>2026-03-28T16:56:24.769Z</time></trkpt><trkpt lat="45.6258324" lon="10.5766576"><ele>78.0</ele><time>2026-03-28T16:56:25.769Z</time></trkpt><trkpt lat="45.6258044" lon="10.5765334"><ele>78.5</ele><time>2026-03-28T16:56:26.77Z</time></trkpt><trkpt lat="45.6257754" lon="10.576419"><ele>79.0</ele><time>2026-03-28T16:56:27.77Z</time></trkpt><trkpt lat="45.6257516" lon="10.5763184"><ele>79.5</ele><time>2026-03-28T16:56:28.771Z</time></trkpt><trkpt lat="45.625726" lon="10.5762112"><ele>80.0</ele><time>2026-03-28T16:56:29.77Z</time></trkpt><trkpt lat="45.6256996" lon="10.5760962"><ele>80.5</ele><time>2026-03-28T16:56:30.77Z</time></trkpt><trkpt lat="45.6256681" lon="10.57597"><ele>81.0</ele><time>2026-03-28T16:56:31.771Z</time></trkpt><trkpt lat="45.6256382" lon="10.5758455"><ele>82.0</ele><time>2026-03-28T16:56:32.77Z</time></trkpt><trkpt lat="45.6256076" lon="10.5757135"><ele>83.0</ele><time>2026-03-28T16:56:33.771Z</time></trkpt><trkpt lat="45.6255764" lon="10.575589"><ele>84.0</ele><time>2026-03-28T16:56:34.77Z</time></trkpt><trkpt lat="45.6255459" lon="10.5754791"><ele>85.0</ele><time>2026-03-28T16:56:35.77Z</time></trkpt><trkpt lat="45.6255178" lon="10.5753919"><ele>86.0</ele><time>2026-03-28T16:56:36.771Z</time></trkpt><trkpt lat="45.625469" lon="10.5752511"><ele>87.0</ele><time>2026-03-28T16:56:38.769Z</time></trkpt><trkpt lat="45.6254265" lon="10.5751238"><ele>89.6</ele><time>2026-03-28T16:56:40.77Z</time></trkpt><trkpt lat="45.6253658" lon="10.5749572"><ele>92.19999999999999</ele><time>2026-03-28T16:56:42.77Z</time></trkpt><trkpt lat="45.6253277" lon="10.5748561"><ele>94.8</ele><time>2026-03-28T16:56:43.771Z</time></trkpt><trkpt lat="45.6252808" lon="10.5747486"><ele>97.4</ele><time>2026-03-28T16:56:44.77Z</time></trkpt><trkpt lat="45.6252327" lon="10.5746502"><ele>100.0</ele><time>2026-03-28T16:56:45.77Z</time></trkpt><trkpt lat="45.625178" lon="10.5745587"><ele>97.00000000000001</ele><time>2026-03-28T16:56:46.77Z</time></trkpt><trkpt lat="45.6251228" lon="10.5744752"><ele>94.0</ele><time>2026-03-28T16:56:47.771Z</time></trkpt><trkpt lat="45.6250672" lon="10.5744014"><ele>91.0</ele><time>2026-03-28T16:56:48.769Z</time></trkpt><trkpt lat="45.625007" lon="10.5743266"><ele>88.0</ele><time>2026-03-28T16:56:49.77Z</time></trkpt><trkpt lat="45.6249465" lon="10.5742407"><ele>85.0</ele><time>2026-03-28T16:56:50.77Z</time></trkpt><trkpt lat="45.6248811" lon="10.5741544"><ele>82.0</ele><time>2026-03-28T16:56:51.77Z</time></trkpt><trkpt lat="45.6248151" lon="10.5740677"><ele>82.0</ele><time>2026-03-28T16:56:52.77Z</time></trkpt><trkpt lat="45.6247488" lon="10.5739816"><ele>82.0</ele><time>2026-03-28T16:56:53.771Z</time></trkpt><trkpt lat="45.6246768" lon="10.5739003"><ele>82.0</ele><time>2026-03-28T16:56:54.77Z</time></trkpt><trkpt lat="45.6246029" lon="10.5738218"><ele>82.0</ele><time>2026-03-28T16:56:55.77Z</time></trkpt><trkpt lat="45.6245328" lon="10.5737407"><ele>82.0</ele><time>2026-03-28T16:56:56.769Z</time></trkpt><trkpt lat="45.624482" lon="10.5736685"><ele>82.0</ele><time>2026-03-28T16:56:57.769Z</time></trkpt><trkpt lat="45.6243936" lon="10.5735478"><ele>81.16666666666666</ele><time>2026-03-28T16:56:59.771Z</time></trkpt><trkpt lat="45.6243315" lon="10.5734326"><ele>80.33333333333333</ele><time>2026-03-28T16:57:01.77Z</time></trkpt><trkpt lat="45.6242832" lon="10.5733279"><ele>79.5</ele><time>2026-03-28T16:57:03.77Z</time></trkpt><trkpt lat="45.6242447" lon="10.5732563"><ele>78.66666666666667</ele><time>2026-03-28T16:57:05.769Z</time></trkpt><trkpt lat="45.624211" lon="10.5731755"><ele>77.83333333333334</ele><time>2026-03-28T16:57:07.771Z</time></trkpt><trkpt lat="45.6241715" lon="10.5730697"><ele>77.0</ele><time>2026-03-28T16:57:09.77Z</time></trkpt><trkpt lat="45.6241327" lon="10.5729585"><ele>77.0</ele><time>2026-03-28T16:57:11.77Z</time></trkpt><trkpt lat="45.6241034" lon="10.5728746"><ele>77.0</ele><time>2026-03-28T16:57:13.769Z</time></trkpt><trkpt lat="45.6240806" lon="10.5727887"><ele>77.0</ele><time>2026-03-28T16:57:15.77Z</time></trkpt><trkpt lat="45.6240465" lon="10.5726833"><ele>77.0</ele><time>2026-03-28T16:57:17.77Z</time></trkpt><trkpt lat="45.6240054" lon="10.5725739"><ele>77.0</ele><time>2026-03-28T16:57:21.769Z</time></trkpt><trkpt lat="45.6239709" lon="10.5724709"><ele>77.0</ele><time>2026-03-28T16:57:23.77Z</time></trkpt><trkpt lat="45.6239209" lon="10.57235"><ele>77.83333333333334</ele><time>2026-03-28T16:57:25.77Z</time></trkpt><trkpt lat="45.6238786" lon="10.5721702"><ele>78.66666666666667</ele><time>2026-03-28T16:57:27.769Z</time></trkpt><trkpt lat="45.6238567" lon="10.5720804"><ele>79.5</ele><time>2026-03-28T16:57:28.77Z</time></trkpt><trkpt lat="45.6238314" lon="10.5719891"><ele>80.33333333333333</ele><time>2026-03-28T16:57:29.769Z</time></trkpt><trkpt lat="45.6238014" lon="10.5719018"><ele>81.16666666666666</ele><time>2026-03-28T16:57:30.77Z</time></trkpt><trkpt lat="45.6237505" lon="10.5717584"><ele>82.0</ele><time>2026-03-28T16:57:32.77Z</time></trkpt><trkpt lat="45.6236878" lon="10.571625"><ele>81.8</ele><time>2026-03-28T16:57:34.77Z</time></trkpt><trkpt lat="45.6236386" lon="10.5715178"><ele>81.6</ele><time>2026-03-28T16:57:36.77Z</time></trkpt><trkpt lat="45.6235962" lon="10.5714491"><ele>81.39999999999999</ele><time>2026-03-28T16:57:37.77Z</time></trkpt><trkpt lat="45.6235161" lon="10.5713346"><ele>81.19999999999999</ele><time>2026-03-28T16:57:38.77Z</time></trkpt><trkpt lat="45.6234302" lon="10.5712164"><ele>81.0</ele><time>2026-03-28T16:57:39.769Z</time></trkpt><trkpt lat="45.6233401" lon="10.571102"><ele>81.0</ele><time>2026-03-28T16:57:40.771Z</time></trkpt><trkpt lat="45.6232475" lon="10.5709889"><ele>81.0</ele><time>2026-03-28T16:57:41.77Z</time></trkpt><trkpt lat="45.6231545" lon="10.5708815"><ele>81.0</ele><time>2026-03-28T16:57:42.769Z</time></trkpt><trkpt lat="45.6230653" lon="10.5707827"><ele>81.0</ele><time>2026-03-28T16:57:43.77Z</time></trkpt><trkpt lat="45.62298" lon="10.5706935"><ele>81.0</ele><time>2026-03-28T16:57:44.771Z</time></trkpt><trkpt lat="45.6229027" lon="10.5706075"><ele>81.0</ele><time>2026-03-28T16:57:45.77Z</time></trkpt><trkpt lat="45.6228355" lon="10.5705186"><ele>81.0</ele><time>2026-03-28T16:57:46.77Z</time></trkpt><trkpt lat="45.6227744" lon="10.5704241"><ele>81.0</ele><time>2026-03-28T16:57:47.77Z</time></trkpt><trkpt lat="45.62271" lon="10.5703295"><ele>81.0</ele><time>2026-03-28T16:57:48.771Z</time></trkpt><trkpt lat="45.6226364" lon="10.5702102"><ele>79.5</ele><time>2026-03-28T16:57:49.769Z</time></trkpt><trkpt lat="45.6225538" lon="10.5700746"><ele>78.0</ele><time>2026-03-28T16:57:50.77Z</time></trkpt><trkpt lat="45.6224789" lon="10.5699369"><ele>76.5</ele><time>2026-03-28T16:57:51.771Z</time></trkpt><trkpt lat="45.6224036" lon="10.5698058"><ele>75.0</ele><time>2026-03-28T16:57:52.771Z</time></trkpt><trkpt lat="45.6223362" lon="10.5696731"><ele>75.0</ele><time>2026-03-28T16:57:53.771Z</time></trkpt><trkpt lat="45.6222752" lon="10.56954"><ele>75.0</ele><time>2026-03-28T16:57:54.77Z</time></trkpt><trkpt lat="45.6222183" lon="10.5694018"><ele>75.0</ele><time>2026-03-28T16:57:55.769Z</time></trkpt><trkpt lat="45.6221657" lon="10.5692666"><ele>75.0</ele><time>2026-03-28T16:57:56.77Z</time></trkpt><trkpt lat="45.6221174" lon="10.5691386"><ele>75.0</ele><time>2026-03-28T16:57:57.77Z</time></trkpt><trkpt lat="45.6220722" lon="10.5690268"><ele>75.16666666666667</ele><time>2026-03-28T16:57:58.77Z</time></trkpt><trkpt lat="45.622029" lon="10.5689194"><ele>75.33333333333333</ele><time>2026-03-28T16:57:59.771Z</time></trkpt><trkpt lat="45.6219887" lon="10.5688181"><ele>75.5</ele><time>2026-03-28T16:58:00.769Z</time></trkpt><trkpt lat="45.621954" lon="10.5687335"><ele>75.66666666666666</ele><time>2026-03-28T16:58:01.77Z</time></trkpt><trkpt lat="45.6219051" lon="10.5686211"><ele>75.83333333333333</ele><time>2026-03-28T16:58:03.771Z</time></trkpt><trkpt lat="45.6218702" lon="10.5685376"><ele>76.0</ele><time>2026-03-28T16:58:10.77Z</time></trkpt><trkpt lat="45.6217767" lon="10.5684067"><ele>76.0</ele><time>2026-03-28T16:58:12.771Z</time></trkpt><trkpt lat="45.6216888" lon="10.568282"><ele>76.0</ele><time>2026-03-28T16:58:13.77Z</time></trkpt><trkpt lat="45.6215978" lon="10.5681168"><ele>76.0</ele><time>2026-03-28T16:58:14.77Z</time></trkpt><trkpt lat="45.6215265" lon="10.5679575"><ele>76.0</ele><time>2026-03-28T16:58:15.77Z</time></trkpt><trkpt lat="45.6214554" lon="10.5678294"><ele>77.8</ele><time>2026-03-28T16:58:16.77Z</time></trkpt><trkpt lat="45.6213904" lon="10.5677132"><ele>79.6</ele><time>2026-03-28T16:58:17.77Z</time></trkpt><trkpt lat="45.6213235" lon="10.5675919"><ele>81.4</ele><time>2026-03-28T16:58:18.77Z</time></trkpt><trkpt lat="45.6212543" lon="10.5674798"><ele>83.2</ele><time>2026-03-28T16:58:19.77Z</time></trkpt><trkpt lat="45.6211895" lon="10.5673803"><ele>85.0</ele><time>2026-03-28T16:58:20.77Z</time></trkpt><trkpt lat="45.6211248" lon="10.5672828"><ele>83.0</ele><time>2026-03-28T16:58:21.77Z</time></trkpt><trkpt lat="45.6210513" lon="10.5671781"><ele>81.0</ele><time>2026-03-28T16:58:22.769Z</time></trkpt><trkpt lat="45.6209737" lon="10.5670661"><ele>79.0</ele><time>2026-03-28T16:58:23.771Z</time></trkpt><trkpt lat="45.6208927" lon="10.5669516"><ele>77.0</ele><time>2026-03-28T16:58:24.77Z</time></trkpt><trkpt lat="45.6208134" lon="10.5668415"><ele>75.0</ele><time>2026-03-28T16:58:25.77Z</time></trkpt><trkpt lat="45.6207373" lon="10.5667293"><ele>75.0</ele><time>2026-03-28T16:58:26.769Z</time></trkpt><trkpt lat="45.6206652" lon="10.5666188"><ele>75.0</ele><time>2026-03-28T16:58:27.769Z</time></trkpt><trkpt lat="45.6205921" lon="10.5665176"><ele>75.0</ele><time>2026-03-28T16:58:28.77Z</time></trkpt><trkpt lat="45.6205206" lon="10.5664173"><ele>75.0</ele><time>2026-03-28T16:58:29.77Z</time></trkpt><trkpt lat="45.6204477" lon="10.5663068"><ele>75.0</ele><time>2026-03-28T16:58:30.77Z</time></trkpt><trkpt lat="45.6203737" lon="10.566192"><ele>73.5</ele><time>2026-03-28T16:58:31.771Z</time></trkpt><trkpt lat="45.6202998" lon="10.5660762"><ele>72.0</ele><time>2026-03-28T16:58:32.77Z</time></trkpt><trkpt lat="45.6202159" lon="10.5659619"><ele>70.5</ele><time>2026-03-28T16:58:33.77Z</time></trkpt><trkpt lat="45.6201278" lon="10.5658367"><ele>69.0</ele><time>2026-03-28T16:58:34.77Z</time></trkpt><trkpt lat="45.6200417" lon="10.5657096"><ele>69.0</ele><time>2026-03-28T16:58:35.769Z</time></trkpt><trkpt lat="45.6199609" lon="10.5655835"><ele>69.0</ele><time>2026-03-28T16:58:36.771Z</time></trkpt><trkpt lat="45.6198816" lon="10.5654736"><ele>69.0</ele><time>2026-03-28T16:58:37.77Z</time></trkpt><trkpt lat="45.6198054" lon="10.5653654"><ele>69.0</ele><time>2026-03-28T16:58:38.77Z</time></trkpt><trkpt lat="45.6197337" lon="10.5652594"><ele>69.0</ele><time>2026-03-28T16:58:39.77Z</time></trkpt><trkpt lat="45.6196685" lon="10.565158"><ele>68.83333333333333</ele><time>2026-03-28T16:58:40.769Z</time></trkpt><trkpt lat="45.6196069" lon="10.5650639"><ele>68.66666666666667</ele><time>2026-03-28T16:58:41.77Z</time></trkpt><trkpt lat="45.61955" lon="10.5649705"><ele>68.5</ele><time>2026-03-28T16:58:42.77Z</time></trkpt><trkpt lat="45.6195048" lon="10.5648776"><ele>68.33333333333334</ele><time>2026-03-28T16:58:43.771Z</time></trkpt><trkpt lat="45.6194625" lon="10.5647931"><ele>68.16666666666667</ele><time>2026-03-28T16:58:44.77Z</time></trkpt><trkpt lat="45.6194254" lon="10.5647116"><ele>68.0</ele><time>2026-03-28T16:58:45.77Z</time></trkpt><trkpt lat="45.619391" lon="10.5646342"><ele>68.0</ele><time>2026-03-28T16:58:46.77Z</time></trkpt><trkpt lat="45.6193473" lon="10.5645308"><ele>68.0</ele><time>2026-03-28T16:58:47.77Z</time></trkpt><trkpt lat="45.6193084" lon="10.5644046"><ele>68.0</ele><time>2026-03-28T16:58:48.77Z</time></trkpt><trkpt lat="45.6192673" lon="10.564267"><ele>68.0</ele><time>2026-03-28T16:58:49.769Z</time></trkpt><trkpt lat="45.6192304" lon="10.5641322"><ele>68.0</ele><time>2026-03-28T16:58:50.769Z</time></trkpt><trkpt lat="45.6191896" lon="10.5639933"><ele>69.0</ele><time>2026-03-28T16:58:51.769Z</time></trkpt><trkpt lat="45.6191479" lon="10.5638557"><ele>70.0</ele><time>2026-03-28T16:58:52.77Z</time></trkpt><trkpt lat="45.6191043" lon="10.5637161"><ele>71.0</ele><time>2026-03-28T16:58:53.77Z</time></trkpt><trkpt lat="45.6190607" lon="10.5635766"><ele>72.0</ele><time>2026-03-28T16:58:54.77Z</time></trkpt><trkpt lat="45.6190227" lon="10.5634355"><ele>73.0</ele><time>2026-03-28T16:58:55.77Z</time></trkpt><trkpt lat="45.6189829" lon="10.5632934"><ele>73.75</ele><time>2026-03-28T16:58:56.769Z</time></trkpt><trkpt lat="45.6189413" lon="10.5631461"><ele>74.5</ele><time>2026-03-28T16:58:57.769Z</time></trkpt><trkpt lat="45.6188962" lon="10.5629956"><ele>75.25</ele><time>2026-03-28T16:58:58.77Z</time></trkpt><trkpt lat="45.6188591" lon="10.5628416"><ele>76.0</ele><time>2026-03-28T16:58:59.77Z</time></trkpt><trkpt lat="45.6188215" lon="10.5626865"><ele>77.0</ele><time>2026-03-28T16:59:00.769Z</time></trkpt><trkpt lat="45.6187855" lon="10.5625221"><ele>78.0</ele><time>2026-03-28T16:59:01.771Z</time></trkpt><trkpt lat="45.6187527" lon="10.5623563"><ele>79.0</ele><time>2026-03-28T16:59:02.769Z</time></trkpt><trkpt lat="45.6187231" lon="10.5621911"><ele>80.0</ele><time>2026-03-28T16:59:03.77Z</time></trkpt><trkpt lat="45.6186927" lon="10.5620271"><ele>80.25</ele><time>2026-03-28T16:59:04.77Z</time></trkpt><trkpt lat="45.6186521" lon="10.5618666"><ele>80.5</ele><time>2026-03-28T16:59:05.77Z</time></trkpt><trkpt lat="45.6186186" lon="10.5617049"><ele>80.75</ele><time>2026-03-28T16:59:06.77Z</time></trkpt><trkpt lat="45.6185852" lon="10.5615392"><ele>81.0</ele><time>2026-03-28T16:59:07.769Z</time></trkpt><trkpt lat="45.6185495" lon="10.5613727"><ele>79.39999999999999</ele><time>2026-03-28T16:59:08.77Z</time></trkpt><trkpt lat="45.6185171" lon="10.5612072"><ele>77.8</ele><time>2026-03-28T16:59:09.769Z</time></trkpt><trkpt lat="45.6184879" lon="10.561046"><ele>76.19999999999999</ele><time>2026-03-28T16:59:10.769Z</time></trkpt><trkpt lat="45.6184607" lon="10.5609034"><ele>74.6</ele><time>2026-03-28T16:59:11.77Z</time></trkpt><trkpt lat="45.618438" lon="10.5607738"><ele>73.0</ele><time>2026-03-28T16:59:12.77Z</time></trkpt><trkpt lat="45.6184112" lon="10.5606361"><ele>73.0</ele><time>2026-03-28T16:59:13.77Z</time></trkpt><trkpt lat="45.618377" lon="10.5604871"><ele>73.0</ele><time>2026-03-28T16:59:14.771Z</time></trkpt><trkpt lat="45.6183481" lon="10.5603391"><ele>73.0</ele><time>2026-03-28T16:59:15.77Z</time></trkpt><trkpt lat="45.6183265" lon="10.5601914"><ele>73.0</ele><time>2026-03-28T16:59:16.77Z</time></trkpt><trkpt lat="45.6183006" lon="10.5600349"><ele>73.0</ele><time>2026-03-28T16:59:17.771Z</time></trkpt><trkpt lat="45.6182708" lon="10.5598825"><ele>73.16666666666666</ele><time>2026-03-28T16:59:18.769Z</time></trkpt><trkpt lat="45.6182514" lon="10.55974"><ele>73.33333333333333</ele><time>2026-03-28T16:59:19.769Z</time></trkpt><trkpt lat="45.6182324" lon="10.5596173"><ele>73.5</ele><time>2026-03-28T16:59:20.77Z</time></trkpt><trkpt lat="45.6182052" lon="10.5595088"><ele>73.66666666666667</ele><time>2026-03-28T16:59:21.769Z</time></trkpt><trkpt lat="45.6181766" lon="10.5593977"><ele>73.83333333333334</ele><time>2026-03-28T16:59:22.771Z</time></trkpt><trkpt lat="45.6181558" lon="10.5592893"><ele>74.0</ele><time>2026-03-28T16:59:23.771Z</time></trkpt><trkpt lat="45.6181341" lon="10.5591885"><ele>74.33333333333334</ele><time>2026-03-28T16:59:24.77Z</time></trkpt><trkpt lat="45.6181126" lon="10.55909"><ele>74.66666666666667</ele><time>2026-03-28T16:59:25.771Z</time></trkpt><trkpt lat="45.618094" lon="10.5589831"><ele>75.0</ele><time>2026-03-28T16:59:26.769Z</time></trkpt><trkpt lat="45.6180725" lon="10.5588732"><ele>75.33333333333333</ele><time>2026-03-28T16:59:27.769Z</time></trkpt><trkpt lat="45.6180543" lon="10.5587603"><ele>75.66666666666666</ele><time>2026-03-28T16:59:28.769Z</time></trkpt><trkpt lat="45.6180329" lon="10.558651"><ele>76.0</ele><time>2026-03-28T16:59:29.769Z</time></trkpt><trkpt lat="45.6180141" lon="10.5585566"><ele>75.83333333333333</ele><time>2026-03-28T16:59:30.77Z</time></trkpt><trkpt lat="45.6179877" lon="10.5584152"><ele>75.66666666666666</ele><time>2026-03-28T16:59:32.769Z</time></trkpt><trkpt lat="45.617963" lon="10.5583314"><ele>75.5</ele><time>2026-03-28T16:59:34.77Z</time></trkpt><trkpt lat="45.6179226" lon="10.5582216"><ele>75.33333333333333</ele><time>2026-03-28T16:59:36.769Z</time></trkpt><trkpt lat="45.617879" lon="10.5581263"><ele>75.16666666666667</ele><time>2026-03-28T16:59:38.77Z</time></trkpt><trkpt lat="45.6178103" lon="10.5580103"><ele>75.0</ele><time>2026-03-28T16:59:40.77Z</time></trkpt><trkpt lat="45.6177669" lon="10.5579391"><ele>75.66666666666667</ele><time>2026-03-28T16:59:41.77Z</time></trkpt><trkpt lat="45.6177217" lon="10.5578504"><ele>76.33333333333333</ele><time>2026-03-28T16:59:42.77Z</time></trkpt><trkpt lat="45.6176701" lon="10.5577514"><ele>77.0</ele><time>2026-03-28T16:59:43.769Z</time></trkpt><trkpt lat="45.6176143" lon="10.5576482"><ele>77.66666666666666</ele><time>2026-03-28T16:59:44.77Z</time></trkpt><trkpt lat="45.6175613" lon="10.5575363"><ele>78.33333333333333</ele><time>2026-03-28T16:59:45.77Z</time></trkpt><trkpt lat="45.6175045" lon="10.557431"><ele>79.0</ele><time>2026-03-28T16:59:46.769Z</time></trkpt><trkpt lat="45.6174502" lon="10.5573355"><ele>79.0</ele><time>2026-03-28T16:59:47.77Z</time></trkpt><trkpt lat="45.6174001" lon="10.5572436"><ele>79.0</ele><time>2026-03-28T16:59:48.769Z</time></trkpt><trkpt lat="45.6173487" lon="10.5571504"><ele>79.0</ele><time>2026-03-28T16:59:49.771Z</time></trkpt><trkpt lat="45.617302" lon="10.5570612"><ele>79.0</ele><time>2026-03-28T16:59:50.769Z</time></trkpt><trkpt lat="45.6172581" lon="10.5569846"><ele>79.0</ele><time>2026-03-28T16:59:51.769Z</time></trkpt><trkpt lat="45.6172146" lon="10.5569003"><ele>79.0</ele><time>2026-03-28T16:59:52.769Z</time></trkpt><trkpt lat="45.6171745" lon="10.5568233"><ele>79.14285714285715</ele><time>2026-03-28T16:59:53.771Z</time></trkpt><trkpt lat="45.6171318" lon="10.556749"><ele>79.28571428571429</ele><time>2026-03-28T16:59:54.77Z</time></trkpt><trkpt lat="45.61709" lon="10.5566682"><ele>79.42857142857143</ele><time>2026-03-28T16:59:55.769Z</time></trkpt><trkpt lat="45.6170531" lon="10.5565837"><ele>79.57142857142858</ele><time>2026-03-28T16:59:56.77Z</time></trkpt><trkpt lat="45.6170052" lon="10.5564907"><ele>79.71428571428572</ele><time>2026-03-28T16:59:57.771Z</time></trkpt><trkpt lat="45.6169561" lon="10.5564025"><ele>79.85714285714286</ele><time>2026-03-28T16:59:58.771Z</time></trkpt><trkpt lat="45.6169157" lon="10.5563195"><ele>80.0</ele><time>2026-03-28T16:59:59.769Z</time></trkpt><trkpt lat="45.6168725" lon="10.5562494"><ele>79.5</ele><time>2026-03-28T17:00:00.77Z</time></trkpt><trkpt lat="45.6168254" lon="10.5561672"><ele>79.0</ele><time>2026-03-28T17:00:01.771Z</time></trkpt><trkpt lat="45.6167689" lon="10.5560669"><ele>78.5</ele><time>2026-03-28T17:00:02.77Z</time></trkpt><trkpt lat="45.6167138" lon="10.5559734"><ele>78.0</ele><time>2026-03-28T17:00:03.77Z</time></trkpt><trkpt lat="45.6166739" lon="10.5558844"><ele>77.5</ele><time>2026-03-28T17:00:04.77Z</time></trkpt><trkpt lat="45.6166363" lon="10.5558043"><ele>77.0</ele><time>2026-03-28T17:00:05.77Z</time></trkpt><trkpt lat="45.6165724" lon="10.5556835"><ele>77.0</ele><time>2026-03-28T17:00:07.77Z</time></trkpt><trkpt lat="45.6165065" lon="10.555556"><ele>77.0</ele><time>2026-03-28T17:00:09.769Z</time></trkpt><trkpt lat="45.6164371" lon="10.5554139"><ele>77.0</ele><time>2026-03-28T17:00:11.771Z</time></trkpt><trkpt lat="45.616394" lon="10.5553303"><ele>77.0</ele><time>2026-03-28T17:00:12.77Z</time></trkpt><trkpt lat="45.6163479" lon="10.5552281"><ele>77.0</ele><time>2026-03-28T17:00:13.77Z</time></trkpt><trkpt lat="45.6162905" lon="10.5551088"><ele>77.0</ele><time>2026-03-28T17:00:14.77Z</time></trkpt><trkpt lat="45.6162339" lon="10.5549836"><ele>77.0</ele><time>2026-03-28T17:00:15.769Z</time></trkpt><trkpt lat="45.6161776" lon="10.5548623"><ele>77.0</ele><time>2026-03-28T17:00:16.77Z</time></trkpt><trkpt lat="45.6161262" lon="10.554751"><ele>77.0</ele><time>2026-03-28T17:00:17.769Z</time></trkpt><trkpt lat="45.6160768" lon="10.5546442"><ele>77.0</ele><time>2026-03-28T17:00:18.771Z</time></trkpt><trkpt lat="45.6160221" lon="10.5545343"><ele>77.66666666666667</ele><time>2026-03-28T17:00:19.769Z</time></trkpt><trkpt lat="45.6159713" lon="10.5544239"><ele>78.33333333333334</ele><time>2026-03-28T17:00:20.769Z</time></trkpt><trkpt lat="45.6159214" lon="10.55432"><ele>79.0</ele><time>2026-03-28T17:00:21.769Z</time></trkpt><trkpt lat="45.6158713" lon="10.5542175"><ele>79.66666666666667</ele><time>2026-03-28T17:00:22.77Z</time></trkpt><trkpt lat="45.6158289" lon="10.5541256"><ele>80.33333333333333</ele><time>2026-03-28T17:00:23.769Z</time></trkpt><trkpt lat="45.6157884" lon="10.5540383"><ele>81.0</ele><time>2026-03-28T17:00:24.769Z</time></trkpt><trkpt lat="45.615749" lon="10.5539598"><ele>81.0</ele><time>2026-03-28T17:00:25.769Z</time></trkpt><trkpt lat="45.6157134" lon="10.5538796"><ele>81.0</ele><time>2026-03-28T17:00:26.769Z</time></trkpt><trkpt lat="45.6156742" lon="10.5537927"><ele>81.0</ele><time>2026-03-28T17:00:27.769Z</time></trkpt><trkpt lat="45.6156305" lon="10.5537054"><ele>81.0</ele><time>2026-03-28T17:00:28.77Z</time></trkpt><trkpt lat="45.6155887" lon="10.5536126"><ele>81.0</ele><time>2026-03-28T17:00:29.771Z</time></trkpt><trkpt lat="45.615546" lon="10.5535165"><ele>81.0</ele><time>2026-03-28T17:00:30.77Z</time></trkpt><trkpt lat="45.6155021" lon="10.5534204"><ele>81.16666666666667</ele><time>2026-03-28T17:00:31.77Z</time></trkpt><trkpt lat="45.6154569" lon="10.5533249"><ele>81.33333333333333</ele><time>2026-03-28T17:00:32.771Z</time></trkpt><trkpt lat="45.615414" lon="10.5532224"><ele>81.5</ele><time>2026-03-28T17:00:33.769Z</time></trkpt><trkpt lat="45.6153722" lon="10.553116"><ele>81.66666666666666</ele><time>2026-03-28T17:00:34.77Z</time></trkpt><trkpt lat="45.6153251" lon="10.5530044"><ele>81.83333333333333</ele><time>2026-03-28T17:00:35.769Z</time></trkpt><trkpt lat="45.6152773" lon="10.5528876"><ele>82.0</ele><time>2026-03-28T17:00:36.77Z</time></trkpt><trkpt lat="45.6152276" lon="10.5527576"><ele>80.8</ele><time>2026-03-28T17:00:37.77Z</time></trkpt><trkpt lat="45.6151712" lon="10.5526268"><ele>79.6</ele><time>2026-03-28T17:00:38.769Z</time></trkpt><trkpt lat="45.6151187" lon="10.5524906"><ele>78.39999999999999</ele><time>2026-03-28T17:00:39.77Z</time></trkpt><trkpt lat="45.6150658" lon="10.5523544"><ele>77.19999999999999</ele><time>2026-03-28T17:00:40.77Z</time></trkpt><trkpt lat="45.6150102" lon="10.5522155"><ele>76.0</ele><time>2026-03-28T17:00:41.769Z</time></trkpt><trkpt lat="45.6149554" lon="10.5520768"><ele>76.25</ele><time>2026-03-28T17:00:42.769Z</time></trkpt><trkpt lat="45.6148959" lon="10.5519326"><ele>76.5</ele><time>2026-03-28T17:00:43.771Z</time></trkpt><trkpt lat="45.6148343" lon="10.5517898"><ele>76.75</ele><time>2026-03-28T17:00:44.77Z</time></trkpt><trkpt lat="45.6147779" lon="10.5516442"><ele>77.0</ele><time>2026-03-28T17:00:45.771Z</time></trkpt><trkpt lat="45.6147247" lon="10.5515045"><ele>77.0</ele><time>2026-03-28T17:00:46.77Z</time></trkpt><trkpt lat="45.6146719" lon="10.55137"><ele>77.0</ele><time>2026-03-28T17:00:47.769Z</time></trkpt><trkpt lat="45.6146218" lon="10.5512444"><ele>77.0</ele><time>2026-03-28T17:00:48.769Z</time></trkpt><trkpt lat="45.6145741" lon="10.5511135"><ele>77.0</ele><time>2026-03-28T17:00:49.77Z</time></trkpt><trkpt lat="45.6145294" lon="10.5509824"><ele>77.0</ele><time>2026-03-28T17:00:50.769Z</time></trkpt><trkpt lat="45.6144873" lon="10.5508506"><ele>76.33333333333334</ele><time>2026-03-28T17:00:51.77Z</time></trkpt><trkpt lat="45.6144518" lon="10.5507281"><ele>75.66666666666667</ele><time>2026-03-28T17:00:52.771Z</time></trkpt><trkpt lat="45.6144159" lon="10.5506114"><ele>75.0</ele><time>2026-03-28T17:00:53.77Z</time></trkpt><trkpt lat="45.6143857" lon="10.5504881"><ele>74.33333333333333</ele><time>2026-03-28T17:00:54.771Z</time></trkpt><trkpt lat="45.6143612" lon="10.5503748"><ele>73.66666666666666</ele><time>2026-03-28T17:00:55.771Z</time></trkpt><trkpt lat="45.6143365" lon="10.5502573"><ele>73.0</ele><time>2026-03-28T17:00:56.769Z</time></trkpt><trkpt lat="45.6143133" lon="10.5501359"><ele>73.0</ele><time>2026-03-28T17:00:57.769Z</time></trkpt><trkpt lat="45.6142903" lon="10.550014"><ele>73.0</ele><time>2026-03-28T17:00:58.769Z</time></trkpt><trkpt lat="45.6142726" lon="10.5499022"><ele>73.0</ele><time>2026-03-28T17:00:59.769Z</time></trkpt><trkpt lat="45.6142467" lon="10.5497418"><ele>73.0</ele><time>2026-03-28T17:01:01.77Z</time></trkpt><trkpt lat="45.6142288" lon="10.5496243"><ele>73.0</ele><time>2026-03-28T17:01:03.77Z</time></trkpt><trkpt lat="45.6142085" lon="10.5495223"><ele>73.0</ele><time>2026-03-28T17:01:06.769Z</time></trkpt><trkpt lat="45.6141847" lon="10.5494215"><ele>73.0</ele><time>2026-03-28T17:01:10.771Z</time></trkpt><trkpt lat="45.6141723" lon="10.5493298"><ele>73.0</ele><time>2026-03-28T17:01:13.77Z</time></trkpt><trkpt lat="45.6141547" lon="10.5492258"><ele>73.0</ele><time>2026-03-28T17:01:22.769Z</time></trkpt><trkpt lat="45.6141356" lon="10.5491208"><ele>73.0</ele><time>2026-03-28T17:01:25.77Z</time></trkpt><trkpt lat="45.6141065" lon="10.5489791"><ele>73.0</ele><time>2026-03-28T17:01:27.77Z</time></trkpt><trkpt lat="45.614084" lon="10.5488532"><ele>73.0</ele><time>2026-03-28T17:01:29.77Z</time></trkpt><trkpt lat="45.6140609" lon="10.5487492"><ele>73.33333333333333</ele><time>2026-03-28T17:01:31.77Z</time></trkpt><trkpt lat="45.6140399" lon="10.5486237"><ele>73.66666666666666</ele><time>2026-03-28T17:01:33.77Z</time></trkpt><trkpt lat="45.6140198" lon="10.5485123"><ele>74.0</ele><time>2026-03-28T17:01:35.77Z</time></trkpt><trkpt lat="45.6140056" lon="10.548396"><ele>74.33333333333333</ele><time>2026-03-28T17:01:37.77Z</time></trkpt><trkpt lat="45.6139871" lon="10.5483021"><ele>74.66666666666667</ele><time>2026-03-28T17:01:39.77Z</time></trkpt><trkpt lat="45.613962" lon="10.548175"><ele>75.0</ele><time>2026-03-28T17:01:42.77Z</time></trkpt><trkpt lat="45.6139375" lon="10.5480589"><ele>74.99999999999999</ele><time>2026-03-28T17:01:44.769Z</time></trkpt><trkpt lat="45.6139178" lon="10.5479485"><ele>75.0</ele><time>2026-03-28T17:01:46.769Z</time></trkpt><trkpt lat="45.6138989" lon="10.5478577"><ele>75.0</ele><time>2026-03-28T17:01:48.769Z</time></trkpt><trkpt lat="45.6138798" lon="10.5477699"><ele>75.0</ele><time>2026-03-28T17:01:50.77Z</time></trkpt><trkpt lat="45.6138505" lon="10.5476212"><ele>75.0</ele><time>2026-03-28T17:01:52.769Z</time></trkpt><trkpt lat="45.6138378" lon="10.5475314"><ele>74.99999999999999</ele><time>2026-03-28T17:01:53.77Z</time></trkpt><trkpt lat="45.613818" lon="10.5474409"><ele>75.0</ele><time>2026-03-28T17:01:54.769Z</time></trkpt><trkpt lat="45.6137939" lon="10.5473231"><ele>74.8</ele><time>2026-03-28T17:01:55.771Z</time></trkpt><trkpt lat="45.6137674" lon="10.547191"><ele>74.6</ele><time>2026-03-28T17:01:56.771Z</time></trkpt><trkpt lat="45.6137398" lon="10.547048"><ele>74.4</ele><time>2026-03-28T17:01:57.771Z</time></trkpt><trkpt lat="45.6137108" lon="10.5468902"><ele>74.2</ele><time>2026-03-28T17:01:58.769Z</time></trkpt><trkpt lat="45.6136783" lon="10.5467181"><ele>74.0</ele><time>2026-03-28T17:01:59.771Z</time></trkpt><trkpt lat="45.613646" lon="10.5465455"><ele>74.0</ele><time>2026-03-28T17:02:00.77Z</time></trkpt><trkpt lat="45.6136104" lon="10.5463715"><ele>74.0</ele><time>2026-03-28T17:02:01.769Z</time></trkpt><trkpt lat="45.6135719" lon="10.5461983"><ele>74.0</ele><time>2026-03-28T17:02:02.771Z</time></trkpt><trkpt lat="45.6135308" lon="10.5460179"><ele>74.0</ele><time>2026-03-28T17:02:03.771Z</time></trkpt><trkpt lat="45.6134874" lon="10.5458222"><ele>74.5</ele><time>2026-03-28T17:02:04.77Z</time></trkpt><trkpt lat="45.6134496" lon="10.5456331"><ele>75.0</ele><time>2026-03-28T17:02:05.77Z</time></trkpt><trkpt lat="45.6134111" lon="10.5454553"><ele>75.5</ele><time>2026-03-28T17:02:06.77Z</time></trkpt><trkpt lat="45.6133674" lon="10.5452876"><ele>76.0</ele><time>2026-03-28T17:02:07.77Z</time></trkpt><trkpt lat="45.6133079" lon="10.5451204"><ele>78.25</ele><time>2026-03-28T17:02:08.77Z</time></trkpt><trkpt lat="45.6132441" lon="10.5449416"><ele>80.5</ele><time>2026-03-28T17:02:09.77Z</time></trkpt><trkpt lat="45.6131778" lon="10.5447614"><ele>82.75</ele><time>2026-03-28T17:02:10.77Z</time></trkpt><trkpt lat="45.6131103" lon="10.5445826"><ele>85.0</ele><time>2026-03-28T17:02:11.771Z</time></trkpt><trkpt lat="45.6130438" lon="10.544405"><ele>82.25</ele><time>2026-03-28T17:02:12.77Z</time></trkpt><trkpt lat="45.6129755" lon="10.5442261"><ele>79.5</ele><time>2026-03-28T17:02:13.77Z</time></trkpt><trkpt lat="45.6129102" lon="10.5440461"><ele>76.75</ele><time>2026-03-28T17:02:14.771Z</time></trkpt><trkpt lat="45.612853" lon="10.5438633"><ele>74.0</ele><time>2026-03-28T17:02:15.77Z</time></trkpt><trkpt lat="45.6128027" lon="10.5436693"><ele>74.0</ele><time>2026-03-28T17:02:16.771Z</time></trkpt><trkpt lat="45.6127626" lon="10.543463"><ele>74.0</ele><time>2026-03-28T17:02:17.769Z</time></trkpt><trkpt lat="45.6127298" lon="10.5432565"><ele>74.0</ele><time>2026-03-28T17:02:18.77Z</time></trkpt><trkpt lat="45.6126974" lon="10.5430536"><ele>74.0</ele><time>2026-03-28T17:02:19.77Z</time></trkpt><trkpt lat="45.6126544" lon="10.542855"><ele>75.66666666666667</ele><time>2026-03-28T17:02:20.77Z</time></trkpt><trkpt lat="45.6126005" lon="10.5426461"><ele>77.33333333333333</ele><time>2026-03-28T17:02:21.77Z</time></trkpt><trkpt lat="45.6125421" lon="10.5424363"><ele>79.0</ele><time>2026-03-28T17:02:22.769Z</time></trkpt><trkpt lat="45.6124798" lon="10.5422243"><ele>81.0</ele><time>2026-03-28T17:02:23.77Z</time></trkpt><trkpt lat="45.6124122" lon="10.5420171"><ele>83.0</ele><time>2026-03-28T17:02:24.771Z</time></trkpt><trkpt lat="45.6123442" lon="10.5418108"><ele>85.0</ele><time>2026-03-28T17:02:25.769Z</time></trkpt><trkpt lat="45.6122717" lon="10.5416028"><ele>85.0</ele><time>2026-03-28T17:02:26.769Z</time></trkpt><trkpt lat="45.6121939" lon="10.541389"><ele>85.0</ele><time>2026-03-28T17:02:27.77Z</time></trkpt><trkpt lat="45.612107" lon="10.5411639"><ele>85.0</ele><time>2026-03-28T17:02:28.77Z</time></trkpt><trkpt lat="45.6120197" lon="10.5409348"><ele>85.33333333333333</ele><time>2026-03-28T17:02:29.77Z</time></trkpt><trkpt lat="45.6119307" lon="10.5406945"><ele>85.66666666666667</ele><time>2026-03-28T17:02:30.77Z</time></trkpt><trkpt lat="45.6118419" lon="10.5404458"><ele>86.0</ele><time>2026-03-28T17:02:31.77Z</time></trkpt><trkpt lat="45.6117469" lon="10.5401951"><ele>86.0</ele><time>2026-03-28T17:02:32.769Z</time></trkpt><trkpt lat="45.6116568" lon="10.5399468"><ele>86.0</ele><time>2026-03-28T17:02:33.771Z</time></trkpt><trkpt lat="45.6115688" lon="10.5396971"><ele>86.0</ele><time>2026-03-28T17:02:34.77Z</time></trkpt><trkpt lat="45.6114826" lon="10.5394645"><ele>88.33333333333334</ele><time>2026-03-28T17:02:35.77Z</time></trkpt><trkpt lat="45.6114058" lon="10.5392465"><ele>90.66666666666667</ele><time>2026-03-28T17:02:36.77Z</time></trkpt><trkpt lat="45.6113361" lon="10.53905"><ele>93.0</ele><time>2026-03-28T17:02:37.77Z</time></trkpt><trkpt lat="45.6112675" lon="10.5388592"><ele>90.75</ele><time>2026-03-28T17:02:38.769Z</time></trkpt><trkpt lat="45.6111919" lon="10.5386723"><ele>88.5</ele><time>2026-03-28T17:02:39.769Z</time></trkpt><trkpt lat="45.6111218" lon="10.5384865"><ele>86.25</ele><time>2026-03-28T17:02:40.771Z</time></trkpt><trkpt lat="45.6110527" lon="10.5383045"><ele>84.0</ele><time>2026-03-28T17:02:41.769Z</time></trkpt><trkpt lat="45.6109824" lon="10.5381209"><ele>84.0</ele><time>2026-03-28T17:02:42.77Z</time></trkpt><trkpt lat="45.6109229" lon="10.5379286"><ele>84.0</ele><time>2026-03-28T17:02:43.769Z</time></trkpt><trkpt lat="45.6108703" lon="10.5377316"><ele>84.0</ele><time>2026-03-28T17:02:44.77Z</time></trkpt><trkpt lat="45.6108278" lon="10.5375304"><ele>84.0</ele><time>2026-03-28T17:02:45.77Z</time></trkpt><trkpt lat="45.6107979" lon="10.5373391"><ele>86.25</ele><time>2026-03-28T17:02:46.771Z</time></trkpt><trkpt lat="45.6107867" lon="10.5371483"><ele>88.5</ele><time>2026-03-28T17:02:47.769Z</time></trkpt><trkpt lat="45.6107965" lon="10.5369659"><ele>90.75</ele><time>2026-03-28T17:02:48.77Z</time></trkpt><trkpt lat="45.610823" lon="10.5367822"><ele>93.0</ele><time>2026-03-28T17:02:49.769Z</time></trkpt><trkpt lat="45.6108191" lon="10.5366061"><ele>95.25</ele><time>2026-03-28T17:02:50.771Z</time></trkpt><trkpt lat="45.610784" lon="10.5364458"><ele>97.5</ele><time>2026-03-28T17:02:51.77Z</time></trkpt><trkpt lat="45.6107246" lon="10.5362948"><ele>99.75</ele><time>2026-03-28T17:02:52.769Z</time></trkpt><trkpt lat="45.6106553" lon="10.53615"><ele>102.0</ele><time>2026-03-28T17:02:53.771Z</time></trkpt><trkpt lat="45.6105822" lon="10.5360124"><ele>105.75</ele><time>2026-03-28T17:02:54.77Z</time></trkpt><trkpt lat="45.6105115" lon="10.5358685"><ele>109.5</ele><time>2026-03-28T17:02:55.771Z</time></trkpt><trkpt lat="45.6104417" lon="10.5357265"><ele>113.25</ele><time>2026-03-28T17:02:56.77Z</time></trkpt><trkpt lat="45.6103676" lon="10.5355747"><ele>117.0</ele><time>2026-03-28T17:02:57.769Z</time></trkpt><trkpt lat="45.610304" lon="10.5354143"><ele>112.25</ele><time>2026-03-28T17:02:58.77Z</time></trkpt><trkpt lat="45.6102473" lon="10.5352474"><ele>107.5</ele><time>2026-03-28T17:02:59.77Z</time></trkpt><trkpt lat="45.6101967" lon="10.5350794"><ele>102.75</ele><time>2026-03-28T17:03:00.771Z</time></trkpt><trkpt lat="45.610141" lon="10.5349142"><ele>98.0</ele><time>2026-03-28T17:03:01.769Z</time></trkpt><trkpt lat="45.6100725" lon="10.5347669"><ele>98.0</ele><time>2026-03-28T17:03:02.77Z</time></trkpt><trkpt lat="45.6099919" lon="10.5346361"><ele>98.0</ele><time>2026-03-28T17:03:03.77Z</time></trkpt><trkpt lat="45.60991" lon="10.5345175"><ele>98.0</ele><time>2026-03-28T17:03:04.77Z</time></trkpt><trkpt lat="45.6098318" lon="10.534405"><ele>98.0</ele><time>2026-03-28T17:03:05.77Z</time></trkpt><trkpt lat="45.6097573" lon="10.5342946"><ele>102.5</ele><time>2026-03-28T17:03:06.77Z</time></trkpt><trkpt lat="45.6096907" lon="10.534174"><ele>107.0</ele><time>2026-03-28T17:03:07.77Z</time></trkpt><trkpt lat="45.6096359" lon="10.5340325"><ele>111.5</ele><time>2026-03-28T17:03:08.77Z</time></trkpt><trkpt lat="45.6095912" lon="10.5338671"><ele>116.0</ele><time>2026-03-28T17:03:09.77Z</time></trkpt><trkpt lat="45.6095584" lon="10.5336871"><ele>118.75</ele><time>2026-03-28T17:03:10.77Z</time></trkpt><trkpt lat="45.6095347" lon="10.5335048"><ele>121.5</ele><time>2026-03-28T17:03:11.769Z</time></trkpt><trkpt lat="45.6095198" lon="10.5333346"><ele>124.25</ele><time>2026-03-28T17:03:12.77Z</time></trkpt><trkpt lat="45.6095155" lon="10.5331798"><ele>127.0</ele><time>2026-03-28T17:03:13.77Z</time></trkpt><trkpt lat="45.6095206" lon="10.5330271"><ele>126.0</ele><time>2026-03-28T17:03:14.77Z</time></trkpt><trkpt lat="45.6095423" lon="10.5328732"><ele>124.99999999999999</ele><time>2026-03-28T17:03:15.771Z</time></trkpt><trkpt lat="45.6095815" lon="10.5327245"><ele>123.99999999999999</ele><time>2026-03-28T17:03:16.769Z</time></trkpt><trkpt lat="45.609631" lon="10.532582"><ele>123.0</ele><time>2026-03-28T17:03:17.771Z</time></trkpt><trkpt lat="45.6096872" lon="10.5324528"><ele>122.0</ele><time>2026-03-28T17:03:18.77Z</time></trkpt><trkpt lat="45.609741" lon="10.5323386"><ele>122.0</ele><time>2026-03-28T17:03:19.769Z</time></trkpt><trkpt lat="45.6097933" lon="10.5322252"><ele>121.99999999999999</ele><time>2026-03-28T17:03:20.769Z</time></trkpt><trkpt lat="45.6098365" lon="10.5320984"><ele>121.99999999999999</ele><time>2026-03-28T17:03:21.769Z</time></trkpt><trkpt lat="45.6098581" lon="10.5319481"><ele>122.0</ele><time>2026-03-28T17:03:22.771Z</time></trkpt><trkpt lat="45.6098563" lon="10.5317936"><ele>122.0</ele><time>2026-03-28T17:03:23.771Z</time></trkpt><trkpt lat="45.6098351" lon="10.5316465"><ele>121.25</ele><time>2026-03-28T17:03:24.77Z</time></trkpt><trkpt lat="45.6097779" lon="10.5314882"><ele>120.5</ele><time>2026-03-28T17:03:25.771Z</time></trkpt><trkpt lat="45.6096989" lon="10.5313078"><ele>119.75</ele><time>2026-03-28T17:03:26.769Z</time></trkpt><trkpt lat="45.6096053" lon="10.5310976"><ele>119.0</ele><time>2026-03-28T17:03:27.77Z</time></trkpt><trkpt lat="45.609508" lon="10.5308826"><ele>117.66666666666666</ele><time>2026-03-28T17:03:28.77Z</time></trkpt><trkpt lat="45.6094107" lon="10.5306784"><ele>116.33333333333334</ele><time>2026-03-28T17:03:29.769Z</time></trkpt><trkpt lat="45.6093267" lon="10.5304756"><ele>115.0</ele><time>2026-03-28T17:03:30.77Z</time></trkpt><trkpt lat="45.6092509" lon="10.5302984"><ele>115.0</ele><time>2026-03-28T17:03:31.769Z</time></trkpt><trkpt lat="45.60918" lon="10.5301258"><ele>115.0</ele><time>2026-03-28T17:03:32.769Z</time></trkpt><trkpt lat="45.6091149" lon="10.5299472"><ele>115.0</ele><time>2026-03-28T17:03:33.77Z</time></trkpt><trkpt lat="45.6090459" lon="10.5297523"><ele>115.0</ele><time>2026-03-28T17:03:34.771Z</time></trkpt><trkpt lat="45.6089808" lon="10.5295403"><ele>118.66666666666667</ele><time>2026-03-28T17:03:35.77Z</time></trkpt><trkpt lat="45.6089279" lon="10.5293263"><ele>122.33333333333334</ele><time>2026-03-28T17:03:36.77Z</time></trkpt><trkpt lat="45.6088865" lon="10.5291111"><ele>126.0</ele><time>2026-03-28T17:03:37.769Z</time></trkpt><trkpt lat="45.6088548" lon="10.5288767"><ele>127.66666666666666</ele><time>2026-03-28T17:03:38.769Z</time></trkpt><trkpt lat="45.6088268" lon="10.5286195"><ele>129.33333333333331</ele><time>2026-03-28T17:03:39.769Z</time></trkpt><trkpt lat="45.6088052" lon="10.5283408"><ele>131.0</ele><time>2026-03-28T17:03:40.769Z</time></trkpt><trkpt lat="45.6087894" lon="10.5280391"><ele>131.66666666666666</ele><time>2026-03-28T17:03:41.77Z</time></trkpt><trkpt lat="45.6087658" lon="10.5277369"><ele>132.33333333333334</ele><time>2026-03-28T17:03:42.77Z</time></trkpt><trkpt lat="45.6087353" lon="10.5274387"><ele>133.0</ele><time>2026-03-28T17:03:43.77Z</time></trkpt><trkpt lat="45.6087095" lon="10.5271476"><ele>133.66666666666669</ele><time>2026-03-28T17:03:44.77Z</time></trkpt><trkpt lat="45.6086892" lon="10.5268631"><ele>134.33333333333334</ele><time>2026-03-28T17:03:45.771Z</time></trkpt><trkpt lat="45.6086717" lon="10.526589"><ele>135.0</ele><time>2026-03-28T17:03:46.771Z</time></trkpt><trkpt lat="45.6086621" lon="10.5263249"><ele>136.0</ele><time>2026-03-28T17:03:47.771Z</time></trkpt><trkpt lat="45.6086558" lon="10.5260702"><ele>137.0</ele><time>2026-03-28T17:03:48.77Z</time></trkpt><trkpt lat="45.60866" lon="10.5258189"><ele>138.0</ele><time>2026-03-28T17:03:49.77Z</time></trkpt><trkpt lat="45.6086674" lon="10.5255739"><ele>137.0</ele><time>2026-03-28T17:03:50.771Z</time></trkpt><trkpt lat="45.6086783" lon="10.5253329"><ele>136.0</ele><time>2026-03-28T17:03:51.77Z</time></trkpt><trkpt lat="45.6086953" lon="10.5250863"><ele>135.0</ele><time>2026-03-28T17:03:52.77Z</time></trkpt><trkpt lat="45.6087132" lon="10.5248372"><ele>135.0</ele><time>2026-03-28T17:03:53.771Z</time></trkpt><trkpt lat="45.6087368" lon="10.5245877"><ele>135.0</ele><time>2026-03-28T17:03:54.769Z</time></trkpt><trkpt lat="45.6087594" lon="10.524335"><ele>135.0</ele><time>2026-03-28T17:03:55.77Z</time></trkpt><trkpt lat="45.6087751" lon="10.5240815"><ele>134.33333333333334</ele><time>2026-03-28T17:03:56.769Z</time></trkpt><trkpt lat="45.6087857" lon="10.5238317"><ele>133.66666666666669</ele><time>2026-03-28T17:03:57.77Z</time></trkpt><trkpt lat="45.6087851" lon="10.5235838"><ele>133.0</ele><time>2026-03-28T17:03:58.769Z</time></trkpt><trkpt lat="45.6087594" lon="10.523335"><ele>132.0</ele><time>2026-03-28T17:03:59.77Z</time></trkpt><trkpt lat="45.6087133" lon="10.5230904"><ele>131.0</ele><time>2026-03-28T17:04:00.769Z</time></trkpt><trkpt lat="45.6086513" lon="10.522853"><ele>130.0</ele><time>2026-03-28T17:04:01.77Z</time></trkpt><trkpt lat="45.6085953" lon="10.5226225"><ele>121.0</ele><time>2026-03-28T17:04:02.77Z</time></trkpt><trkpt lat="45.6085458" lon="10.5223882"><ele>112.0</ele><time>2026-03-28T17:04:03.77Z</time></trkpt><trkpt lat="45.6085685" lon="10.5221572"><ele>103.0</ele><time>2026-03-28T17:04:04.771Z</time></trkpt><trkpt lat="45.6086102" lon="10.5219359"><ele>106.33333333333334</ele><time>2026-03-28T17:04:05.771Z</time></trkpt><trkpt lat="45.60868" lon="10.5217222"><ele>109.66666666666666</ele><time>2026-03-28T17:04:06.77Z</time></trkpt><trkpt lat="45.6087964" lon="10.5215377"><ele>113.0</ele><time>2026-03-28T17:04:07.771Z</time></trkpt><trkpt lat="45.6089095" lon="10.5213523"><ele>110.66666666666666</ele><time>2026-03-28T17:04:08.77Z</time></trkpt><trkpt lat="45.6090274" lon="10.5211761"><ele>108.33333333333334</ele><time>2026-03-28T17:04:09.77Z</time></trkpt><trkpt lat="45.6091446" lon="10.5210055"><ele>106.0</ele><time>2026-03-28T17:04:10.769Z</time></trkpt><trkpt lat="45.6092589" lon="10.5208395"><ele>106.0</ele><time>2026-03-28T17:04:11.77Z</time></trkpt><trkpt lat="45.6093694" lon="10.5206778"><ele>106.0</ele><time>2026-03-28T17:04:12.769Z</time></trkpt><trkpt lat="45.6094809" lon="10.5205137"><ele>106.0</ele><time>2026-03-28T17:04:13.771Z</time></trkpt><trkpt lat="45.6095866" lon="10.5203425"><ele>107.66666666666667</ele><time>2026-03-28T17:04:14.769Z</time></trkpt><trkpt lat="45.6096856" lon="10.5201716"><ele>109.33333333333334</ele><time>2026-03-28T17:04:15.769Z</time></trkpt><trkpt lat="45.6097772" lon="10.5199937"><ele>111.0</ele><time>2026-03-28T17:04:16.771Z</time></trkpt><trkpt lat="45.6098631" lon="10.5198098"><ele>111.0</ele><time>2026-03-28T17:04:17.77Z</time></trkpt><trkpt lat="45.6099496" lon="10.5196221"><ele>111.0</ele><time>2026-03-28T17:04:18.77Z</time></trkpt><trkpt lat="45.6100352" lon="10.5194302"><ele>111.0</ele><time>2026-03-28T17:04:19.769Z</time></trkpt><trkpt lat="45.6101074" lon="10.5192294"><ele>110.0</ele><time>2026-03-28T17:04:20.77Z</time></trkpt><trkpt lat="45.6101782" lon="10.5190167"><ele>109.0</ele><time>2026-03-28T17:04:21.769Z</time></trkpt><trkpt lat="45.6102433" lon="10.5188008"><ele>108.0</ele><time>2026-03-28T17:04:22.77Z</time></trkpt><trkpt lat="45.6103035" lon="10.5185749"><ele>111.33333333333334</ele><time>2026-03-28T17:04:23.771Z</time></trkpt><trkpt lat="45.6103594" lon="10.5183469"><ele>114.66666666666667</ele><time>2026-03-28T17:04:24.771Z</time></trkpt><trkpt lat="45.6104084" lon="10.5181189"><ele>118.0</ele><time>2026-03-28T17:04:25.769Z</time></trkpt><trkpt lat="45.6104566" lon="10.5178864"><ele>118.66666666666667</ele><time>2026-03-28T17:04:26.771Z</time></trkpt><trkpt lat="45.6105064" lon="10.5176551"><ele>119.33333333333334</ele><time>2026-03-28T17:04:27.77Z</time></trkpt><trkpt lat="45.6105555" lon="10.5174242"><ele>120.0</ele><time>2026-03-28T17:04:28.77Z</time></trkpt><trkpt lat="45.6106077" lon="10.5171929"><ele>118.66666666666666</ele><time>2026-03-28T17:04:29.77Z</time></trkpt><trkpt lat="45.6106582" lon="10.5169676"><ele>117.33333333333333</ele><time>2026-03-28T17:04:30.769Z</time></trkpt><trkpt lat="45.6107074" lon="10.5167461"><ele>116.0</ele><time>2026-03-28T17:04:31.769Z</time></trkpt><trkpt lat="45.6107606" lon="10.5165215"><ele>116.0</ele><time>2026-03-28T17:04:32.769Z</time></trkpt><trkpt lat="45.6108143" lon="10.5162998"><ele>116.0</ele><time>2026-03-28T17:04:33.769Z</time></trkpt><trkpt lat="45.6108572" lon="10.5160844"><ele>116.0</ele><time>2026-03-28T17:04:34.77Z</time></trkpt><trkpt lat="45.6109002" lon="10.515872"><ele>114.66666666666666</ele><time>2026-03-28T17:04:35.771Z</time></trkpt><trkpt lat="45.6109488" lon="10.5156548"><ele>113.33333333333334</ele><time>2026-03-28T17:04:36.77Z</time></trkpt><trkpt lat="45.6109944" lon="10.5154415"><ele>112.0</ele><time>2026-03-28T17:04:37.77Z</time></trkpt><trkpt lat="45.6110402" lon="10.5152259"><ele>111.25</ele><time>2026-03-28T17:04:38.771Z</time></trkpt><trkpt lat="45.6110824" lon="10.5150157"><ele>110.5</ele><time>2026-03-28T17:04:39.77Z</time></trkpt><trkpt lat="45.611126" lon="10.5148064"><ele>109.75</ele><time>2026-03-28T17:04:40.77Z</time></trkpt><trkpt lat="45.611163" lon="10.5146156"><ele>109.0</ele><time>2026-03-28T17:04:41.77Z</time></trkpt><trkpt lat="45.6111951" lon="10.5144485"><ele>110.75</ele><time>2026-03-28T17:04:42.77Z</time></trkpt><trkpt lat="45.6112284" lon="10.5142795"><ele>112.5</ele><time>2026-03-28T17:04:43.77Z</time></trkpt><trkpt lat="45.6112656" lon="10.5140957"><ele>114.25</ele><time>2026-03-28T17:04:44.77Z</time></trkpt><trkpt lat="45.6113143" lon="10.5139075"><ele>116.0</ele><time>2026-03-28T17:04:45.771Z</time></trkpt><trkpt lat="45.6113597" lon="10.5137233"><ele>116.0</ele><time>2026-03-28T17:04:46.769Z</time></trkpt><trkpt lat="45.6113982" lon="10.5135463"><ele>116.0</ele><time>2026-03-28T17:04:47.77Z</time></trkpt><trkpt lat="45.6114334" lon="10.5133851"><ele>116.0</ele><time>2026-03-28T17:04:48.771Z</time></trkpt><trkpt lat="45.611463" lon="10.5132416"><ele>116.0</ele><time>2026-03-28T17:04:49.771Z</time></trkpt><trkpt lat="45.6114925" lon="10.5131123"><ele>116.0</ele><time>2026-03-28T17:04:50.77Z</time></trkpt><trkpt lat="45.6115171" lon="10.5129958"><ele>115.8</ele><time>2026-03-28T17:04:51.77Z</time></trkpt><trkpt lat="45.6115428" lon="10.5128777"><ele>115.6</ele><time>2026-03-28T17:04:52.77Z</time></trkpt><trkpt lat="45.6115679" lon="10.5127557"><ele>115.4</ele><time>2026-03-28T17:04:53.771Z</time></trkpt><trkpt lat="45.611598" lon="10.5126282"><ele>115.2</ele><time>2026-03-28T17:04:54.771Z</time></trkpt><trkpt lat="45.6116251" lon="10.5125072"><ele>115.0</ele><time>2026-03-28T17:04:55.77Z</time></trkpt><trkpt lat="45.6116511" lon="10.5123759"><ele>115.0</ele><time>2026-03-28T17:04:56.77Z</time></trkpt><trkpt lat="45.6116801" lon="10.5122434"><ele>115.0</ele><time>2026-03-28T17:04:57.771Z</time></trkpt><trkpt lat="45.6117092" lon="10.5121137"><ele>115.0</ele><time>2026-03-28T17:04:58.77Z</time></trkpt><trkpt lat="45.6117408" lon="10.5119786"><ele>115.0</ele><time>2026-03-28T17:04:59.77Z</time></trkpt><trkpt lat="45.6117697" lon="10.5118353"><ele>115.0</ele><time>2026-03-28T17:05:00.769Z</time></trkpt><trkpt lat="45.6118031" lon="10.5116849"><ele>114.50000000000001</ele><time>2026-03-28T17:05:01.77Z</time></trkpt><trkpt lat="45.6118339" lon="10.5115417"><ele>114.0</ele><time>2026-03-28T17:05:02.771Z</time></trkpt><trkpt lat="45.6118523" lon="10.5114199"><ele>113.5</ele><time>2026-03-28T17:05:03.769Z</time></trkpt><trkpt lat="45.611868" lon="10.5113076"><ele>113.0</ele><time>2026-03-28T17:05:04.77Z</time></trkpt><trkpt lat="45.6118808" lon="10.5111913"><ele>112.50000000000001</ele><time>2026-03-28T17:05:05.771Z</time></trkpt><trkpt lat="45.6118904" lon="10.5110845"><ele>112.0</ele><time>2026-03-28T17:05:06.77Z</time></trkpt><trkpt lat="45.6118981" lon="10.5109892"><ele>112.33333333333334</ele><time>2026-03-28T17:05:07.77Z</time></trkpt><trkpt lat="45.6119106" lon="10.5108943"><ele>112.66666666666667</ele><time>2026-03-28T17:05:08.771Z</time></trkpt><trkpt lat="45.611924" lon="10.5107959"><ele>113.0</ele><time>2026-03-28T17:05:09.77Z</time></trkpt><trkpt lat="45.6119389" lon="10.5107082"><ele>113.33333333333334</ele><time>2026-03-28T17:05:10.77Z</time></trkpt><trkpt lat="45.611969" lon="10.5105721"><ele>113.66666666666667</ele><time>2026-03-28T17:05:12.769Z</time></trkpt><trkpt lat="45.6120161" lon="10.5104386"><ele>114.0</ele><time>2026-03-28T17:05:14.77Z</time></trkpt><trkpt lat="45.6120532" lon="10.510281"><ele>113.66666666666667</ele><time>2026-03-28T17:05:16.77Z</time></trkpt><trkpt lat="45.6120225" lon="10.5101256"><ele>113.33333333333334</ele><time>2026-03-28T17:05:18.769Z</time></trkpt><trkpt lat="45.611978" lon="10.5100446"><ele>113.0</ele><time>2026-03-28T17:05:19.769Z</time></trkpt><trkpt lat="45.6119272" lon="10.5099523"><ele>112.66666666666667</ele><time>2026-03-28T17:05:20.769Z</time></trkpt><trkpt lat="45.6118769" lon="10.5098518"><ele>112.33333333333334</ele><time>2026-03-28T17:05:21.771Z</time></trkpt><trkpt lat="45.6118316" lon="10.5097479"><ele>112.0</ele><time>2026-03-28T17:05:22.771Z</time></trkpt><trkpt lat="45.611793" lon="10.5096361"><ele>113.0</ele><time>2026-03-28T17:05:23.77Z</time></trkpt><trkpt lat="45.6117573" lon="10.5095172"><ele>113.99999999999999</ele><time>2026-03-28T17:05:24.769Z</time></trkpt><trkpt lat="45.6117155" lon="10.5093959"><ele>114.99999999999999</ele><time>2026-03-28T17:05:25.77Z</time></trkpt><trkpt lat="45.6116738" lon="10.5092777"><ele>116.0</ele><time>2026-03-28T17:05:26.77Z</time></trkpt><trkpt lat="45.6116283" lon="10.5091613"><ele>117.0</ele><time>2026-03-28T17:05:27.77Z</time></trkpt><trkpt lat="45.6115823" lon="10.5090327"><ele>117.0</ele><time>2026-03-28T17:05:28.769Z</time></trkpt><trkpt lat="45.6115291" lon="10.5088935"><ele>117.0</ele><time>2026-03-28T17:05:29.769Z</time></trkpt><trkpt lat="45.6114668" lon="10.5087445"><ele>117.0</ele><time>2026-03-28T17:05:30.77Z</time></trkpt><trkpt lat="45.6114019" lon="10.5085778"><ele>117.0</ele><time>2026-03-28T17:05:31.771Z</time></trkpt><trkpt lat="45.6113301" lon="10.5084039"><ele>115.66666666666666</ele><time>2026-03-28T17:05:32.771Z</time></trkpt><trkpt lat="45.6112529" lon="10.5082212"><ele>114.33333333333333</ele><time>2026-03-28T17:05:33.769Z</time></trkpt><trkpt lat="45.6111771" lon="10.508038"><ele>113.0</ele><time>2026-03-28T17:05:34.769Z</time></trkpt><trkpt lat="45.6110995" lon="10.5078475"><ele>113.0</ele><time>2026-03-28T17:05:35.77Z</time></trkpt><trkpt lat="45.6110246" lon="10.5076561"><ele>113.0</ele><time>2026-03-28T17:05:36.77Z</time></trkpt><trkpt lat="45.6109467" lon="10.5074671"><ele>113.0</ele><time>2026-03-28T17:05:37.769Z</time></trkpt><trkpt lat="45.6108694" lon="10.50728"><ele>113.0</ele><time>2026-03-28T17:05:38.769Z</time></trkpt><trkpt lat="45.6107925" lon="10.507096"><ele>113.0</ele><time>2026-03-28T17:05:39.77Z</time></trkpt><trkpt lat="45.6107159" lon="10.5069131"><ele>113.0</ele><time>2026-03-28T17:05:40.771Z</time></trkpt><trkpt lat="45.6106453" lon="10.5067306"><ele>113.0</ele><time>2026-03-28T17:05:41.77Z</time></trkpt><trkpt lat="45.6105818" lon="10.5065374"><ele>116.5</ele><time>2026-03-28T17:05:42.769Z</time></trkpt><trkpt lat="45.6105266" lon="10.5063373"><ele>120.0</ele><time>2026-03-28T17:05:43.77Z</time></trkpt><trkpt lat="45.6104888" lon="10.5061266"><ele>123.5</ele><time>2026-03-28T17:05:44.77Z</time></trkpt><trkpt lat="45.6104607" lon="10.5059357"><ele>127.0</ele><time>2026-03-28T17:05:45.77Z</time></trkpt><trkpt lat="45.6104379" lon="10.5057762"><ele>129.4</ele><time>2026-03-28T17:05:46.77Z</time></trkpt><trkpt lat="45.610423" lon="10.5056346"><ele>131.79999999999998</ele><time>2026-03-28T17:05:47.77Z</time></trkpt><trkpt lat="45.6104205" lon="10.5055151"><ele>134.2</ele><time>2026-03-28T17:05:48.77Z</time></trkpt><trkpt lat="45.6104233" lon="10.5054192"><ele>136.6</ele><time>2026-03-28T17:05:49.77Z</time></trkpt><trkpt lat="45.6104263" lon="10.5052691"><ele>139.0</ele><time>2026-03-28T17:05:51.77Z</time></trkpt><trkpt lat="45.6104442" lon="10.5050846"><ele>139.4</ele><time>2026-03-28T17:05:53.771Z</time></trkpt><trkpt lat="45.6104601" lon="10.5049576"><ele>139.8</ele><time>2026-03-28T17:05:54.77Z</time></trkpt><trkpt lat="45.6104811" lon="10.5048155"><ele>140.2</ele><time>2026-03-28T17:05:55.77Z</time></trkpt><trkpt lat="45.6105009" lon="10.5046696"><ele>140.6</ele><time>2026-03-28T17:05:56.77Z</time></trkpt><trkpt lat="45.610521" lon="10.5045235"><ele>141.0</ele><time>2026-03-28T17:05:57.77Z</time></trkpt><trkpt lat="45.6105375" lon="10.5043952"><ele>138.83333333333334</ele><time>2026-03-28T17:05:58.77Z</time></trkpt><trkpt lat="45.61055" lon="10.5042855"><ele>136.66666666666666</ele><time>2026-03-28T17:05:59.77Z</time></trkpt><trkpt lat="45.6105648" lon="10.5041546"><ele>134.5</ele><time>2026-03-28T17:06:00.77Z</time></trkpt><trkpt lat="45.6105843" lon="10.5040235"><ele>132.33333333333331</ele><time>2026-03-28T17:06:01.77Z</time></trkpt><trkpt lat="45.6106025" lon="10.5039129"><ele>130.16666666666666</ele><time>2026-03-28T17:06:02.769Z</time></trkpt><trkpt lat="45.6106152" lon="10.50382"><ele>128.0</ele><time>2026-03-28T17:06:03.771Z</time></trkpt><trkpt lat="45.6106325" lon="10.5037214"><ele>126.16666666666666</ele><time>2026-03-28T17:06:04.77Z</time></trkpt><trkpt lat="45.6106448" lon="10.5036093"><ele>124.33333333333333</ele><time>2026-03-28T17:06:05.77Z</time></trkpt><trkpt lat="45.6106623" lon="10.503483"><ele>122.5</ele><time>2026-03-28T17:06:06.769Z</time></trkpt><trkpt lat="45.6106856" lon="10.503355"><ele>120.66666666666666</ele><time>2026-03-28T17:06:07.77Z</time></trkpt><trkpt lat="45.6107074" lon="10.5032339"><ele>118.83333333333333</ele><time>2026-03-28T17:06:08.769Z</time></trkpt><trkpt lat="45.6107207" lon="10.5031152"><ele>117.0</ele><time>2026-03-28T17:06:09.771Z</time></trkpt><trkpt lat="45.6107327" lon="10.5030078"><ele>118.6</ele><time>2026-03-28T17:06:10.77Z</time></trkpt><trkpt lat="45.610744" lon="10.502883"><ele>120.19999999999999</ele><time>2026-03-28T17:06:11.769Z</time></trkpt><trkpt lat="45.6107631" lon="10.50275"><ele>121.8</ele><time>2026-03-28T17:06:12.769Z</time></trkpt><trkpt lat="45.6107819" lon="10.5026164"><ele>123.4</ele><time>2026-03-28T17:06:13.77Z</time></trkpt><trkpt lat="45.6107988" lon="10.5024673"><ele>125.0</ele><time>2026-03-28T17:06:14.771Z</time></trkpt><trkpt lat="45.610811" lon="10.5023109"><ele>125.0</ele><time>2026-03-28T17:06:15.77Z</time></trkpt><trkpt lat="45.6108103" lon="10.5021601"><ele>125.0</ele><time>2026-03-28T17:06:16.769Z</time></trkpt><trkpt lat="45.6108028" lon="10.5020015"><ele>125.0</ele><time>2026-03-28T17:06:17.77Z</time></trkpt><trkpt lat="45.6107835" lon="10.5018448"><ele>125.0</ele><time>2026-03-28T17:06:18.771Z</time></trkpt><trkpt lat="45.6107662" lon="10.5016906"><ele>125.0</ele><time>2026-03-28T17:06:19.77Z</time></trkpt><trkpt lat="45.6107526" lon="10.5015477"><ele>127.2</ele><time>2026-03-28T17:06:20.77Z</time></trkpt><trkpt lat="45.6107411" lon="10.5014129"><ele>129.4</ele><time>2026-03-28T17:06:21.771Z</time></trkpt><trkpt lat="45.6107337" lon="10.501281"><ele>131.6</ele><time>2026-03-28T17:06:22.77Z</time></trkpt><trkpt lat="45.6107371" lon="10.5011492"><ele>133.8</ele><time>2026-03-28T17:06:23.77Z</time></trkpt><trkpt lat="45.610748" lon="10.501014"><ele>136.0</ele><time>2026-03-28T17:06:24.77Z</time></trkpt><trkpt lat="45.6107602" lon="10.5008787"><ele>136.66666666666669</ele><time>2026-03-28T17:06:25.77Z</time></trkpt><trkpt lat="45.6107553" lon="10.5007498"><ele>137.33333333333334</ele><time>2026-03-28T17:06:26.769Z</time></trkpt><trkpt lat="45.6107261" lon="10.5006253"><ele>138.0</ele><time>2026-03-28T17:06:27.771Z</time></trkpt><trkpt lat="45.6106668" lon="10.5005287"><ele>138.66666666666666</ele><time>2026-03-28T17:06:28.769Z</time></trkpt><trkpt lat="45.6105933" lon="10.5004802"><ele>139.33333333333331</ele><time>2026-03-28T17:06:29.77Z</time></trkpt><trkpt lat="45.6105178" lon="10.5004977"><ele>140.0</ele><time>2026-03-28T17:06:30.769Z</time></trkpt><trkpt lat="45.610448" lon="10.5005679"><ele>140.0</ele><time>2026-03-28T17:06:31.77Z</time></trkpt><trkpt lat="45.6103843" lon="10.5006624"><ele>140.0</ele><time>2026-03-28T17:06:32.771Z</time></trkpt><trkpt lat="45.6103198" lon="10.500762"><ele>140.0</ele><time>2026-03-28T17:06:33.77Z</time></trkpt><trkpt lat="45.6102265" lon="10.500837"><ele>140.0</ele><time>2026-03-28T17:06:34.77Z</time></trkpt><trkpt lat="45.6101141" lon="10.5008682"><ele>140.0</ele><time>2026-03-28T17:06:35.769Z</time></trkpt><trkpt lat="45.6099897" lon="10.5008604"><ele>138.25</ele><time>2026-03-28T17:06:36.771Z</time></trkpt><trkpt lat="45.6098559" lon="10.500823"><ele>136.5</ele><time>2026-03-28T17:06:37.77Z</time></trkpt><trkpt lat="45.6097138" lon="10.5007709"><ele>134.75</ele><time>2026-03-28T17:06:38.771Z</time></trkpt><trkpt lat="45.609563" lon="10.5007058"><ele>133.0</ele><time>2026-03-28T17:06:39.77Z</time></trkpt><trkpt lat="45.6094112" lon="10.5006359"><ele>127.33333333333334</ele><time>2026-03-28T17:06:40.769Z</time></trkpt><trkpt lat="45.6092542" lon="10.500563"><ele>121.66666666666666</ele><time>2026-03-28T17:06:41.769Z</time></trkpt><trkpt lat="45.6090864" lon="10.500498"><ele>116.0</ele><time>2026-03-28T17:06:42.771Z</time></trkpt><trkpt lat="45.6089104" lon="10.5004499"><ele>116.0</ele><time>2026-03-28T17:06:43.77Z</time></trkpt><trkpt lat="45.608727" lon="10.5004272"><ele>116.0</ele><time>2026-03-28T17:06:44.769Z</time></trkpt><trkpt lat="45.6085386" lon="10.5004267"><ele>116.0</ele><time>2026-03-28T17:06:45.771Z</time></trkpt><trkpt lat="45.6083488" lon="10.5004523"><ele>119.33333333333333</ele><time>2026-03-28T17:06:46.77Z</time></trkpt><trkpt lat="45.6081535" lon="10.5005015"><ele>122.66666666666666</ele><time>2026-03-28T17:06:47.77Z</time></trkpt><trkpt lat="45.6079498" lon="10.5005477"><ele>126.0</ele><time>2026-03-28T17:06:48.77Z</time></trkpt><trkpt lat="45.6077505" lon="10.5005995"><ele>131.0</ele><time>2026-03-28T17:06:49.77Z</time></trkpt><trkpt lat="45.607555" lon="10.500647"><ele>136.0</ele><time>2026-03-28T17:06:50.77Z</time></trkpt><trkpt lat="45.6062903" lon="10.503397"><ele>130.0</ele><time>2026-03-28T17:07:02.771Z</time></trkpt><trkpt lat="45.6063997" lon="10.5035748"><ele>124.0</ele><time>2026-03-28T17:07:03.77Z</time></trkpt><trkpt lat="45.6064463" lon="10.5037493"><ele>118.0</ele><time>2026-03-28T17:07:04.771Z</time></trkpt><trkpt lat="45.6064821" lon="10.5038829"><ele>112.0</ele><time>2026-03-28T17:07:05.771Z</time></trkpt><trkpt lat="45.6065132" lon="10.5039994"><ele>111.00000000000001</ele><time>2026-03-28T17:07:06.77Z</time></trkpt><trkpt lat="45.6065344" lon="10.5041111"><ele>110.0</ele><time>2026-03-28T17:07:07.769Z</time></trkpt><trkpt lat="45.6065354" lon="10.5042254"><ele>109.0</ele><time>2026-03-28T17:07:08.769Z</time></trkpt><trkpt lat="45.6065125" lon="10.504332"><ele>108.0</ele><time>2026-03-28T17:07:09.77Z</time></trkpt><trkpt lat="45.6064815" lon="10.5044361"><ele>107.00000000000001</ele><time>2026-03-28T17:07:10.77Z</time></trkpt><trkpt lat="45.6064503" lon="10.5045295"><ele>106.0</ele><time>2026-03-28T17:07:11.77Z</time></trkpt><trkpt lat="45.606404" lon="10.5046223"><ele>105.6</ele><time>2026-03-28T17:07:12.77Z</time></trkpt><trkpt lat="45.6063422" lon="10.5047165"><ele>105.19999999999999</ele><time>2026-03-28T17:07:13.771Z</time></trkpt><trkpt lat="45.6062569" lon="10.5048142"><ele>104.80000000000001</ele><time>2026-03-28T17:07:14.77Z</time></trkpt><trkpt lat="45.6061555" lon="10.5049034"><ele>104.4</ele><time>2026-03-28T17:07:15.77Z</time></trkpt><trkpt lat="45.6060397" lon="10.5049819"><ele>104.0</ele><time>2026-03-28T17:07:16.77Z</time></trkpt><trkpt lat="45.6059187" lon="10.5050619"><ele>104.0</ele><time>2026-03-28T17:07:17.77Z</time></trkpt><trkpt lat="45.6057916" lon="10.5051419"><ele>104.0</ele><time>2026-03-28T17:07:18.769Z</time></trkpt><trkpt lat="45.6056784" lon="10.5052057"><ele>104.0</ele><time>2026-03-28T17:07:19.771Z</time></trkpt><trkpt lat="45.6055772" lon="10.5052593"><ele>104.0</ele><time>2026-03-28T17:07:20.77Z</time></trkpt><trkpt lat="45.6054875" lon="10.505312"><ele>104.0</ele><time>2026-03-28T17:07:21.769Z</time></trkpt><trkpt lat="45.6053971" lon="10.505363"><ele>104.0</ele><time>2026-03-28T17:07:22.77Z</time></trkpt><trkpt lat="45.605307" lon="10.505417"><ele>104.0</ele><time>2026-03-28T17:07:23.771Z</time></trkpt><trkpt lat="45.6052205" lon="10.5054682"><ele>104.0</ele><time>2026-03-28T17:07:24.77Z</time></trkpt><trkpt lat="45.6051274" lon="10.5055251"><ele>104.0</ele><time>2026-03-28T17:07:25.771Z</time></trkpt><trkpt lat="45.6050236" lon="10.5055914"><ele>105.25</ele><time>2026-03-28T17:07:26.77Z</time></trkpt><trkpt lat="45.6049064" lon="10.5056666"><ele>106.5</ele><time>2026-03-28T17:07:27.771Z</time></trkpt><trkpt lat="45.6047783" lon="10.5057467"><ele>107.75</ele><time>2026-03-28T17:07:28.771Z</time></trkpt><trkpt lat="45.6046404" lon="10.5058255"><ele>109.0</ele><time>2026-03-28T17:07:29.77Z</time></trkpt><trkpt lat="45.6044914" lon="10.5059055"><ele>111.0</ele><time>2026-03-28T17:07:30.771Z</time></trkpt><trkpt lat="45.6043415" lon="10.5059881"><ele>113.0</ele><time>2026-03-28T17:07:31.77Z</time></trkpt><trkpt lat="45.6041865" lon="10.506078"><ele>115.0</ele><time>2026-03-28T17:07:32.77Z</time></trkpt><trkpt lat="45.6040277" lon="10.5061735"><ele>113.33333333333334</ele><time>2026-03-28T17:07:33.769Z</time></trkpt><trkpt lat="45.6038649" lon="10.5062669"><ele>111.66666666666666</ele><time>2026-03-28T17:07:34.771Z</time></trkpt><trkpt lat="45.603697" lon="10.5063635"><ele>110.0</ele><time>2026-03-28T17:07:35.77Z</time></trkpt><trkpt lat="45.6035323" lon="10.5064609"><ele>110.0</ele><time>2026-03-28T17:07:36.769Z</time></trkpt><trkpt lat="45.6033658" lon="10.506559"><ele>110.0</ele><time>2026-03-28T17:07:37.77Z</time></trkpt><trkpt lat="45.6031952" lon="10.5066577"><ele>110.0</ele><time>2026-03-28T17:07:38.771Z</time></trkpt><trkpt lat="45.6030279" lon="10.5067549"><ele>110.0</ele><time>2026-03-28T17:07:39.77Z</time></trkpt><trkpt lat="45.6028561" lon="10.5068629"><ele>110.0</ele><time>2026-03-28T17:07:40.771Z</time></trkpt><trkpt lat="45.6026832" lon="10.5069759"><ele>110.0</ele><time>2026-03-28T17:07:41.77Z</time></trkpt><trkpt lat="45.6025125" lon="10.5071001"><ele>111.33333333333333</ele><time>2026-03-28T17:07:42.769Z</time></trkpt><trkpt lat="45.6023442" lon="10.5072292"><ele>112.66666666666666</ele><time>2026-03-28T17:07:43.771Z</time></trkpt><trkpt lat="45.6021762" lon="10.507361"><ele>114.0</ele><time>2026-03-28T17:07:44.769Z</time></trkpt><trkpt lat="45.6020099" lon="10.5074932"><ele>116.0</ele><time>2026-03-28T17:07:45.77Z</time></trkpt><trkpt lat="45.6018412" lon="10.5076216"><ele>118.0</ele><time>2026-03-28T17:07:46.77Z</time></trkpt><trkpt lat="45.6016721" lon="10.507745"><ele>120.0</ele><time>2026-03-28T17:07:47.77Z</time></trkpt><trkpt lat="45.6014976" lon="10.507859"><ele>117.66666666666666</ele><time>2026-03-28T17:07:48.77Z</time></trkpt><trkpt lat="45.6013207" lon="10.5079567"><ele>115.33333333333333</ele><time>2026-03-28T17:07:49.769Z</time></trkpt><trkpt lat="45.6011414" lon="10.5080218"><ele>113.0</ele><time>2026-03-28T17:07:50.769Z</time></trkpt><trkpt lat="45.6009613" lon="10.5080488"><ele>113.0</ele><time>2026-03-28T17:07:51.771Z</time></trkpt><trkpt lat="45.6007814" lon="10.5080338"><ele>113.0</ele><time>2026-03-28T17:07:52.77Z</time></trkpt><trkpt lat="45.6005951" lon="10.5079844"><ele>113.0</ele><time>2026-03-28T17:07:53.77Z</time></trkpt><trkpt lat="45.6004176" lon="10.5078969"><ele>116.33333333333333</ele><time>2026-03-28T17:07:54.77Z</time></trkpt><trkpt lat="45.6002426" lon="10.5077912"><ele>119.66666666666666</ele><time>2026-03-28T17:07:55.769Z</time></trkpt><trkpt lat="45.6000699" lon="10.5076851"><ele>123.0</ele><time>2026-03-28T17:07:56.77Z</time></trkpt><trkpt lat="45.5998926" lon="10.5075906"><ele>123.0</ele><time>2026-03-28T17:07:57.77Z</time></trkpt><trkpt lat="45.5997063" lon="10.5075231"><ele>123.0</ele><time>2026-03-28T17:07:58.77Z</time></trkpt><trkpt lat="45.599514" lon="10.5074968"><ele>123.0</ele><time>2026-03-28T17:07:59.77Z</time></trkpt><trkpt lat="45.5993201" lon="10.5075191"><ele>124.66666666666666</ele><time>2026-03-28T17:08:00.77Z</time></trkpt><trkpt lat="45.5991291" lon="10.5075738"><ele>126.33333333333333</ele><time>2026-03-28T17:08:01.77Z</time></trkpt><trkpt lat="45.5989382" lon="10.507638"><ele>128.0</ele><time>2026-03-28T17:08:02.77Z</time></trkpt><trkpt lat="45.5987497" lon="10.5077077"><ele>129.0</ele><time>2026-03-28T17:08:03.77Z</time></trkpt><trkpt lat="45.5985623" lon="10.5077773"><ele>130.0</ele><time>2026-03-28T17:08:04.77Z</time></trkpt><trkpt lat="45.5983738" lon="10.5078444"><ele>131.0</ele><time>2026-03-28T17:08:05.77Z</time></trkpt><trkpt lat="45.5981873" lon="10.507911"><ele>128.66666666666666</ele><time>2026-03-28T17:08:06.77Z</time></trkpt><trkpt lat="45.5980034" lon="10.5079739"><ele>126.33333333333334</ele><time>2026-03-28T17:08:07.77Z</time></trkpt><trkpt lat="45.5978215" lon="10.5080391"><ele>124.0</ele><time>2026-03-28T17:08:08.771Z</time></trkpt><trkpt lat="45.5976399" lon="10.5081019"><ele>124.0</ele><time>2026-03-28T17:08:09.77Z</time></trkpt><trkpt lat="45.5974551" lon="10.5081598"><ele>124.0</ele><time>2026-03-28T17:08:10.769Z</time></trkpt><trkpt lat="45.5972695" lon="10.5082144"><ele>124.0</ele><time>2026-03-28T17:08:11.769Z</time></trkpt><trkpt lat="45.5970832" lon="10.5082669"><ele>124.33333333333334</ele><time>2026-03-28T17:08:12.77Z</time></trkpt><trkpt lat="45.596897" lon="10.508322"><ele>124.66666666666666</ele><time>2026-03-28T17:08:13.769Z</time></trkpt><trkpt lat="45.5967105" lon="10.508382"><ele>125.0</ele><time>2026-03-28T17:08:14.77Z</time></trkpt><trkpt lat="45.5965264" lon="10.5084458"><ele>125.0</ele><time>2026-03-28T17:08:15.771Z</time></trkpt><trkpt lat="45.5963453" lon="10.5085221"><ele>125.0</ele><time>2026-03-28T17:08:16.77Z</time></trkpt><trkpt lat="45.596177" lon="10.508622"><ele>125.0</ele><time>2026-03-28T17:08:17.769Z</time></trkpt><trkpt lat="45.5960229" lon="10.5087564"><ele>127.0</ele><time>2026-03-28T17:08:18.769Z</time></trkpt><trkpt lat="45.5958881" lon="10.5089232"><ele>129.0</ele><time>2026-03-28T17:08:19.77Z</time></trkpt><trkpt lat="45.5957714" lon="10.5091185"><ele>131.0</ele><time>2026-03-28T17:08:20.771Z</time></trkpt><trkpt lat="45.595671" lon="10.5093294"><ele>131.0</ele><time>2026-03-28T17:08:21.771Z</time></trkpt><trkpt lat="45.5955767" lon="10.5095506"><ele>131.0</ele><time>2026-03-28T17:08:22.771Z</time></trkpt><trkpt lat="45.5954894" lon="10.5097731"><ele>131.0</ele><time>2026-03-28T17:08:23.77Z</time></trkpt><trkpt lat="45.5954034" lon="10.5099937"><ele>131.66666666666666</ele><time>2026-03-28T17:08:24.77Z</time></trkpt><trkpt lat="45.5953149" lon="10.5102106"><ele>132.33333333333334</ele><time>2026-03-28T17:08:25.769Z</time></trkpt><trkpt lat="45.5952197" lon="10.5104207"><ele>133.0</ele><time>2026-03-28T17:08:26.769Z</time></trkpt><trkpt lat="45.5951103" lon="10.5106215"><ele>133.0</ele><time>2026-03-28T17:08:27.77Z</time></trkpt><trkpt lat="45.5949869" lon="10.5108045"><ele>133.0</ele><time>2026-03-28T17:08:28.77Z</time></trkpt><trkpt lat="45.5948474" lon="10.5109603"><ele>133.0</ele><time>2026-03-28T17:08:29.77Z</time></trkpt><trkpt lat="45.5946926" lon="10.511086"><ele>133.0</ele><time>2026-03-28T17:08:30.77Z</time></trkpt><trkpt lat="45.5945333" lon="10.511192"><ele>133.0</ele><time>2026-03-28T17:08:31.77Z</time></trkpt><trkpt lat="45.5943728" lon="10.5112863"><ele>133.0</ele><time>2026-03-28T17:08:32.77Z</time></trkpt><trkpt lat="45.5942118" lon="10.5113752"><ele>133.25</ele><time>2026-03-28T17:08:33.77Z</time></trkpt><trkpt lat="45.5940587" lon="10.5114621"><ele>133.5</ele><time>2026-03-28T17:08:34.77Z</time></trkpt><trkpt lat="45.5939196" lon="10.511539"><ele>133.75</ele><time>2026-03-28T17:08:35.771Z</time></trkpt><trkpt lat="45.5937939" lon="10.5116088"><ele>134.0</ele><time>2026-03-28T17:08:36.769Z</time></trkpt><trkpt lat="45.5936786" lon="10.5116774"><ele>134.25</ele><time>2026-03-28T17:08:37.769Z</time></trkpt><trkpt lat="45.5935592" lon="10.5117582"><ele>134.5</ele><time>2026-03-28T17:08:38.771Z</time></trkpt><trkpt lat="45.5934454" lon="10.5118671"><ele>134.75</ele><time>2026-03-28T17:08:39.771Z</time></trkpt><trkpt lat="45.5933377" lon="10.5120027"><ele>135.0</ele><time>2026-03-28T17:08:40.77Z</time></trkpt><trkpt lat="45.5932435" lon="10.5121629"><ele>135.0</ele><time>2026-03-28T17:08:41.77Z</time></trkpt><trkpt lat="45.5931705" lon="10.5123479"><ele>135.0</ele><time>2026-03-28T17:08:42.77Z</time></trkpt><trkpt lat="45.5931219" lon="10.5125513"><ele>135.0</ele><time>2026-03-28T17:08:43.77Z</time></trkpt><trkpt lat="45.5931021" lon="10.5127647"><ele>135.66666666666666</ele><time>2026-03-28T17:08:44.77Z</time></trkpt><trkpt lat="45.5931031" lon="10.5129838"><ele>136.33333333333331</ele><time>2026-03-28T17:08:45.77Z</time></trkpt><trkpt lat="45.5931256" lon="10.513203"><ele>137.0</ele><time>2026-03-28T17:08:46.771Z</time></trkpt><trkpt lat="45.5931654" lon="10.5134131"><ele>137.0</ele><time>2026-03-28T17:08:47.77Z</time></trkpt><trkpt lat="45.5932095" lon="10.5136163"><ele>137.0</ele><time>2026-03-28T17:08:48.77Z</time></trkpt><trkpt lat="45.5932545" lon="10.5138235"><ele>137.0</ele><time>2026-03-28T17:08:49.77Z</time></trkpt><trkpt lat="45.5932971" lon="10.5140269"><ele>137.0</ele><time>2026-03-28T17:08:50.77Z</time></trkpt><trkpt lat="45.5933389" lon="10.514228"><ele>138.75</ele><time>2026-03-28T17:08:51.77Z</time></trkpt><trkpt lat="45.5933792" lon="10.5144339"><ele>140.5</ele><time>2026-03-28T17:08:52.77Z</time></trkpt><trkpt lat="45.5934216" lon="10.5146363"><ele>142.25</ele><time>2026-03-28T17:08:53.77Z</time></trkpt><trkpt lat="45.5934611" lon="10.5148386"><ele>144.0</ele><time>2026-03-28T17:08:54.77Z</time></trkpt><trkpt lat="45.593502" lon="10.5150381"><ele>145.5</ele><time>2026-03-28T17:08:55.771Z</time></trkpt><trkpt lat="45.5935415" lon="10.5152407"><ele>147.0</ele><time>2026-03-28T17:08:56.77Z</time></trkpt><trkpt lat="45.593572" lon="10.5154509"><ele>148.5</ele><time>2026-03-28T17:08:57.77Z</time></trkpt><trkpt lat="45.5935903" lon="10.5156649"><ele>150.0</ele><time>2026-03-28T17:08:58.769Z</time></trkpt><trkpt lat="45.5935947" lon="10.5158842"><ele>150.0</ele><time>2026-03-28T17:08:59.771Z</time></trkpt><trkpt lat="45.5935868" lon="10.5161021"><ele>150.0</ele><time>2026-03-28T17:09:00.771Z</time></trkpt><trkpt lat="45.5935637" lon="10.5163193"><ele>150.0</ele><time>2026-03-28T17:09:01.771Z</time></trkpt><trkpt lat="45.5935288" lon="10.5165308"><ele>150.0</ele><time>2026-03-28T17:09:02.769Z</time></trkpt><trkpt lat="45.5934894" lon="10.5167464"><ele>150.0</ele><time>2026-03-28T17:09:03.77Z</time></trkpt><trkpt lat="45.5934475" lon="10.5169646"><ele>150.0</ele><time>2026-03-28T17:09:04.769Z</time></trkpt><trkpt lat="45.5934057" lon="10.5171869"><ele>148.33333333333334</ele><time>2026-03-28T17:09:05.77Z</time></trkpt><trkpt lat="45.5933644" lon="10.5174071"><ele>146.66666666666669</ele><time>2026-03-28T17:09:06.77Z</time></trkpt><trkpt lat="45.5933254" lon="10.5176285"><ele>145.0</ele><time>2026-03-28T17:09:07.77Z</time></trkpt><trkpt lat="45.593286" lon="10.5178469"><ele>144.66666666666669</ele><time>2026-03-28T17:09:08.77Z</time></trkpt><trkpt lat="45.593246" lon="10.5180616"><ele>144.33333333333334</ele><time>2026-03-28T17:09:09.769Z</time></trkpt><trkpt lat="45.5932072" lon="10.5182723"><ele>144.0</ele><time>2026-03-28T17:09:10.77Z</time></trkpt><trkpt lat="45.5931659" lon="10.5184855"><ele>144.0</ele><time>2026-03-28T17:09:11.77Z</time></trkpt><trkpt lat="45.5931259" lon="10.5186991"><ele>144.0</ele><time>2026-03-28T17:09:12.771Z</time></trkpt><trkpt lat="45.5930882" lon="10.518913"><ele>144.0</ele><time>2026-03-28T17:09:13.769Z</time></trkpt><trkpt lat="45.5930483" lon="10.519125"><ele>144.66666666666666</ele><time>2026-03-28T17:09:14.77Z</time></trkpt><trkpt lat="45.5930083" lon="10.5193341"><ele>145.33333333333331</ele><time>2026-03-28T17:09:15.77Z</time></trkpt><trkpt lat="45.5929671" lon="10.5195435"><ele>146.0</ele><time>2026-03-28T17:09:16.771Z</time></trkpt><trkpt lat="45.59292" lon="10.5197506"><ele>147.0</ele><time>2026-03-28T17:09:17.769Z</time></trkpt><trkpt lat="45.5928645" lon="10.5199595"><ele>148.0</ele><time>2026-03-28T17:09:18.77Z</time></trkpt><trkpt lat="45.592802" lon="10.5201616"><ele>149.0</ele><time>2026-03-28T17:09:19.77Z</time></trkpt><trkpt lat="45.592733" lon="10.5203586"><ele>152.33333333333331</ele><time>2026-03-28T17:09:20.769Z</time></trkpt><trkpt lat="45.5926538" lon="10.5205483"><ele>155.66666666666666</ele><time>2026-03-28T17:09:21.771Z</time></trkpt><trkpt lat="45.5925654" lon="10.5207317"><ele>159.0</ele><time>2026-03-28T17:09:22.771Z</time></trkpt><trkpt lat="45.5924695" lon="10.520914"><ele>159.0</ele><time>2026-03-28T17:09:23.769Z</time></trkpt><trkpt lat="45.592371" lon="10.521097"><ele>159.0</ele><time>2026-03-28T17:09:24.771Z</time></trkpt><trkpt lat="45.5922717" lon="10.5212846"><ele>159.0</ele><time>2026-03-28T17:09:25.77Z</time></trkpt><trkpt lat="45.5921727" lon="10.5214727"><ele>158.75</ele><time>2026-03-28T17:09:26.77Z</time></trkpt><trkpt lat="45.5920789" lon="10.5216536"><ele>158.5</ele><time>2026-03-28T17:09:27.77Z</time></trkpt><trkpt lat="45.5919921" lon="10.5218202"><ele>158.25</ele><time>2026-03-28T17:09:28.77Z</time></trkpt><trkpt lat="45.591913" lon="10.5219692"><ele>158.0</ele><time>2026-03-28T17:09:29.77Z</time></trkpt><trkpt lat="45.591844" lon="10.5220982"><ele>158.0</ele><time>2026-03-28T17:09:30.77Z</time></trkpt><trkpt lat="45.5917813" lon="10.522207"><ele>158.0</ele><time>2026-03-28T17:09:31.769Z</time></trkpt><trkpt lat="45.5917232" lon="10.5223009"><ele>158.0</ele><time>2026-03-28T17:09:32.769Z</time></trkpt><trkpt lat="45.5916677" lon="10.5223802"><ele>158.0</ele><time>2026-03-28T17:09:33.77Z</time></trkpt><trkpt lat="45.5916163" lon="10.5224423"><ele>158.0</ele><time>2026-03-28T17:09:34.77Z</time></trkpt><trkpt lat="45.5915236" lon="10.5225406"><ele>158.0</ele><time>2026-03-28T17:09:36.769Z</time></trkpt><trkpt lat="45.5914668" lon="10.5225868"><ele>158.0</ele><time>2026-03-28T17:09:37.769Z</time></trkpt><trkpt lat="45.5913538" lon="10.522629"><ele>158.0</ele><time>2026-03-28T17:09:39.769Z</time></trkpt><trkpt lat="45.591284" lon="10.5226456"><ele>158.0</ele><time>2026-03-28T17:09:40.769Z</time></trkpt><trkpt lat="45.5912108" lon="10.5226602"><ele>158.0</ele><time>2026-03-28T17:09:41.77Z</time></trkpt><trkpt lat="45.5911467" lon="10.5226894"><ele>158.0</ele><time>2026-03-28T17:09:42.77Z</time></trkpt><trkpt lat="45.5910871" lon="10.5227406"><ele>158.0</ele><time>2026-03-28T17:09:43.769Z</time></trkpt><trkpt lat="45.5910319" lon="10.5228101"><ele>157.83333333333331</ele><time>2026-03-28T17:09:44.771Z</time></trkpt><trkpt lat="45.5909723" lon="10.5228859"><ele>157.66666666666666</ele><time>2026-03-28T17:09:45.77Z</time></trkpt><trkpt lat="45.5909015" lon="10.5229446"><ele>157.5</ele><time>2026-03-28T17:09:46.77Z</time></trkpt><trkpt lat="45.5908226" lon="10.5229636"><ele>157.33333333333334</ele><time>2026-03-28T17:09:47.769Z</time></trkpt><trkpt lat="45.5907395" lon="10.5229576"><ele>157.16666666666669</ele><time>2026-03-28T17:09:48.769Z</time></trkpt><trkpt lat="45.590647" lon="10.5229094"><ele>157.0</ele><time>2026-03-28T17:09:49.77Z</time></trkpt><trkpt lat="45.5905521" lon="10.5228563"><ele>157.0</ele><time>2026-03-28T17:09:50.77Z</time></trkpt><trkpt lat="45.5904455" lon="10.5227915"><ele>157.0</ele><time>2026-03-28T17:09:51.771Z</time></trkpt><trkpt lat="45.5903326" lon="10.5227171"><ele>157.0</ele><time>2026-03-28T17:09:52.77Z</time></trkpt><trkpt lat="45.5902114" lon="10.5226303"><ele>157.0</ele><time>2026-03-28T17:09:53.77Z</time></trkpt><trkpt lat="45.5900857" lon="10.5225371"><ele>157.25</ele><time>2026-03-28T17:09:54.77Z</time></trkpt><trkpt lat="45.5899558" lon="10.5224368"><ele>157.5</ele><time>2026-03-28T17:09:55.771Z</time></trkpt><trkpt lat="45.5898245" lon="10.5223315"><ele>157.75</ele><time>2026-03-28T17:09:56.769Z</time></trkpt><trkpt lat="45.589694" lon="10.522229"><ele>158.0</ele><time>2026-03-28T17:09:57.769Z</time></trkpt><trkpt lat="45.5895663" lon="10.5221271"><ele>156.75</ele><time>2026-03-28T17:09:58.77Z</time></trkpt><trkpt lat="45.5894409" lon="10.5220292"><ele>155.5</ele><time>2026-03-28T17:09:59.769Z</time></trkpt><trkpt lat="45.5893147" lon="10.5219318"><ele>154.25</ele><time>2026-03-28T17:10:00.77Z</time></trkpt><trkpt lat="45.5891859" lon="10.5218319"><ele>153.0</ele><time>2026-03-28T17:10:01.769Z</time></trkpt><trkpt lat="45.5890517" lon="10.5217263"><ele>153.0</ele><time>2026-03-28T17:10:02.77Z</time></trkpt><trkpt lat="45.5889143" lon="10.5216189"><ele>153.0</ele><time>2026-03-28T17:10:03.771Z</time></trkpt><trkpt lat="45.5887773" lon="10.5215108"><ele>153.0</ele><time>2026-03-28T17:10:04.77Z</time></trkpt><trkpt lat="45.5886384" lon="10.5214032"><ele>153.0</ele><time>2026-03-28T17:10:05.77Z</time></trkpt><trkpt lat="45.5884993" lon="10.5212958"><ele>153.0</ele><time>2026-03-28T17:10:06.77Z</time></trkpt><trkpt lat="45.5883605" lon="10.521189"><ele>153.0</ele><time>2026-03-28T17:10:07.769Z</time></trkpt><trkpt lat="45.5882242" lon="10.5210825"><ele>153.0</ele><time>2026-03-28T17:10:08.771Z</time></trkpt><trkpt lat="45.5880944" lon="10.5209697"><ele>153.0</ele><time>2026-03-28T17:10:09.77Z</time></trkpt><trkpt lat="45.5879676" lon="10.5208426"><ele>153.0</ele><time>2026-03-28T17:10:10.769Z</time></trkpt><trkpt lat="45.5878528" lon="10.5206983"><ele>152.75</ele><time>2026-03-28T17:10:11.769Z</time></trkpt><trkpt lat="45.5877499" lon="10.5205513"><ele>152.5</ele><time>2026-03-28T17:10:12.769Z</time></trkpt><trkpt lat="45.5876613" lon="10.5203919"><ele>152.25</ele><time>2026-03-28T17:10:13.771Z</time></trkpt><trkpt lat="45.5875874" lon="10.5202295"><ele>152.0</ele><time>2026-03-28T17:10:14.77Z</time></trkpt><trkpt lat="45.5875272" lon="10.5200636"><ele>151.75</ele><time>2026-03-28T17:10:15.77Z</time></trkpt><trkpt lat="45.587474" lon="10.5198955"><ele>151.5</ele><time>2026-03-28T17:10:16.771Z</time></trkpt><trkpt lat="45.5874247" lon="10.5197307"><ele>151.25</ele><time>2026-03-28T17:10:17.769Z</time></trkpt><trkpt lat="45.5873766" lon="10.519573"><ele>151.0</ele><time>2026-03-28T17:10:18.771Z</time></trkpt><trkpt lat="45.5873311" lon="10.5194312"><ele>151.0</ele><time>2026-03-28T17:10:19.77Z</time></trkpt><trkpt lat="45.5872857" lon="10.5192878"><ele>151.0</ele><time>2026-03-28T17:10:20.771Z</time></trkpt><trkpt lat="45.5872387" lon="10.5191381"><ele>151.0</ele><time>2026-03-28T17:10:21.771Z</time></trkpt><trkpt lat="45.5871943" lon="10.5189878"><ele>151.0</ele><time>2026-03-28T17:10:22.77Z</time></trkpt><trkpt lat="45.5871537" lon="10.5188417"><ele>151.0</ele><time>2026-03-28T17:10:23.771Z</time></trkpt><trkpt lat="45.5871128" lon="10.5186993"><ele>151.4</ele><time>2026-03-28T17:10:24.77Z</time></trkpt><trkpt lat="45.5870692" lon="10.5185566"><ele>151.8</ele><time>2026-03-28T17:10:25.77Z</time></trkpt><trkpt lat="45.5870272" lon="10.5184199"><ele>152.20000000000002</ele><time>2026-03-28T17:10:26.77Z</time></trkpt><trkpt lat="45.5869912" lon="10.5182958"><ele>152.6</ele><time>2026-03-28T17:10:27.77Z</time></trkpt><trkpt lat="45.5869585" lon="10.5181748"><ele>153.0</ele><time>2026-03-28T17:10:28.771Z</time></trkpt><trkpt lat="45.5869318" lon="10.5180662"><ele>153.0</ele><time>2026-03-28T17:10:29.771Z</time></trkpt><trkpt lat="45.5869094" lon="10.517954"><ele>153.0</ele><time>2026-03-28T17:10:30.771Z</time></trkpt><trkpt lat="45.5869026" lon="10.5178448"><ele>153.0</ele><time>2026-03-28T17:10:31.77Z</time></trkpt><trkpt lat="45.5869038" lon="10.5177527"><ele>153.0</ele><time>2026-03-28T17:10:32.77Z</time></trkpt><trkpt lat="45.5869327" lon="10.5175999"><ele>153.0</ele><time>2026-03-28T17:10:34.769Z</time></trkpt><trkpt lat="45.5869762" lon="10.5174559"><ele>153.0</ele><time>2026-03-28T17:10:36.77Z</time></trkpt><trkpt lat="45.5869657" lon="10.5173042"><ele>153.66666666666666</ele><time>2026-03-28T17:10:38.77Z</time></trkpt><trkpt lat="45.586876" lon="10.5172298"><ele>154.33333333333334</ele><time>2026-03-28T17:10:40.77Z</time></trkpt><trkpt lat="45.5867604" lon="10.517262"><ele>155.0</ele><time>2026-03-28T17:10:42.769Z</time></trkpt><trkpt lat="45.5867036" lon="10.517306"><ele>155.66666666666669</ele><time>2026-03-28T17:10:43.77Z</time></trkpt><trkpt lat="45.5866492" lon="10.5173585"><ele>156.33333333333334</ele><time>2026-03-28T17:10:44.77Z</time></trkpt><trkpt lat="45.5865948" lon="10.5174184"><ele>157.0</ele><time>2026-03-28T17:10:45.77Z</time></trkpt><trkpt lat="45.5865346" lon="10.5174803"><ele>157.0</ele><time>2026-03-28T17:10:46.769Z</time></trkpt><trkpt lat="45.5864609" lon="10.5175402"><ele>157.0</ele><time>2026-03-28T17:10:47.769Z</time></trkpt><trkpt lat="45.5863913" lon="10.5175993"><ele>157.0</ele><time>2026-03-28T17:10:48.77Z</time></trkpt><trkpt lat="45.5863286" lon="10.5176522"><ele>157.0</ele><time>2026-03-28T17:10:49.77Z</time></trkpt><trkpt lat="45.586227" lon="10.5177369"><ele>157.0</ele><time>2026-03-28T17:10:51.77Z</time></trkpt><trkpt lat="45.5861326" lon="10.5178067"><ele>156.83333333333334</ele><time>2026-03-28T17:10:53.771Z</time></trkpt><trkpt lat="45.5860436" lon="10.5178788"><ele>156.66666666666669</ele><time>2026-03-28T17:10:55.77Z</time></trkpt><trkpt lat="45.5859474" lon="10.5178805"><ele>156.5</ele><time>2026-03-28T17:10:57.77Z</time></trkpt><trkpt lat="45.5858666" lon="10.5179189"><ele>156.33333333333334</ele><time>2026-03-28T17:10:59.77Z</time></trkpt><trkpt lat="45.5857939" lon="10.5179735"><ele>156.16666666666666</ele><time>2026-03-28T17:11:02.77Z</time></trkpt><trkpt lat="45.5857474" lon="10.5180556"><ele>156.0</ele><time>2026-03-28T17:15:00.77Z</time></trkpt><trkpt lat="45.5856678" lon="10.5181021"><ele>156.0</ele><time>2026-03-28T17:15:02.769Z</time></trkpt><trkpt lat="45.5857458" lon="10.5181768"><ele>156.0</ele><time>2026-03-28T17:15:08.77Z</time></trkpt><trkpt lat="45.5858641" lon="10.5180964"><ele>156.0</ele><time>2026-03-28T17:15:10.77Z</time></trkpt><trkpt lat="45.5859417" lon="10.5180305"><ele>156.0</ele><time>2026-03-28T17:15:11.769Z</time></trkpt><trkpt lat="45.5860288" lon="10.5179608"><ele>156.0</ele><time>2026-03-28T17:15:12.77Z</time></trkpt><trkpt lat="45.5861225" lon="10.5178707"><ele>156.2</ele><time>2026-03-28T17:15:13.771Z</time></trkpt><trkpt lat="45.586226" lon="10.5177745"><ele>156.39999999999998</ele><time>2026-03-28T17:15:14.77Z</time></trkpt><trkpt lat="45.5863262" lon="10.5176909"><ele>156.6</ele><time>2026-03-28T17:15:15.77Z</time></trkpt><trkpt lat="45.5864121" lon="10.5176212"><ele>156.79999999999998</ele><time>2026-03-28T17:15:16.77Z</time></trkpt><trkpt lat="45.5864867" lon="10.5175648"><ele>157.0</ele><time>2026-03-28T17:15:17.769Z</time></trkpt><trkpt lat="45.5865491" lon="10.5175281"><ele>157.0</ele><time>2026-03-28T17:15:18.77Z</time></trkpt><trkpt lat="45.5866492" lon="10.5175086"><ele>157.0</ele><time>2026-03-28T17:15:20.77Z</time></trkpt><trkpt lat="45.5867636" lon="10.5175901"><ele>157.0</ele><time>2026-03-28T17:15:22.77Z</time></trkpt><trkpt lat="45.5868345" lon="10.5176226"><ele>157.0</ele><time>2026-03-28T17:15:23.77Z</time></trkpt><trkpt lat="45.5869021" lon="10.5176048"><ele>157.0</ele><time>2026-03-28T17:15:24.77Z</time></trkpt><trkpt lat="45.5869694" lon="10.5174705"><ele>157.0</ele><time>2026-03-28T17:15:26.769Z</time></trkpt><trkpt lat="45.5869407" lon="10.5173111"><ele>157.0</ele><time>2026-03-28T17:15:28.77Z</time></trkpt><trkpt lat="45.5868235" lon="10.517226"><ele>157.0</ele><time>2026-03-28T17:15:30.771Z</time></trkpt><trkpt lat="45.5867428" lon="10.5171796"><ele>157.0</ele><time>2026-03-28T17:15:31.769Z</time></trkpt><trkpt lat="45.5866649" lon="10.5170956"><ele>157.0</ele><time>2026-03-28T17:15:32.77Z</time></trkpt><trkpt lat="45.586606" lon="10.5169719"><ele>157.2</ele><time>2026-03-28T17:15:33.77Z</time></trkpt><trkpt lat="45.5865558" lon="10.5168337"><ele>157.39999999999998</ele><time>2026-03-28T17:15:34.771Z</time></trkpt><trkpt lat="45.586504" lon="10.5166924"><ele>157.60000000000002</ele><time>2026-03-28T17:15:35.77Z</time></trkpt><trkpt lat="45.5864559" lon="10.5165581"><ele>157.8</ele><time>2026-03-28T17:15:36.77Z</time></trkpt><trkpt lat="45.5864089" lon="10.5164265"><ele>158.0</ele><time>2026-03-28T17:15:37.77Z</time></trkpt><trkpt lat="45.5863576" lon="10.5163068"><ele>158.0</ele><time>2026-03-28T17:15:38.77Z</time></trkpt><trkpt lat="45.5862961" lon="10.5162007"><ele>158.0</ele><time>2026-03-28T17:15:39.771Z</time></trkpt><trkpt lat="45.5862372" lon="10.5161072"><ele>158.0</ele><time>2026-03-28T17:15:40.771Z</time></trkpt><trkpt lat="45.5861714" lon="10.5160292"><ele>158.0</ele><time>2026-03-28T17:15:41.77Z</time></trkpt><trkpt lat="45.5861019" lon="10.5159492"><ele>158.0</ele><time>2026-03-28T17:15:42.77Z</time></trkpt><trkpt lat="45.5860276" lon="10.515883"><ele>158.0</ele><time>2026-03-28T17:15:43.769Z</time></trkpt><trkpt lat="45.5859478" lon="10.5158246"><ele>158.8</ele><time>2026-03-28T17:15:44.769Z</time></trkpt><trkpt lat="45.5858638" lon="10.515765"><ele>159.60000000000002</ele><time>2026-03-28T17:15:45.769Z</time></trkpt><trkpt lat="45.5857775" lon="10.5157055"><ele>160.39999999999998</ele><time>2026-03-28T17:15:46.771Z</time></trkpt><trkpt lat="45.5856921" lon="10.5156456"><ele>161.2</ele><time>2026-03-28T17:15:47.769Z</time></trkpt><trkpt lat="45.5856174" lon="10.5155886"><ele>162.0</ele><time>2026-03-28T17:15:48.77Z</time></trkpt><trkpt lat="45.5855535" lon="10.5155175"><ele>162.0</ele><time>2026-03-28T17:15:49.77Z</time></trkpt><trkpt lat="45.5854988" lon="10.5154399"><ele>162.0</ele><time>2026-03-28T17:15:50.771Z</time></trkpt><trkpt lat="45.5854467" lon="10.5153691"><ele>162.0</ele><time>2026-03-28T17:15:51.771Z</time></trkpt><trkpt lat="45.5853925" lon="10.5153123"><ele>162.0</ele><time>2026-03-28T17:15:52.77Z</time></trkpt><trkpt lat="45.5852822" lon="10.515304"><ele>162.0</ele><time>2026-03-28T17:15:54.77Z</time></trkpt><trkpt lat="45.5852014" lon="10.5153593"><ele>162.0</ele><time>2026-03-28T17:15:56.769Z</time></trkpt><trkpt lat="45.5851309" lon="10.5154147"><ele>163.2</ele><time>2026-03-28T17:15:59.769Z</time></trkpt><trkpt lat="45.5850316" lon="10.5154778"><ele>164.39999999999998</ele><time>2026-03-28T17:16:01.77Z</time></trkpt><trkpt lat="45.5849472" lon="10.5155113"><ele>165.60000000000002</ele><time>2026-03-28T17:16:02.771Z</time></trkpt><trkpt lat="45.5848454" lon="10.5155275"><ele>166.8</ele><time>2026-03-28T17:16:03.771Z</time></trkpt><trkpt lat="45.584734" lon="10.5155349"><ele>168.0</ele><time>2026-03-28T17:16:04.771Z</time></trkpt><trkpt lat="45.5846145" lon="10.5155515"><ele>170.5</ele><time>2026-03-28T17:16:05.769Z</time></trkpt><trkpt lat="45.5844877" lon="10.5155671"><ele>173.0</ele><time>2026-03-28T17:16:06.769Z</time></trkpt><trkpt lat="45.5843592" lon="10.5155831"><ele>175.5</ele><time>2026-03-28T17:16:07.769Z</time></trkpt><trkpt lat="45.584219" lon="10.5155893"><ele>178.0</ele><time>2026-03-28T17:16:08.769Z</time></trkpt><trkpt lat="45.5840698" lon="10.5155889"><ele>178.0</ele><time>2026-03-28T17:16:09.769Z</time></trkpt><trkpt lat="45.5839121" lon="10.5155834"><ele>178.0</ele><time>2026-03-28T17:16:10.77Z</time></trkpt><trkpt lat="45.5837488" lon="10.5155729"><ele>178.0</ele><time>2026-03-28T17:16:11.77Z</time></trkpt><trkpt lat="45.5835857" lon="10.5155674"><ele>178.33333333333334</ele><time>2026-03-28T17:16:12.77Z</time></trkpt><trkpt lat="45.5834199" lon="10.515564"><ele>178.66666666666666</ele><time>2026-03-28T17:16:13.769Z</time></trkpt><trkpt lat="45.5832547" lon="10.5155621"><ele>179.0</ele><time>2026-03-28T17:16:14.77Z</time></trkpt><trkpt lat="45.5830874" lon="10.5155585"><ele>179.0</ele><time>2026-03-28T17:16:15.769Z</time></trkpt><trkpt lat="45.5829185" lon="10.5155577"><ele>179.0</ele><time>2026-03-28T17:16:16.77Z</time></trkpt><trkpt lat="45.5827508" lon="10.5155587"><ele>179.0</ele><time>2026-03-28T17:16:17.77Z</time></trkpt><trkpt lat="45.5825829" lon="10.5155646"><ele>178.66666666666666</ele><time>2026-03-28T17:16:18.77Z</time></trkpt><trkpt lat="45.5824152" lon="10.5155689"><ele>178.33333333333334</ele><time>2026-03-28T17:16:19.77Z</time></trkpt><trkpt lat="45.582246" lon="10.5155739"><ele>178.0</ele><time>2026-03-28T17:16:20.769Z</time></trkpt><trkpt lat="45.5820775" lon="10.5155809"><ele>178.33333333333334</ele><time>2026-03-28T17:16:21.769Z</time></trkpt><trkpt lat="45.5819099" lon="10.5155992"><ele>178.66666666666666</ele><time>2026-03-28T17:16:22.77Z</time></trkpt><trkpt lat="45.5817434" lon="10.5156248"><ele>179.0</ele><time>2026-03-28T17:16:23.77Z</time></trkpt><trkpt lat="45.5815751" lon="10.5156553"><ele>179.0</ele><time>2026-03-28T17:16:24.769Z</time></trkpt><trkpt lat="45.5814068" lon="10.5156793"><ele>179.0</ele><time>2026-03-28T17:16:25.77Z</time></trkpt><trkpt lat="45.5812375" lon="10.5156963"><ele>179.0</ele><time>2026-03-28T17:16:26.769Z</time></trkpt><trkpt lat="45.5810641" lon="10.515693"><ele>178.66666666666666</ele><time>2026-03-28T17:16:27.769Z</time></trkpt><trkpt lat="45.58089" lon="10.5156648"><ele>178.33333333333334</ele><time>2026-03-28T17:16:28.77Z</time></trkpt><trkpt lat="45.5807161" lon="10.5156129"><ele>178.0</ele><time>2026-03-28T17:16:29.77Z</time></trkpt><trkpt lat="45.5805405" lon="10.51555"><ele>178.0</ele><time>2026-03-28T17:16:30.769Z</time></trkpt><trkpt lat="45.5803593" lon="10.5154869"><ele>178.0</ele><time>2026-03-28T17:16:31.77Z</time></trkpt><trkpt lat="45.5801758" lon="10.5154362"><ele>178.0</ele><time>2026-03-28T17:16:32.77Z</time></trkpt><trkpt lat="45.5799907" lon="10.5153995"><ele>181.33333333333334</ele><time>2026-03-28T17:16:33.771Z</time></trkpt><trkpt lat="45.5798088" lon="10.5153697"><ele>184.66666666666666</ele><time>2026-03-28T17:16:34.77Z</time></trkpt><trkpt lat="45.5796283" lon="10.5153444"><ele>188.0</ele><time>2026-03-28T17:16:35.769Z</time></trkpt><trkpt lat="45.5794494" lon="10.5153226"><ele>188.0</ele><time>2026-03-28T17:16:36.77Z</time></trkpt><trkpt lat="45.5792709" lon="10.5153046"><ele>188.0</ele><time>2026-03-28T17:16:37.77Z</time></trkpt><trkpt lat="45.5790969" lon="10.5152884"><ele>188.0</ele><time>2026-03-28T17:16:38.77Z</time></trkpt><trkpt lat="45.5789258" lon="10.5152713"><ele>188.0</ele><time>2026-03-28T17:16:39.77Z</time></trkpt><trkpt lat="45.5787596" lon="10.5152541"><ele>188.0</ele><time>2026-03-28T17:16:40.771Z</time></trkpt><trkpt lat="45.5785936" lon="10.5152398"><ele>188.0</ele><time>2026-03-28T17:16:41.77Z</time></trkpt><trkpt lat="45.5784323" lon="10.5152277"><ele>187.33333333333331</ele><time>2026-03-28T17:16:42.769Z</time></trkpt><trkpt lat="45.5782756" lon="10.5152113"><ele>186.66666666666666</ele><time>2026-03-28T17:16:43.77Z</time></trkpt><trkpt lat="45.5781188" lon="10.5151994"><ele>186.0</ele><time>2026-03-28T17:16:44.771Z</time></trkpt><trkpt lat="45.577964" lon="10.5151874"><ele>186.33333333333334</ele><time>2026-03-28T17:16:45.77Z</time></trkpt><trkpt lat="45.5778104" lon="10.5151776"><ele>186.66666666666669</ele><time>2026-03-28T17:16:46.77Z</time></trkpt><trkpt lat="45.5776615" lon="10.5151641"><ele>187.0</ele><time>2026-03-28T17:16:47.77Z</time></trkpt><trkpt lat="45.5775138" lon="10.5151488"><ele>187.0</ele><time>2026-03-28T17:16:48.77Z</time></trkpt><trkpt lat="45.5773657" lon="10.5151251"><ele>187.0</ele><time>2026-03-28T17:16:49.77Z</time></trkpt><trkpt lat="45.5772171" lon="10.5150991"><ele>187.0</ele><time>2026-03-28T17:16:50.769Z</time></trkpt><trkpt lat="45.577068" lon="10.5150657"><ele>187.0</ele><time>2026-03-28T17:16:51.77Z</time></trkpt><trkpt lat="45.5769201" lon="10.5150307"><ele>187.0</ele><time>2026-03-28T17:16:52.771Z</time></trkpt><trkpt lat="45.576768" lon="10.514993"><ele>187.0</ele><time>2026-03-28T17:16:53.77Z</time></trkpt><trkpt lat="45.5766147" lon="10.5149567"><ele>187.0</ele><time>2026-03-28T17:16:54.77Z</time></trkpt><trkpt lat="45.5764627" lon="10.5149215"><ele>187.0</ele><time>2026-03-28T17:16:55.77Z</time></trkpt><trkpt lat="45.5763097" lon="10.5148855"><ele>187.0</ele><time>2026-03-28T17:16:56.77Z</time></trkpt><trkpt lat="45.5761562" lon="10.5148512"><ele>186.33333333333334</ele><time>2026-03-28T17:16:57.77Z</time></trkpt><trkpt lat="45.5760023" lon="10.5148149"><ele>185.66666666666666</ele><time>2026-03-28T17:16:58.769Z</time></trkpt><trkpt lat="45.5758472" lon="10.5147788"><ele>185.0</ele><time>2026-03-28T17:16:59.771Z</time></trkpt><trkpt lat="45.5756924" lon="10.5147402"><ele>185.0</ele><time>2026-03-28T17:17:00.77Z</time></trkpt><trkpt lat="45.5755365" lon="10.5147023"><ele>185.0</ele><time>2026-03-28T17:17:01.769Z</time></trkpt><trkpt lat="45.5753813" lon="10.5146626"><ele>185.0</ele><time>2026-03-28T17:17:02.769Z</time></trkpt><trkpt lat="45.5752262" lon="10.514626"><ele>185.66666666666666</ele><time>2026-03-28T17:17:03.771Z</time></trkpt><trkpt lat="45.5750709" lon="10.5145896"><ele>186.33333333333334</ele><time>2026-03-28T17:17:04.77Z</time></trkpt><trkpt lat="45.5749156" lon="10.5145508"><ele>187.0</ele><time>2026-03-28T17:17:05.77Z</time></trkpt><trkpt lat="45.5747618" lon="10.5145116"><ele>188.0</ele><time>2026-03-28T17:17:06.77Z</time></trkpt><trkpt lat="45.5746059" lon="10.5144743"><ele>189.0</ele><time>2026-03-28T17:17:07.77Z</time></trkpt><trkpt lat="45.5744477" lon="10.5144366"><ele>190.0</ele><time>2026-03-28T17:17:08.771Z</time></trkpt><trkpt lat="45.5742917" lon="10.5143973"><ele>191.0</ele><time>2026-03-28T17:17:09.77Z</time></trkpt><trkpt lat="45.5741395" lon="10.5143584"><ele>192.0</ele><time>2026-03-28T17:17:10.77Z</time></trkpt><trkpt lat="45.5739906" lon="10.5143462"><ele>193.0</ele><time>2026-03-28T17:17:11.769Z</time></trkpt><trkpt lat="45.5738478" lon="10.5143901"><ele>193.0</ele><time>2026-03-28T17:17:12.77Z</time></trkpt><trkpt lat="45.5737259" lon="10.5144843"><ele>193.0</ele><time>2026-03-28T17:17:13.771Z</time></trkpt><trkpt lat="45.573627" lon="10.5146256"><ele>193.0</ele><time>2026-03-28T17:17:14.769Z</time></trkpt><trkpt lat="45.5735537" lon="10.5148073"><ele>193.0</ele><time>2026-03-28T17:17:15.77Z</time></trkpt><trkpt lat="45.5735105" lon="10.5150105"><ele>195.66666666666666</ele><time>2026-03-28T17:17:16.77Z</time></trkpt><trkpt lat="45.5734815" lon="10.5152238"><ele>198.33333333333331</ele><time>2026-03-28T17:17:17.771Z</time></trkpt><trkpt lat="45.5734457" lon="10.5154375"><ele>201.0</ele><time>2026-03-28T17:17:18.769Z</time></trkpt><trkpt lat="45.5733959" lon="10.5156427"><ele>201.0</ele><time>2026-03-28T17:17:19.769Z</time></trkpt><trkpt lat="45.5733191" lon="10.5158263"><ele>201.0</ele><time>2026-03-28T17:17:20.77Z</time></trkpt><trkpt lat="45.5732112" lon="10.515984"><ele>201.0</ele><time>2026-03-28T17:17:21.77Z</time></trkpt><trkpt lat="45.5730879" lon="10.5161196"><ele>200.0</ele><time>2026-03-28T17:17:22.769Z</time></trkpt><trkpt lat="45.5729598" lon="10.516244"><ele>199.0</ele><time>2026-03-28T17:17:23.77Z</time></trkpt><trkpt lat="45.5728254" lon="10.5163583"><ele>198.0</ele><time>2026-03-28T17:17:24.77Z</time></trkpt><trkpt lat="45.5726795" lon="10.5164433"><ele>198.0</ele><time>2026-03-28T17:17:25.77Z</time></trkpt><trkpt lat="45.5725262" lon="10.5164995"><ele>198.0</ele><time>2026-03-28T17:17:26.77Z</time></trkpt><trkpt lat="45.5723737" lon="10.5165368"><ele>198.0</ele><time>2026-03-28T17:17:27.769Z</time></trkpt><trkpt lat="45.5722209" lon="10.5165607"><ele>198.0</ele><time>2026-03-28T17:17:28.77Z</time></trkpt><trkpt lat="45.5720705" lon="10.5165509"><ele>198.0</ele><time>2026-03-28T17:17:29.77Z</time></trkpt><trkpt lat="45.5719309" lon="10.5164949"><ele>198.0</ele><time>2026-03-28T17:17:30.771Z</time></trkpt><trkpt lat="45.5717958" lon="10.5163937"><ele>198.0</ele><time>2026-03-28T17:17:31.769Z</time></trkpt><trkpt lat="45.5716679" lon="10.5162581"><ele>203.0</ele><time>2026-03-28T17:17:32.77Z</time></trkpt><trkpt lat="45.5715422" lon="10.516108"><ele>208.0</ele><time>2026-03-28T17:17:33.769Z</time></trkpt><trkpt lat="45.5714185" lon="10.5159574"><ele>213.0</ele><time>2026-03-28T17:17:34.77Z</time></trkpt><trkpt lat="45.5712995" lon="10.5158053"><ele>211.33333333333331</ele><time>2026-03-28T17:17:35.769Z</time></trkpt><trkpt lat="45.5711749" lon="10.5156547"><ele>209.66666666666666</ele><time>2026-03-28T17:17:36.771Z</time></trkpt><trkpt lat="45.5710484" lon="10.515504"><ele>208.0</ele><time>2026-03-28T17:17:37.77Z</time></trkpt><trkpt lat="45.5709213" lon="10.5153501"><ele>208.0</ele><time>2026-03-28T17:17:38.771Z</time></trkpt><trkpt lat="45.5708005" lon="10.5151924"><ele>208.0</ele><time>2026-03-28T17:17:39.77Z</time></trkpt><trkpt lat="45.5706997" lon="10.5150183"><ele>208.0</ele><time>2026-03-28T17:17:40.769Z</time></trkpt><trkpt lat="45.5706293" lon="10.514816"><ele>208.0</ele><time>2026-03-28T17:17:41.771Z</time></trkpt><trkpt lat="45.57059" lon="10.5145909"><ele>208.0</ele><time>2026-03-28T17:17:42.769Z</time></trkpt><trkpt lat="45.5705745" lon="10.5143554"><ele>208.0</ele><time>2026-03-28T17:17:43.771Z</time></trkpt><trkpt lat="45.5705586" lon="10.5141187"><ele>209.66666666666666</ele><time>2026-03-28T17:17:44.77Z</time></trkpt><trkpt lat="45.5705191" lon="10.5138827"><ele>211.33333333333331</ele><time>2026-03-28T17:17:45.771Z</time></trkpt><trkpt lat="45.5704425" lon="10.5136708"><ele>213.0</ele><time>2026-03-28T17:17:46.769Z</time></trkpt><trkpt lat="45.570332" lon="10.5134909"><ele>209.0</ele><time>2026-03-28T17:17:47.769Z</time></trkpt><trkpt lat="45.5701987" lon="10.5133429"><ele>205.0</ele><time>2026-03-28T17:17:48.77Z</time></trkpt><trkpt lat="45.5700578" lon="10.5132183"><ele>201.0</ele><time>2026-03-28T17:17:49.77Z</time></trkpt><trkpt lat="45.5699327" lon="10.513079"><ele>201.0</ele><time>2026-03-28T17:17:50.77Z</time></trkpt><trkpt lat="45.5698149" lon="10.5129408"><ele>201.0</ele><time>2026-03-28T17:17:51.77Z</time></trkpt><trkpt lat="45.5697634" lon="10.5127353"><ele>201.0</ele><time>2026-03-28T17:17:52.77Z</time></trkpt><trkpt lat="45.5697384" lon="10.5125299"><ele>203.66666666666669</ele><time>2026-03-28T17:17:53.771Z</time></trkpt><trkpt lat="45.5697339" lon="10.512319"><ele>206.33333333333334</ele><time>2026-03-28T17:17:54.77Z</time></trkpt><trkpt lat="45.5697589" lon="10.5121088"><ele>209.0</ele><time>2026-03-28T17:17:55.769Z</time></trkpt><trkpt lat="45.5698427" lon="10.5119144"><ele>209.33333333333334</ele><time>2026-03-28T17:17:56.771Z</time></trkpt><trkpt lat="45.5699777" lon="10.5117518"><ele>209.66666666666669</ele><time>2026-03-28T17:17:57.77Z</time></trkpt><trkpt lat="45.5700534" lon="10.5115748"><ele>210.0</ele><time>2026-03-28T17:17:58.77Z</time></trkpt><trkpt lat="45.5701298" lon="10.5113982"><ele>208.25</ele><time>2026-03-28T17:17:59.77Z</time></trkpt><trkpt lat="45.5701899" lon="10.5112162"><ele>206.5</ele><time>2026-03-28T17:18:00.77Z</time></trkpt><trkpt lat="45.5702406" lon="10.5110279"><ele>204.75</ele><time>2026-03-28T17:18:01.77Z</time></trkpt><trkpt lat="45.5702856" lon="10.5108349"><ele>203.0</ele><time>2026-03-28T17:18:02.771Z</time></trkpt><trkpt lat="45.5703227" lon="10.5106422"><ele>203.0</ele><time>2026-03-28T17:18:03.77Z</time></trkpt><trkpt lat="45.5703564" lon="10.5104552"><ele>203.0</ele><time>2026-03-28T17:18:04.77Z</time></trkpt><trkpt lat="45.5703926" lon="10.510269"><ele>203.0</ele><time>2026-03-28T17:18:05.769Z</time></trkpt><trkpt lat="45.5704242" lon="10.510091"><ele>203.0</ele><time>2026-03-28T17:18:06.77Z</time></trkpt><trkpt lat="45.5704549" lon="10.5099139"><ele>204.75</ele><time>2026-03-28T17:18:07.77Z</time></trkpt><trkpt lat="45.5704882" lon="10.5097389"><ele>206.5</ele><time>2026-03-28T17:18:08.769Z</time></trkpt><trkpt lat="45.570518" lon="10.5095711"><ele>208.25</ele><time>2026-03-28T17:18:09.77Z</time></trkpt><trkpt lat="45.5705475" lon="10.5094071"><ele>210.0</ele><time>2026-03-28T17:18:10.771Z</time></trkpt><trkpt lat="45.5705693" lon="10.509255"><ele>210.0</ele><time>2026-03-28T17:18:11.77Z</time></trkpt><trkpt lat="45.5705637" lon="10.5091133"><ele>210.0</ele><time>2026-03-28T17:18:12.77Z</time></trkpt><trkpt lat="45.5705075" lon="10.5089826"><ele>210.0</ele><time>2026-03-28T17:18:13.769Z</time></trkpt><trkpt lat="45.5704228" lon="10.5088886"><ele>210.0</ele><time>2026-03-28T17:18:14.771Z</time></trkpt><trkpt lat="45.5703253" lon="10.5088238"><ele>210.0</ele><time>2026-03-28T17:18:15.77Z</time></trkpt><trkpt lat="45.570201" lon="10.508888"><ele>210.5</ele><time>2026-03-28T17:18:16.771Z</time></trkpt><trkpt lat="45.5700897" lon="10.5089595"><ele>211.0</ele><time>2026-03-28T17:18:17.77Z</time></trkpt><trkpt lat="45.5699746" lon="10.5090534"><ele>211.5</ele><time>2026-03-28T17:18:18.77Z</time></trkpt><trkpt lat="45.5698502" lon="10.5091216"><ele>212.0</ele><time>2026-03-28T17:18:19.77Z</time></trkpt><trkpt lat="45.5697212" lon="10.5091635"><ele>212.0</ele><time>2026-03-28T17:18:20.769Z</time></trkpt><trkpt lat="45.5695947" lon="10.5091992"><ele>212.0</ele><time>2026-03-28T17:18:21.77Z</time></trkpt><trkpt lat="45.5694743" lon="10.5092336"><ele>212.0</ele><time>2026-03-28T17:18:22.77Z</time></trkpt><trkpt lat="45.5693531" lon="10.5092682"><ele>212.0</ele><time>2026-03-28T17:18:23.77Z</time></trkpt><trkpt lat="45.5692333" lon="10.5093105"><ele>211.6</ele><time>2026-03-28T17:18:24.77Z</time></trkpt><trkpt lat="45.5691234" lon="10.5093846"><ele>211.2</ele><time>2026-03-28T17:18:25.77Z</time></trkpt><trkpt lat="45.569039" lon="10.5094793"><ele>210.8</ele><time>2026-03-28T17:18:26.769Z</time></trkpt><trkpt lat="45.5689715" lon="10.5095817"><ele>210.4</ele><time>2026-03-28T17:18:27.769Z</time></trkpt><trkpt lat="45.5689156" lon="10.5096993"><ele>210.0</ele><time>2026-03-28T17:18:28.771Z</time></trkpt><trkpt lat="45.5688706" lon="10.5098292"><ele>210.0</ele><time>2026-03-28T17:18:29.771Z</time></trkpt><trkpt lat="45.5688277" lon="10.5099579"><ele>210.0</ele><time>2026-03-28T17:18:30.769Z</time></trkpt><trkpt lat="45.5687857" lon="10.510077"><ele>210.0</ele><time>2026-03-28T17:18:31.771Z</time></trkpt><trkpt lat="45.5687343" lon="10.510176"><ele>210.0</ele><time>2026-03-28T17:18:32.769Z</time></trkpt><trkpt lat="45.5686679" lon="10.5102523"><ele>210.0</ele><time>2026-03-28T17:18:33.77Z</time></trkpt><trkpt lat="45.5685934" lon="10.5103049"><ele>210.0</ele><time>2026-03-28T17:18:34.771Z</time></trkpt><trkpt lat="45.5685094" lon="10.5103206"><ele>211.2</ele><time>2026-03-28T17:18:35.771Z</time></trkpt><trkpt lat="45.5684213" lon="10.5103016"><ele>212.4</ele><time>2026-03-28T17:18:36.77Z</time></trkpt><trkpt lat="45.5683365" lon="10.5102602"><ele>213.60000000000002</ele><time>2026-03-28T17:18:37.77Z</time></trkpt><trkpt lat="45.568252" lon="10.5102114"><ele>214.8</ele><time>2026-03-28T17:18:38.77Z</time></trkpt><trkpt lat="45.5681637" lon="10.5101615"><ele>216.0</ele><time>2026-03-28T17:18:39.769Z</time></trkpt><trkpt lat="45.5680665" lon="10.5101193"><ele>216.0</ele><time>2026-03-28T17:18:40.77Z</time></trkpt><trkpt lat="45.5679639" lon="10.5100919"><ele>216.00000000000003</ele><time>2026-03-28T17:18:41.77Z</time></trkpt><trkpt lat="45.5678562" lon="10.510075"><ele>216.00000000000003</ele><time>2026-03-28T17:18:42.771Z</time></trkpt><trkpt lat="45.5677478" lon="10.5100584"><ele>216.0</ele><time>2026-03-28T17:18:43.77Z</time></trkpt><trkpt lat="45.5676425" lon="10.5100375"><ele>216.0</ele><time>2026-03-28T17:18:44.77Z</time></trkpt><trkpt lat="45.5675314" lon="10.5100155"><ele>216.0</ele><time>2026-03-28T17:18:45.77Z</time></trkpt><trkpt lat="45.5674198" lon="10.5099935"><ele>216.0</ele><time>2026-03-28T17:18:46.77Z</time></trkpt><trkpt lat="45.5673072" lon="10.5099728"><ele>216.0</ele><time>2026-03-28T17:18:47.77Z</time></trkpt><trkpt lat="45.5671915" lon="10.5099612"><ele>216.0</ele><time>2026-03-28T17:18:48.77Z</time></trkpt><trkpt lat="45.5670818" lon="10.5099618"><ele>216.16666666666666</ele><time>2026-03-28T17:18:49.77Z</time></trkpt><trkpt lat="45.5669888" lon="10.509975"><ele>216.33333333333331</ele><time>2026-03-28T17:18:50.769Z</time></trkpt><trkpt lat="45.5669091" lon="10.5099908"><ele>216.5</ele><time>2026-03-28T17:18:51.77Z</time></trkpt><trkpt lat="45.5668413" lon="10.5100103"><ele>216.66666666666666</ele><time>2026-03-28T17:18:52.769Z</time></trkpt><trkpt lat="45.5667306" lon="10.5100466"><ele>216.83333333333331</ele><time>2026-03-28T17:18:54.771Z</time></trkpt><trkpt lat="45.566667" lon="10.5100719"><ele>217.0</ele><time>2026-03-28T17:18:55.769Z</time></trkpt><trkpt lat="45.56659" lon="10.5100973"><ele>216.99999999999997</ele><time>2026-03-28T17:18:56.771Z</time></trkpt><trkpt lat="45.5665116" lon="10.5101111"><ele>217.0</ele><time>2026-03-28T17:18:57.769Z</time></trkpt><trkpt lat="45.566433" lon="10.5101083"><ele>217.0</ele><time>2026-03-28T17:18:58.769Z</time></trkpt><trkpt lat="45.5663474" lon="10.510085"><ele>217.0</ele><time>2026-03-28T17:18:59.77Z</time></trkpt><trkpt lat="45.5662551" lon="10.5100618"><ele>216.99999999999997</ele><time>2026-03-28T17:19:00.77Z</time></trkpt><trkpt lat="45.5661563" lon="10.5100265"><ele>217.0</ele><time>2026-03-28T17:19:01.77Z</time></trkpt><trkpt lat="45.56605" lon="10.5099883"><ele>216.2</ele><time>2026-03-28T17:19:02.769Z</time></trkpt><trkpt lat="45.5659453" lon="10.5099536"><ele>215.39999999999998</ele><time>2026-03-28T17:19:03.77Z</time></trkpt><trkpt lat="45.5658411" lon="10.509919"><ele>214.60000000000002</ele><time>2026-03-28T17:19:04.771Z</time></trkpt><trkpt lat="45.5657353" lon="10.5098832"><ele>213.8</ele><time>2026-03-28T17:19:05.77Z</time></trkpt><trkpt lat="45.5656285" lon="10.5098438"><ele>213.0</ele><time>2026-03-28T17:19:06.77Z</time></trkpt><trkpt lat="45.5655278" lon="10.5097937"><ele>213.0</ele><time>2026-03-28T17:19:07.769Z</time></trkpt><trkpt lat="45.5654257" lon="10.5097372"><ele>213.0</ele><time>2026-03-28T17:19:08.77Z</time></trkpt><trkpt lat="45.5653275" lon="10.5096743"><ele>213.0</ele><time>2026-03-28T17:19:09.77Z</time></trkpt><trkpt lat="45.565234" lon="10.5096079"><ele>213.0</ele><time>2026-03-28T17:19:10.769Z</time></trkpt><trkpt lat="45.565141" lon="10.5095349"><ele>213.0</ele><time>2026-03-28T17:19:11.77Z</time></trkpt><trkpt lat="45.5650513" lon="10.5094659"><ele>214.33333333333334</ele><time>2026-03-28T17:19:12.77Z</time></trkpt><trkpt lat="45.5649649" lon="10.5093984"><ele>215.66666666666669</ele><time>2026-03-28T17:19:13.771Z</time></trkpt><trkpt lat="45.5648941" lon="10.5093429"><ele>217.0</ele><time>2026-03-28T17:19:14.77Z</time></trkpt><trkpt lat="45.5648366" lon="10.5092869"><ele>218.33333333333334</ele><time>2026-03-28T17:19:15.771Z</time></trkpt><trkpt lat="45.5647971" lon="10.5091197"><ele>219.66666666666669</ele><time>2026-03-28T17:19:17.771Z</time></trkpt><trkpt lat="45.5648304" lon="10.5090299"><ele>221.0</ele><time>2026-03-28T17:19:18.769Z</time></trkpt><trkpt lat="45.5648874" lon="10.5089849"><ele>221.0</ele><time>2026-03-28T17:19:19.771Z</time></trkpt><trkpt lat="45.5649631" lon="10.5089923"><ele>221.00000000000003</ele><time>2026-03-28T17:19:20.77Z</time></trkpt><trkpt lat="45.5650484" lon="10.5090426"><ele>221.00000000000003</ele><time>2026-03-28T17:19:21.77Z</time></trkpt><trkpt lat="45.5651496" lon="10.5091132"><ele>221.0</ele><time>2026-03-28T17:19:22.77Z</time></trkpt><trkpt lat="45.5652715" lon="10.5092086"><ele>221.0</ele><time>2026-03-28T17:19:23.771Z</time></trkpt><trkpt lat="45.5654085" lon="10.5093242"><ele>219.4</ele><time>2026-03-28T17:19:24.77Z</time></trkpt><trkpt lat="45.5655296" lon="10.509442"><ele>217.8</ele><time>2026-03-28T17:19:25.77Z</time></trkpt><trkpt lat="45.5656284" lon="10.5095369"><ele>216.20000000000002</ele><time>2026-03-28T17:19:26.771Z</time></trkpt><trkpt lat="45.5657194" lon="10.5095761"><ele>214.60000000000002</ele><time>2026-03-28T17:19:27.769Z</time></trkpt><trkpt lat="45.5658003" lon="10.509548"><ele>213.0</ele><time>2026-03-28T17:19:28.769Z</time></trkpt><trkpt lat="45.5658575" lon="10.5094721"><ele>216.0</ele><time>2026-03-28T17:19:29.771Z</time></trkpt><trkpt lat="45.5658884" lon="10.5093699"><ele>219.0</ele><time>2026-03-28T17:19:30.77Z</time></trkpt><trkpt lat="45.5658493" lon="10.5092758"><ele>222.0</ele><time>2026-03-28T17:19:31.769Z</time></trkpt><trkpt lat="45.5657921" lon="10.5091943"><ele>225.0</ele><time>2026-03-28T17:19:32.77Z</time></trkpt><trkpt lat="45.5657099" lon="10.5091181"><ele>228.0</ele><time>2026-03-28T17:19:33.769Z</time></trkpt><trkpt lat="45.5656221" lon="10.5090377"><ele>231.0</ele><time>2026-03-28T17:19:34.77Z</time></trkpt><trkpt lat="45.565532" lon="10.5089463"><ele>231.0</ele><time>2026-03-28T17:19:35.77Z</time></trkpt><trkpt lat="45.5654426" lon="10.508834"><ele>231.0</ele><time>2026-03-28T17:19:36.771Z</time></trkpt><trkpt lat="45.565368" lon="10.5087063"><ele>231.0</ele><time>2026-03-28T17:19:37.769Z</time></trkpt><trkpt lat="45.5653092" lon="10.508558"><ele>231.0</ele><time>2026-03-28T17:19:38.77Z</time></trkpt><trkpt lat="45.5652556" lon="10.5083998"><ele>231.75</ele><time>2026-03-28T17:19:39.77Z</time></trkpt><trkpt lat="45.5652099" lon="10.5082422"><ele>232.5</ele><time>2026-03-28T17:19:40.769Z</time></trkpt><trkpt lat="45.5651659" lon="10.5080822"><ele>233.25</ele><time>2026-03-28T17:19:41.77Z</time></trkpt><trkpt lat="45.565123" lon="10.5079209"><ele>234.0</ele><time>2026-03-28T17:19:42.769Z</time></trkpt><trkpt lat="45.565083" lon="10.5077598"><ele>234.0</ele><time>2026-03-28T17:19:43.77Z</time></trkpt><trkpt lat="45.5650457" lon="10.5076093"><ele>234.0</ele><time>2026-03-28T17:19:44.769Z</time></trkpt><trkpt lat="45.565002" lon="10.5074506"><ele>234.0</ele><time>2026-03-28T17:19:45.77Z</time></trkpt><trkpt lat="45.5649543" lon="10.5072669"><ele>234.0</ele><time>2026-03-28T17:19:46.771Z</time></trkpt><trkpt lat="45.5649151" lon="10.5070759"><ele>234.0</ele><time>2026-03-28T17:19:47.771Z</time></trkpt><trkpt lat="45.5648783" lon="10.5068841"><ele>234.0</ele><time>2026-03-28T17:19:48.769Z</time></trkpt><trkpt lat="45.5648369" lon="10.506693"><ele>234.0</ele><time>2026-03-28T17:19:49.769Z</time></trkpt><trkpt lat="45.5647949" lon="10.5065077"><ele>234.0</ele><time>2026-03-28T17:19:50.769Z</time></trkpt><trkpt lat="45.5647483" lon="10.5063218"><ele>234.0</ele><time>2026-03-28T17:19:51.77Z</time></trkpt><trkpt lat="45.564697" lon="10.5061339"><ele>234.0</ele><time>2026-03-28T17:19:52.771Z</time></trkpt><trkpt lat="45.5646411" lon="10.5059456"><ele>234.0</ele><time>2026-03-28T17:19:53.771Z</time></trkpt><trkpt lat="45.5645772" lon="10.5057654"><ele>234.0</ele><time>2026-03-28T17:19:54.771Z</time></trkpt><trkpt lat="45.564501" lon="10.505599"><ele>234.0</ele><time>2026-03-28T17:19:55.769Z</time></trkpt><trkpt lat="45.5644081" lon="10.505455"><ele>234.0</ele><time>2026-03-28T17:19:56.77Z</time></trkpt><trkpt lat="45.5642982" lon="10.505332"><ele>234.0</ele><time>2026-03-28T17:19:57.77Z</time></trkpt><trkpt lat="45.5641827" lon="10.5052214"><ele>234.0</ele><time>2026-03-28T17:19:58.769Z</time></trkpt><trkpt lat="45.5640675" lon="10.5051082"><ele>234.0</ele><time>2026-03-28T17:19:59.769Z</time></trkpt><trkpt lat="45.5639592" lon="10.5049911"><ele>234.0</ele><time>2026-03-28T17:20:00.77Z</time></trkpt><trkpt lat="45.5638576" lon="10.5048706"><ele>234.0</ele><time>2026-03-28T17:20:01.771Z</time></trkpt><trkpt lat="45.5637599" lon="10.5047348"><ele>234.0</ele><time>2026-03-28T17:20:02.77Z</time></trkpt><trkpt lat="45.5636615" lon="10.5045919"><ele>235.25</ele><time>2026-03-28T17:20:03.771Z</time></trkpt><trkpt lat="45.5635599" lon="10.5044487"><ele>236.5</ele><time>2026-03-28T17:20:04.771Z</time></trkpt><trkpt lat="45.5634543" lon="10.504304"><ele>237.75</ele><time>2026-03-28T17:20:05.769Z</time></trkpt><trkpt lat="45.5633478" lon="10.5041601"><ele>239.0</ele><time>2026-03-28T17:20:06.77Z</time></trkpt><trkpt lat="45.5632372" lon="10.5040184"><ele>239.0</ele><time>2026-03-28T17:20:07.769Z</time></trkpt><trkpt lat="45.5631233" lon="10.5038821"><ele>239.0</ele><time>2026-03-28T17:20:08.77Z</time></trkpt><trkpt lat="45.5630067" lon="10.5037504"><ele>239.0</ele><time>2026-03-28T17:20:09.77Z</time></trkpt><trkpt lat="45.5628891" lon="10.5036224"><ele>239.0</ele><time>2026-03-28T17:20:10.77Z</time></trkpt><trkpt lat="45.5627706" lon="10.5034985"><ele>239.33333333333334</ele><time>2026-03-28T17:20:11.77Z</time></trkpt><trkpt lat="45.562652" lon="10.5033733"><ele>239.66666666666669</ele><time>2026-03-28T17:20:12.771Z</time></trkpt><trkpt lat="45.5625313" lon="10.5032452"><ele>240.0</ele><time>2026-03-28T17:20:13.77Z</time></trkpt><trkpt lat="45.5624054" lon="10.5031183"><ele>240.0</ele><time>2026-03-28T17:20:14.77Z</time></trkpt><trkpt lat="45.5622822" lon="10.5030005"><ele>240.0</ele><time>2026-03-28T17:20:15.769Z</time></trkpt><trkpt lat="45.56216" lon="10.5028963"><ele>240.0</ele><time>2026-03-28T17:20:16.769Z</time></trkpt><trkpt lat="45.5620351" lon="10.5028065"><ele>240.0</ele><time>2026-03-28T17:20:17.77Z</time></trkpt><trkpt lat="45.5619051" lon="10.5027285"><ele>239.75</ele><time>2026-03-28T17:20:18.77Z</time></trkpt><trkpt lat="45.561774" lon="10.5026522"><ele>239.5</ele><time>2026-03-28T17:20:19.77Z</time></trkpt><trkpt lat="45.561641" lon="10.5025804"><ele>239.25</ele><time>2026-03-28T17:20:20.77Z</time></trkpt><trkpt lat="45.5615068" lon="10.5025417"><ele>239.0</ele><time>2026-03-28T17:20:21.771Z</time></trkpt><trkpt lat="45.5613646" lon="10.502552"><ele>239.0</ele><time>2026-03-28T17:20:22.77Z</time></trkpt><trkpt lat="45.561219" lon="10.5025952"><ele>239.0</ele><time>2026-03-28T17:20:23.769Z</time></trkpt><trkpt lat="45.5610801" lon="10.5026499"><ele>239.0</ele><time>2026-03-28T17:20:24.77Z</time></trkpt><trkpt lat="45.56096" lon="10.5028639"><ele>237.33333333333334</ele><time>2026-03-28T17:20:25.769Z</time></trkpt><trkpt lat="45.560846" lon="10.5030117"><ele>235.66666666666669</ele><time>2026-03-28T17:20:26.77Z</time></trkpt><trkpt lat="45.5607253" lon="10.5031604"><ele>234.0</ele><time>2026-03-28T17:20:27.77Z</time></trkpt><trkpt lat="45.5605874" lon="10.5032773"><ele>234.0</ele><time>2026-03-28T17:20:28.77Z</time></trkpt><trkpt lat="45.5604385" lon="10.503342"><ele>234.0</ele><time>2026-03-28T17:20:29.77Z</time></trkpt><trkpt lat="45.560276" lon="10.50336"><ele>234.0</ele><time>2026-03-28T17:20:30.769Z</time></trkpt><trkpt lat="45.560109" lon="10.5033401"><ele>234.0</ele><time>2026-03-28T17:20:31.77Z</time></trkpt><trkpt lat="45.5599408" lon="10.5033035"><ele>234.0</ele><time>2026-03-28T17:20:32.77Z</time></trkpt><trkpt lat="45.559776" lon="10.5032479"><ele>234.0</ele><time>2026-03-28T17:20:33.77Z</time></trkpt><trkpt lat="45.5596179" lon="10.5031551"><ele>233.66666666666669</ele><time>2026-03-28T17:20:34.77Z</time></trkpt><trkpt lat="45.5594721" lon="10.5030122"><ele>233.33333333333334</ele><time>2026-03-28T17:20:35.77Z</time></trkpt><trkpt lat="45.5593409" lon="10.5028318"><ele>233.0</ele><time>2026-03-28T17:20:36.769Z</time></trkpt><trkpt lat="45.5592187" lon="10.5026336"><ele>233.0</ele><time>2026-03-28T17:20:37.77Z</time></trkpt><trkpt lat="45.5590988" lon="10.5024341"><ele>233.0</ele><time>2026-03-28T17:20:38.77Z</time></trkpt><trkpt lat="45.5589835" lon="10.5022366"><ele>233.0</ele><time>2026-03-28T17:20:39.771Z</time></trkpt><trkpt lat="45.5588733" lon="10.5020551"><ele>232.75</ele><time>2026-03-28T17:20:40.77Z</time></trkpt><trkpt lat="45.5587752" lon="10.5018966"><ele>232.5</ele><time>2026-03-28T17:20:41.77Z</time></trkpt><trkpt lat="45.5586909" lon="10.5017643"><ele>232.25</ele><time>2026-03-28T17:20:42.77Z</time></trkpt><trkpt lat="45.55862" lon="10.5016608"><ele>232.0</ele><time>2026-03-28T17:20:43.77Z</time></trkpt><trkpt lat="45.5585651" lon="10.5015757"><ele>231.99999999999997</ele><time>2026-03-28T17:20:44.77Z</time></trkpt><trkpt lat="45.5585283" lon="10.5014614"><ele>232.0</ele><time>2026-03-28T17:20:46.77Z</time></trkpt><trkpt lat="45.5585695" lon="10.5013228"><ele>232.0</ele><time>2026-03-28T17:20:48.77Z</time></trkpt><trkpt lat="45.5586146" lon="10.5012415"><ele>232.0</ele><time>2026-03-28T17:20:49.769Z</time></trkpt><trkpt lat="45.5586783" lon="10.5011572"><ele>231.99999999999997</ele><time>2026-03-28T17:20:50.769Z</time></trkpt><trkpt lat="45.5587561" lon="10.5010766"><ele>232.0</ele><time>2026-03-28T17:20:51.769Z</time></trkpt><trkpt lat="45.5588309" lon="10.5009973"><ele>233.2</ele><time>2026-03-28T17:20:52.77Z</time></trkpt><trkpt lat="45.5589116" lon="10.5008913"><ele>234.39999999999998</ele><time>2026-03-28T17:20:53.77Z</time></trkpt><trkpt lat="45.5589937" lon="10.5007719"><ele>235.60000000000002</ele><time>2026-03-28T17:20:54.77Z</time></trkpt><trkpt lat="45.5590575" lon="10.5006494"><ele>236.8</ele><time>2026-03-28T17:20:55.769Z</time></trkpt><trkpt lat="45.5591249" lon="10.500525"><ele>238.0</ele><time>2026-03-28T17:20:56.77Z</time></trkpt><trkpt lat="45.559199" lon="10.5004059"><ele>238.0</ele><time>2026-03-28T17:20:57.771Z</time></trkpt><trkpt lat="45.5592668" lon="10.5002896"><ele>238.0</ele><time>2026-03-28T17:20:58.77Z</time></trkpt><trkpt lat="45.5593219" lon="10.5001666"><ele>238.0</ele><time>2026-03-28T17:20:59.77Z</time></trkpt><trkpt lat="45.5593673" lon="10.5000399"><ele>238.0</ele><time>2026-03-28T17:21:00.77Z</time></trkpt><trkpt lat="45.5593946" lon="10.4998726"><ele>238.0</ele><time>2026-03-28T17:21:01.77Z</time></trkpt><trkpt lat="45.5594143" lon="10.49973"><ele>237.99999999999997</ele><time>2026-03-28T17:21:02.77Z</time></trkpt><trkpt lat="45.5594274" lon="10.4996012"><ele>238.0</ele><time>2026-03-28T17:21:03.77Z</time></trkpt><trkpt lat="45.5594329" lon="10.4994971"><ele>238.0</ele><time>2026-03-28T17:21:04.77Z</time></trkpt><trkpt lat="45.5594257" lon="10.4993909"><ele>238.0</ele><time>2026-03-28T17:21:05.769Z</time></trkpt><trkpt lat="45.5593931" lon="10.4992916"><ele>237.99999999999997</ele><time>2026-03-28T17:21:06.77Z</time></trkpt><trkpt lat="45.5593378" lon="10.4991919"><ele>238.0</ele><time>2026-03-28T17:21:07.771Z</time></trkpt><trkpt lat="45.5592655" lon="10.4990825"><ele>238.4</ele><time>2026-03-28T17:21:08.769Z</time></trkpt><trkpt lat="45.5592018" lon="10.4989591"><ele>238.8</ele><time>2026-03-28T17:21:09.77Z</time></trkpt><trkpt lat="45.5591549" lon="10.4988583"><ele>239.2</ele><time>2026-03-28T17:21:10.771Z</time></trkpt><trkpt lat="45.5590892" lon="10.4987349"><ele>239.6</ele><time>2026-03-28T17:21:12.769Z</time></trkpt><trkpt lat="45.5590467" lon="10.4986557"><ele>240.0</ele><time>2026-03-28T17:21:13.77Z</time></trkpt><trkpt lat="45.5589848" lon="10.4985603"><ele>241.4</ele><time>2026-03-28T17:21:14.77Z</time></trkpt><trkpt lat="45.5589136" lon="10.4984469"><ele>242.8</ele><time>2026-03-28T17:21:15.77Z</time></trkpt><trkpt lat="45.5588362" lon="10.4983224"><ele>244.2</ele><time>2026-03-28T17:21:16.769Z</time></trkpt><trkpt lat="45.5587741" lon="10.4982002"><ele>245.6</ele><time>2026-03-28T17:21:17.77Z</time></trkpt><trkpt lat="45.5587329" lon="10.4980876"><ele>247.0</ele><time>2026-03-28T17:21:18.77Z</time></trkpt><trkpt lat="45.5587018" lon="10.4979647"><ele>246.8</ele><time>2026-03-28T17:21:19.77Z</time></trkpt><trkpt lat="45.5586855" lon="10.4978488"><ele>246.6</ele><time>2026-03-28T17:21:20.769Z</time></trkpt><trkpt lat="45.5586819" lon="10.4977143"><ele>246.40000000000003</ele><time>2026-03-28T17:21:21.769Z</time></trkpt><trkpt lat="45.5586829" lon="10.4975573"><ele>246.20000000000002</ele><time>2026-03-28T17:21:22.77Z</time></trkpt><trkpt lat="45.5586797" lon="10.497386"><ele>246.0</ele><time>2026-03-28T17:21:23.77Z</time></trkpt><trkpt lat="45.5586621" lon="10.4971985"><ele>247.4</ele><time>2026-03-28T17:21:24.769Z</time></trkpt><trkpt lat="45.5586347" lon="10.4970094"><ele>248.8</ele><time>2026-03-28T17:21:25.769Z</time></trkpt><trkpt lat="45.5586064" lon="10.496841"><ele>250.20000000000002</ele><time>2026-03-28T17:21:26.769Z</time></trkpt><trkpt lat="45.5585845" lon="10.4967012"><ele>251.60000000000002</ele><time>2026-03-28T17:21:27.769Z</time></trkpt><trkpt lat="45.5585553" lon="10.4965895"><ele>253.0</ele><time>2026-03-28T17:21:28.77Z</time></trkpt><trkpt lat="45.5584966" lon="10.4964678"><ele>253.0</ele><time>2026-03-28T17:21:29.769Z</time></trkpt><trkpt lat="45.5584182" lon="10.4963315"><ele>253.0</ele><time>2026-03-28T17:21:30.77Z</time></trkpt><trkpt lat="45.5583192" lon="10.4962068"><ele>253.0</ele><time>2026-03-28T17:21:31.769Z</time></trkpt><trkpt lat="45.5582277" lon="10.4961181"><ele>253.0</ele><time>2026-03-28T17:21:32.769Z</time></trkpt><trkpt lat="45.5581463" lon="10.496065"><ele>253.99999999999997</ele><time>2026-03-28T17:21:33.77Z</time></trkpt><trkpt lat="45.5580866" lon="10.4960151"><ele>255.0</ele><time>2026-03-28T17:21:34.77Z</time></trkpt><trkpt lat="45.5580218" lon="10.4959568"><ele>256.0</ele><time>2026-03-28T17:21:35.77Z</time></trkpt><trkpt lat="45.5579708" lon="10.4958702"><ele>257.0</ele><time>2026-03-28T17:21:36.769Z</time></trkpt><trkpt lat="45.5579055" lon="10.4957195"><ele>258.0</ele><time>2026-03-28T17:21:38.77Z</time></trkpt><trkpt lat="45.5578789" lon="10.4956136"><ele>259.0</ele><time>2026-03-28T17:21:39.769Z</time></trkpt><trkpt lat="45.5578584" lon="10.4955018"><ele>259.5</ele><time>2026-03-28T17:21:40.771Z</time></trkpt><trkpt lat="45.5577988" lon="10.495374"><ele>260.0</ele><time>2026-03-28T17:21:41.77Z</time></trkpt><trkpt lat="45.5577334" lon="10.4952331"><ele>260.5</ele><time>2026-03-28T17:21:42.771Z</time></trkpt><trkpt lat="45.5576592" lon="10.4950959"><ele>261.0</ele><time>2026-03-28T17:21:43.77Z</time></trkpt><trkpt lat="45.5575832" lon="10.4949388"><ele>261.0</ele><time>2026-03-28T17:21:44.771Z</time></trkpt><trkpt lat="45.5575065" lon="10.4947895"><ele>261.0</ele><time>2026-03-28T17:21:45.769Z</time></trkpt><trkpt lat="45.5574364" lon="10.4946514"><ele>261.0</ele><time>2026-03-28T17:21:46.77Z</time></trkpt><trkpt lat="45.5573842" lon="10.4945232"><ele>261.0</ele><time>2026-03-28T17:21:47.77Z</time></trkpt><trkpt lat="45.5573385" lon="10.4943997"><ele>262.40000000000003</ele><time>2026-03-28T17:21:48.769Z</time></trkpt><trkpt lat="45.5572967" lon="10.4942876"><ele>263.8</ele><time>2026-03-28T17:21:49.77Z</time></trkpt><trkpt lat="45.5572627" lon="10.494162"><ele>265.20000000000005</ele><time>2026-03-28T17:21:50.77Z</time></trkpt><trkpt lat="45.5572288" lon="10.4940232"><ele>266.6</ele><time>2026-03-28T17:21:51.771Z</time></trkpt><trkpt lat="45.5571841" lon="10.4938825"><ele>268.0</ele><time>2026-03-28T17:21:52.77Z</time></trkpt><trkpt lat="45.5571307" lon="10.4937567"><ele>268.5</ele><time>2026-03-28T17:21:53.769Z</time></trkpt><trkpt lat="45.5570738" lon="10.4936344"><ele>269.0</ele><time>2026-03-28T17:21:54.769Z</time></trkpt><trkpt lat="45.5570345" lon="10.4935315"><ele>269.5</ele><time>2026-03-28T17:21:55.769Z</time></trkpt><trkpt lat="45.5570141" lon="10.4934335"><ele>270.0</ele><time>2026-03-28T17:21:56.771Z</time></trkpt><trkpt lat="45.5570113" lon="10.4933277"><ele>270.5</ele><time>2026-03-28T17:21:57.77Z</time></trkpt><trkpt lat="45.5570117" lon="10.4932093"><ele>271.0</ele><time>2026-03-28T17:21:58.77Z</time></trkpt><trkpt lat="45.5569901" lon="10.4931028"><ele>269.8333333333333</ele><time>2026-03-28T17:21:59.771Z</time></trkpt><trkpt lat="45.5569479" lon="10.493"><ele>268.66666666666663</ele><time>2026-03-28T17:22:00.769Z</time></trkpt><trkpt lat="45.5568947" lon="10.4929076"><ele>267.5</ele><time>2026-03-28T17:22:01.769Z</time></trkpt><trkpt lat="45.5568455" lon="10.4928209"><ele>266.3333333333333</ele><time>2026-03-28T17:22:02.77Z</time></trkpt><trkpt lat="45.5568249" lon="10.4927239"><ele>265.1666666666667</ele><time>2026-03-28T17:22:04.77Z</time></trkpt><trkpt lat="45.5569293" lon="10.4927519"><ele>264.0</ele><time>2026-03-28T17:22:07.77Z</time></trkpt><trkpt lat="45.5570139" lon="10.4927911"><ele>265.1666666666667</ele><time>2026-03-28T17:22:08.77Z</time></trkpt><trkpt lat="45.5571014" lon="10.4928277"><ele>266.3333333333333</ele><time>2026-03-28T17:22:09.77Z</time></trkpt><trkpt lat="45.5571896" lon="10.4928623"><ele>267.5</ele><time>2026-03-28T17:22:10.77Z</time></trkpt><trkpt lat="45.5572836" lon="10.4928917"><ele>268.66666666666663</ele><time>2026-03-28T17:22:11.771Z</time></trkpt><trkpt lat="45.5573659" lon="10.4929297"><ele>269.8333333333333</ele><time>2026-03-28T17:22:12.77Z</time></trkpt><trkpt lat="45.5574184" lon="10.4929884"><ele>271.0</ele><time>2026-03-28T17:22:13.769Z</time></trkpt><trkpt lat="45.5574591" lon="10.4930828"><ele>271.0</ele><time>2026-03-28T17:22:14.769Z</time></trkpt><trkpt lat="45.5574946" lon="10.4931845"><ele>271.0</ele><time>2026-03-28T17:22:15.771Z</time></trkpt><trkpt lat="45.5574942" lon="10.4933497"><ele>271.0</ele><time>2026-03-28T17:22:16.769Z</time></trkpt><trkpt lat="45.5575253" lon="10.4935083"><ele>271.0</ele><time>2026-03-28T17:22:17.771Z</time></trkpt><trkpt lat="45.5575573" lon="10.4936743"><ele>271.0</ele><time>2026-03-28T17:22:18.77Z</time></trkpt><trkpt lat="45.5575782" lon="10.4938476"><ele>270.25</ele><time>2026-03-28T17:22:19.77Z</time></trkpt><trkpt lat="45.5576093" lon="10.4940039"><ele>269.5</ele><time>2026-03-28T17:22:20.769Z</time></trkpt><trkpt lat="45.5576596" lon="10.4941555"><ele>268.75</ele><time>2026-03-28T17:22:21.77Z</time></trkpt><trkpt lat="45.5577269" lon="10.4942967"><ele>268.0</ele><time>2026-03-28T17:22:22.769Z</time></trkpt><trkpt lat="45.5578133" lon="10.4944346"><ele>269.6</ele><time>2026-03-28T17:22:23.77Z</time></trkpt><trkpt lat="45.5578953" lon="10.4945578"><ele>271.20000000000005</ele><time>2026-03-28T17:22:24.769Z</time></trkpt><trkpt lat="45.5579669" lon="10.4946542"><ele>272.8</ele><time>2026-03-28T17:22:25.77Z</time></trkpt><trkpt lat="45.5580379" lon="10.494707"><ele>274.40000000000003</ele><time>2026-03-28T17:22:26.77Z</time></trkpt><trkpt lat="45.5581216" lon="10.4947208"><ele>276.0</ele><time>2026-03-28T17:22:27.769Z</time></trkpt><trkpt lat="45.5582221" lon="10.494703"><ele>276.0</ele><time>2026-03-28T17:22:28.77Z</time></trkpt><trkpt lat="45.5583458" lon="10.4946785"><ele>276.0</ele><time>2026-03-28T17:22:29.77Z</time></trkpt><trkpt lat="45.5584732" lon="10.4946595"><ele>276.0</ele><time>2026-03-28T17:22:30.77Z</time></trkpt><trkpt lat="45.5586116" lon="10.4946374"><ele>276.0</ele><time>2026-03-28T17:22:31.771Z</time></trkpt><trkpt lat="45.5587478" lon="10.4946133"><ele>278.25</ele><time>2026-03-28T17:22:32.77Z</time></trkpt><trkpt lat="45.5588853" lon="10.4945977"><ele>280.5</ele><time>2026-03-28T17:22:33.77Z</time></trkpt><trkpt lat="45.5590153" lon="10.4945953"><ele>282.75</ele><time>2026-03-28T17:22:34.77Z</time></trkpt><trkpt lat="45.5591265" lon="10.4945906"><ele>285.0</ele><time>2026-03-28T17:22:35.771Z</time></trkpt><trkpt lat="45.5592253" lon="10.4945761"><ele>284.4</ele><time>2026-03-28T17:22:36.77Z</time></trkpt><trkpt lat="45.5593217" lon="10.4945466"><ele>283.8</ele><time>2026-03-28T17:22:37.77Z</time></trkpt><trkpt lat="45.5594286" lon="10.4945059"><ele>283.2</ele><time>2026-03-28T17:22:38.77Z</time></trkpt><trkpt lat="45.5595411" lon="10.494469"><ele>282.6</ele><time>2026-03-28T17:22:39.77Z</time></trkpt><trkpt lat="45.5596511" lon="10.4944447"><ele>282.0</ele><time>2026-03-28T17:22:40.77Z</time></trkpt><trkpt lat="45.5597495" lon="10.4944335"><ele>282.0</ele><time>2026-03-28T17:22:41.77Z</time></trkpt><trkpt lat="45.5598324" lon="10.4944313"><ele>282.0</ele><time>2026-03-28T17:22:42.77Z</time></trkpt><trkpt lat="45.5598961" lon="10.4944208"><ele>282.0</ele><time>2026-03-28T17:22:43.77Z</time></trkpt><trkpt lat="45.5599497" lon="10.4943731"><ele>282.0</ele><time>2026-03-28T17:22:44.769Z</time></trkpt><trkpt lat="45.5600027" lon="10.4942925"><ele>282.0</ele><time>2026-03-28T17:22:45.769Z</time></trkpt><trkpt lat="45.5600258" lon="10.4941965"><ele>282.0</ele><time>2026-03-28T17:22:46.771Z</time></trkpt><trkpt lat="45.5600292" lon="10.4940655"><ele>282.0</ele><time>2026-03-28T17:22:47.77Z</time></trkpt><trkpt lat="45.5600284" lon="10.493912"><ele>282.0</ele><time>2026-03-28T17:22:48.771Z</time></trkpt><trkpt lat="45.5600425" lon="10.4937388"><ele>282.0</ele><time>2026-03-28T17:22:49.77Z</time></trkpt><trkpt lat="45.5600709" lon="10.4935788"><ele>282.0</ele><time>2026-03-28T17:22:50.77Z</time></trkpt><trkpt lat="45.5601128" lon="10.4934302"><ele>281.75</ele><time>2026-03-28T17:22:51.771Z</time></trkpt><trkpt lat="45.5601703" lon="10.4932928"><ele>281.5</ele><time>2026-03-28T17:22:52.771Z</time></trkpt><trkpt lat="45.5602442" lon="10.4931531"><ele>281.25</ele><time>2026-03-28T17:22:53.77Z</time></trkpt><trkpt lat="45.5603205" lon="10.4930236"><ele>281.0</ele><time>2026-03-28T17:22:54.77Z</time></trkpt><trkpt lat="45.5603887" lon="10.4928917"><ele>279.5</ele><time>2026-03-28T17:22:55.77Z</time></trkpt><trkpt lat="45.5604473" lon="10.492748"><ele>278.0</ele><time>2026-03-28T17:22:56.77Z</time></trkpt><trkpt lat="45.5605227" lon="10.4926187"><ele>276.5</ele><time>2026-03-28T17:22:57.769Z</time></trkpt><trkpt lat="45.5606104" lon="10.4924931"><ele>275.0</ele><time>2026-03-28T17:22:58.77Z</time></trkpt><trkpt lat="45.5607047" lon="10.492373"><ele>275.0</ele><time>2026-03-28T17:22:59.77Z</time></trkpt><trkpt lat="45.560804" lon="10.4922477"><ele>275.0</ele><time>2026-03-28T17:23:00.769Z</time></trkpt><trkpt lat="45.5608933" lon="10.4921391"><ele>275.0</ele><time>2026-03-28T17:23:01.77Z</time></trkpt><trkpt lat="45.560959" lon="10.4920391"><ele>275.0</ele><time>2026-03-28T17:23:02.771Z</time></trkpt><trkpt lat="45.5610147" lon="10.491916"><ele>275.0</ele><time>2026-03-28T17:23:03.769Z</time></trkpt><trkpt lat="45.5610738" lon="10.4918121"><ele>275.5</ele><time>2026-03-28T17:23:04.77Z</time></trkpt><trkpt lat="45.5611483" lon="10.4917277"><ele>276.0</ele><time>2026-03-28T17:23:05.769Z</time></trkpt><trkpt lat="45.561249" lon="10.4916514"><ele>276.5</ele><time>2026-03-28T17:23:06.77Z</time></trkpt><trkpt lat="45.5613627" lon="10.491585"><ele>277.0</ele><time>2026-03-28T17:23:07.77Z</time></trkpt><trkpt lat="45.5614865" lon="10.4915393"><ele>279.0</ele><time>2026-03-28T17:23:08.77Z</time></trkpt><trkpt lat="45.5616106" lon="10.4914994"><ele>281.0</ele><time>2026-03-28T17:23:09.769Z</time></trkpt><trkpt lat="45.5617338" lon="10.4914733"><ele>283.0</ele><time>2026-03-28T17:23:10.769Z</time></trkpt><trkpt lat="45.5618569" lon="10.491449"><ele>285.0</ele><time>2026-03-28T17:23:11.77Z</time></trkpt><trkpt lat="45.5619798" lon="10.4914276"><ele>286.25</ele><time>2026-03-28T17:23:12.77Z</time></trkpt><trkpt lat="45.562107" lon="10.4913802"><ele>287.5</ele><time>2026-03-28T17:23:13.771Z</time></trkpt><trkpt lat="45.5622402" lon="10.4913464"><ele>288.75</ele><time>2026-03-28T17:23:14.77Z</time></trkpt><trkpt lat="45.5623682" lon="10.4912998"><ele>290.0</ele><time>2026-03-28T17:23:15.77Z</time></trkpt><trkpt lat="45.5624892" lon="10.4912421"><ele>290.0</ele><time>2026-03-28T17:23:16.77Z</time></trkpt><trkpt lat="45.5625979" lon="10.4911991"><ele>290.0</ele><time>2026-03-28T17:23:17.771Z</time></trkpt><trkpt lat="45.5626903" lon="10.4911709"><ele>290.0</ele><time>2026-03-28T17:23:18.77Z</time></trkpt><trkpt lat="45.5627583" lon="10.4911564"><ele>290.0</ele><time>2026-03-28T17:23:19.77Z</time></trkpt><trkpt lat="45.5628907" lon="10.4911042"><ele>290.0</ele><time>2026-03-28T17:23:21.77Z</time></trkpt><trkpt lat="45.5629775" lon="10.49107"><ele>290.4</ele><time>2026-03-28T17:23:22.769Z</time></trkpt><trkpt lat="45.5630754" lon="10.4909855"><ele>290.8</ele><time>2026-03-28T17:23:23.771Z</time></trkpt><trkpt lat="45.5631837" lon="10.4909298"><ele>291.2</ele><time>2026-03-28T17:23:24.77Z</time></trkpt><trkpt lat="45.5632781" lon="10.4908805"><ele>291.6</ele><time>2026-03-28T17:23:25.77Z</time></trkpt><trkpt lat="45.5633701" lon="10.4908312"><ele>292.0</ele><time>2026-03-28T17:23:26.771Z</time></trkpt><trkpt lat="45.5634798" lon="10.4907761"><ele>292.0</ele><time>2026-03-28T17:23:28.77Z</time></trkpt><trkpt lat="45.5635672" lon="10.4907978"><ele>292.0</ele><time>2026-03-28T17:23:29.769Z</time></trkpt><trkpt lat="45.5636673" lon="10.4908009"><ele>292.0</ele><time>2026-03-28T17:23:30.771Z</time></trkpt><trkpt lat="45.5637711" lon="10.4908183"><ele>292.0</ele><time>2026-03-28T17:23:31.771Z</time></trkpt><trkpt lat="45.5638803" lon="10.4908371"><ele>292.0</ele><time>2026-03-28T17:23:32.769Z</time></trkpt><trkpt lat="45.5639846" lon="10.4908671"><ele>292.6</ele><time>2026-03-28T17:23:33.769Z</time></trkpt><trkpt lat="45.5640591" lon="10.4908877"><ele>293.2</ele><time>2026-03-28T17:23:34.77Z</time></trkpt><trkpt lat="45.5641527" lon="10.4908752"><ele>293.8</ele><time>2026-03-28T17:23:36.77Z</time></trkpt><trkpt lat="45.5642245" lon="10.4907349"><ele>294.4</ele><time>2026-03-28T17:23:38.769Z</time></trkpt><trkpt lat="45.5642626" lon="10.4906109"><ele>295.0</ele><time>2026-03-28T17:23:39.77Z</time></trkpt><trkpt lat="45.5643159" lon="10.4904616"><ele>294.0</ele><time>2026-03-28T17:23:40.77Z</time></trkpt><trkpt lat="45.5643809" lon="10.4903112"><ele>293.0</ele><time>2026-03-28T17:23:41.769Z</time></trkpt><trkpt lat="45.5644452" lon="10.4901645"><ele>292.0</ele><time>2026-03-28T17:23:42.769Z</time></trkpt><trkpt lat="45.5645045" lon="10.4900227"><ele>291.0</ele><time>2026-03-28T17:23:43.769Z</time></trkpt><trkpt lat="45.5645715" lon="10.4898958"><ele>291.0</ele><time>2026-03-28T17:23:44.769Z</time></trkpt><trkpt lat="45.564651" lon="10.489777"><ele>291.0</ele><time>2026-03-28T17:23:45.771Z</time></trkpt><trkpt lat="45.5647385" lon="10.4896762"><ele>291.0</ele><time>2026-03-28T17:23:46.771Z</time></trkpt><trkpt lat="45.5648297" lon="10.4895787"><ele>291.0</ele><time>2026-03-28T17:23:47.77Z</time></trkpt><trkpt lat="45.5649241" lon="10.4894759"><ele>290.5</ele><time>2026-03-28T17:23:48.77Z</time></trkpt><trkpt lat="45.5650191" lon="10.4893673"><ele>290.0</ele><time>2026-03-28T17:23:49.77Z</time></trkpt><trkpt lat="45.5651199" lon="10.4892633"><ele>289.5</ele><time>2026-03-28T17:23:50.77Z</time></trkpt><trkpt lat="45.5652164" lon="10.4891834"><ele>289.0</ele><time>2026-03-28T17:23:51.769Z</time></trkpt><trkpt lat="45.565304" lon="10.4891178"><ele>289.16666666666663</ele><time>2026-03-28T17:23:52.769Z</time></trkpt><trkpt lat="45.5653748" lon="10.4890724"><ele>289.3333333333333</ele><time>2026-03-28T17:23:53.769Z</time></trkpt><trkpt lat="45.5654672" lon="10.4890197"><ele>289.5</ele><time>2026-03-28T17:23:55.77Z</time></trkpt><trkpt lat="45.5655346" lon="10.4891036"><ele>289.6666666666667</ele><time>2026-03-28T17:23:58.77Z</time></trkpt><trkpt lat="45.5655824" lon="10.4891707"><ele>289.83333333333337</ele><time>2026-03-28T17:23:59.77Z</time></trkpt><trkpt lat="45.5656369" lon="10.4892618"><ele>290.0</ele><time>2026-03-28T17:24:00.771Z</time></trkpt><trkpt lat="45.5656976" lon="10.4893715"><ele>290.0</ele><time>2026-03-28T17:24:01.77Z</time></trkpt><trkpt lat="45.5657648" lon="10.4894957"><ele>290.0</ele><time>2026-03-28T17:24:02.769Z</time></trkpt><trkpt lat="45.5658302" lon="10.4896385"><ele>290.0</ele><time>2026-03-28T17:24:03.769Z</time></trkpt><trkpt lat="45.5658982" lon="10.4897834"><ele>290.0</ele><time>2026-03-28T17:24:04.769Z</time></trkpt><trkpt lat="45.5659574" lon="10.4899023"><ele>290.6</ele><time>2026-03-28T17:24:05.769Z</time></trkpt><trkpt lat="45.5660045" lon="10.4900301"><ele>291.2</ele><time>2026-03-28T17:24:06.769Z</time></trkpt><trkpt lat="45.5660449" lon="10.4901639"><ele>291.8</ele><time>2026-03-28T17:24:07.77Z</time></trkpt><trkpt lat="45.5660888" lon="10.4902981"><ele>292.4</ele><time>2026-03-28T17:24:08.77Z</time></trkpt><trkpt lat="45.566121" lon="10.4904335"><ele>293.0</ele><time>2026-03-28T17:24:09.769Z</time></trkpt><trkpt lat="45.5661645" lon="10.4905665"><ele>293.2</ele><time>2026-03-28T17:24:10.77Z</time></trkpt><trkpt lat="45.5662329" lon="10.4906854"><ele>293.4</ele><time>2026-03-28T17:24:11.77Z</time></trkpt><trkpt lat="45.5663121" lon="10.4908029"><ele>293.59999999999997</ele><time>2026-03-28T17:24:12.77Z</time></trkpt><trkpt lat="45.5663854" lon="10.4909165"><ele>293.8</ele><time>2026-03-28T17:24:13.77Z</time></trkpt><trkpt lat="45.5664598" lon="10.4910057"><ele>294.0</ele><time>2026-03-28T17:24:14.769Z</time></trkpt><trkpt lat="45.5665547" lon="10.4910794"><ele>294.0</ele><time>2026-03-28T17:24:15.771Z</time></trkpt><trkpt lat="45.566658" lon="10.4911487"><ele>294.0</ele><time>2026-03-28T17:24:16.769Z</time></trkpt><trkpt lat="45.5667607" lon="10.4912007"><ele>294.0</ele><time>2026-03-28T17:24:17.769Z</time></trkpt><trkpt lat="45.5668764" lon="10.4912381"><ele>294.0</ele><time>2026-03-28T17:24:18.769Z</time></trkpt><trkpt lat="45.5669936" lon="10.4912595"><ele>294.59999999999997</ele><time>2026-03-28T17:24:19.769Z</time></trkpt><trkpt lat="45.5671087" lon="10.4912548"><ele>295.2</ele><time>2026-03-28T17:24:20.77Z</time></trkpt><trkpt lat="45.5672136" lon="10.491244"><ele>295.79999999999995</ele><time>2026-03-28T17:24:21.77Z</time></trkpt><trkpt lat="45.5673073" lon="10.4912474"><ele>296.4</ele><time>2026-03-28T17:24:22.769Z</time></trkpt><trkpt lat="45.5673756" lon="10.4912647"><ele>297.0</ele><time>2026-03-28T17:24:23.77Z</time></trkpt><trkpt lat="45.56745" lon="10.4913266"><ele>297.0</ele><time>2026-03-28T17:24:25.769Z</time></trkpt><trkpt lat="45.56749" lon="10.4914552"><ele>297.0</ele><time>2026-03-28T17:24:27.771Z</time></trkpt><trkpt lat="45.5675115" lon="10.4915609"><ele>297.0</ele><time>2026-03-28T17:24:28.77Z</time></trkpt><trkpt lat="45.5675528" lon="10.4916905"><ele>297.0</ele><time>2026-03-28T17:24:29.771Z</time></trkpt><trkpt lat="45.5676043" lon="10.4918042"><ele>297.0</ele><time>2026-03-28T17:24:30.77Z</time></trkpt><trkpt lat="45.5676594" lon="10.4918975"><ele>297.0</ele><time>2026-03-28T17:24:31.77Z</time></trkpt><trkpt lat="45.5677281" lon="10.4919861"><ele>297.0</ele><time>2026-03-28T17:24:32.769Z</time></trkpt><trkpt lat="45.5677931" lon="10.4920621"><ele>297.0</ele><time>2026-03-28T17:24:33.771Z</time></trkpt><trkpt lat="45.5678587" lon="10.4921292"><ele>297.0</ele><time>2026-03-28T17:24:34.771Z</time></trkpt><trkpt lat="45.5678897" lon="10.492272"><ele>297.0</ele><time>2026-03-28T17:24:36.77Z</time></trkpt><trkpt lat="45.5678982" lon="10.4923708"><ele>297.0</ele><time>2026-03-28T17:24:37.77Z</time></trkpt><trkpt lat="45.5678798" lon="10.4925154"><ele>296.8</ele><time>2026-03-28T17:24:38.771Z</time></trkpt><trkpt lat="45.5678686" lon="10.492672"><ele>296.6</ele><time>2026-03-28T17:24:39.769Z</time></trkpt><trkpt lat="45.5678681" lon="10.4928346"><ele>296.40000000000003</ele><time>2026-03-28T17:24:40.769Z</time></trkpt><trkpt lat="45.5678486" lon="10.4929905"><ele>296.2</ele><time>2026-03-28T17:24:41.77Z</time></trkpt><trkpt lat="45.5678383" lon="10.4931522"><ele>296.0</ele><time>2026-03-28T17:24:42.77Z</time></trkpt><trkpt lat="45.5678222" lon="10.4933009"><ele>296.0</ele><time>2026-03-28T17:24:43.771Z</time></trkpt><trkpt lat="45.5677902" lon="10.4934152"><ele>296.0</ele><time>2026-03-28T17:24:44.771Z</time></trkpt><trkpt lat="45.5677565" lon="10.4935336"><ele>296.0</ele><time>2026-03-28T17:24:45.771Z</time></trkpt><trkpt lat="45.5677168" lon="10.493643"><ele>296.0</ele><time>2026-03-28T17:24:46.769Z</time></trkpt><trkpt lat="45.5677033" lon="10.4937455"><ele>296.0</ele><time>2026-03-28T17:24:47.77Z</time></trkpt><trkpt lat="45.567706" lon="10.4938635"><ele>296.0</ele><time>2026-03-28T17:24:48.769Z</time></trkpt><trkpt lat="45.5677133" lon="10.4940005"><ele>295.8</ele><time>2026-03-28T17:24:49.77Z</time></trkpt><trkpt lat="45.5677472" lon="10.494136"><ele>295.6</ele><time>2026-03-28T17:24:50.771Z</time></trkpt><trkpt lat="45.5677555" lon="10.4942714"><ele>295.4</ele><time>2026-03-28T17:24:51.77Z</time></trkpt><trkpt lat="45.5677664" lon="10.4944226"><ele>295.2</ele><time>2026-03-28T17:24:52.769Z</time></trkpt><trkpt lat="45.5677579" lon="10.4945735"><ele>295.0</ele><time>2026-03-28T17:24:53.77Z</time></trkpt><trkpt lat="45.5677397" lon="10.4947355"><ele>293.0</ele><time>2026-03-28T17:24:54.77Z</time></trkpt><trkpt lat="45.5677037" lon="10.4949041"><ele>291.0</ele><time>2026-03-28T17:24:55.769Z</time></trkpt><trkpt lat="45.5676627" lon="10.4950689"><ele>289.0</ele><time>2026-03-28T17:24:56.77Z</time></trkpt><trkpt lat="45.5676268" lon="10.4952177"><ele>287.0</ele><time>2026-03-28T17:24:57.769Z</time></trkpt><trkpt lat="45.5675956" lon="10.4953768"><ele>285.2</ele><time>2026-03-28T17:24:58.771Z</time></trkpt><trkpt lat="45.5675595" lon="10.4955373"><ele>283.4</ele><time>2026-03-28T17:24:59.77Z</time></trkpt><trkpt lat="45.5675576" lon="10.4956823"><ele>281.6</ele><time>2026-03-28T17:25:00.769Z</time></trkpt><trkpt lat="45.5675591" lon="10.4958372"><ele>279.8</ele><time>2026-03-28T17:25:01.769Z</time></trkpt><trkpt lat="45.5675694" lon="10.4959657"><ele>278.0</ele><time>2026-03-28T17:25:02.769Z</time></trkpt><trkpt lat="45.5675758" lon="10.4960764"><ele>278.0</ele><time>2026-03-28T17:25:03.771Z</time></trkpt><trkpt lat="45.5676505" lon="10.4961431"><ele>278.0</ele><time>2026-03-28T17:25:06.771Z</time></trkpt><trkpt lat="45.5677788" lon="10.4960948"><ele>278.0</ele><time>2026-03-28T17:25:08.77Z</time></trkpt><trkpt lat="45.5678531" lon="10.4960556"><ele>278.0</ele><time>2026-03-28T17:25:09.769Z</time></trkpt><trkpt lat="45.567933" lon="10.4960115"><ele>278.0</ele><time>2026-03-28T17:25:10.77Z</time></trkpt><trkpt lat="45.568016" lon="10.4959564"><ele>278.8</ele><time>2026-03-28T17:25:11.771Z</time></trkpt><trkpt lat="45.568082" lon="10.4959057"><ele>279.6</ele><time>2026-03-28T17:25:12.77Z</time></trkpt><trkpt lat="45.5681439" lon="10.495843"><ele>280.4</ele><time>2026-03-28T17:25:13.769Z</time></trkpt><trkpt lat="45.5681798" lon="10.4956976"><ele>281.2</ele><time>2026-03-28T17:25:14.771Z</time></trkpt><trkpt lat="45.5682266" lon="10.4955563"><ele>282.0</ele><time>2026-03-28T17:25:15.77Z</time></trkpt><trkpt lat="45.5682762" lon="10.4953993"><ele>282.0</ele><time>2026-03-28T17:25:16.77Z</time></trkpt><trkpt lat="45.5683236" lon="10.4952255"><ele>282.0</ele><time>2026-03-28T17:25:17.77Z</time></trkpt><trkpt lat="45.568368" lon="10.4950721"><ele>282.0</ele><time>2026-03-28T17:25:18.769Z</time></trkpt><trkpt lat="45.5684079" lon="10.4949639"><ele>282.0</ele><time>2026-03-28T17:25:19.77Z</time></trkpt><trkpt lat="45.5684595" lon="10.4948894"><ele>282.0</ele><time>2026-03-28T17:25:20.77Z</time></trkpt><trkpt lat="45.5685315" lon="10.4948367"><ele>282.0</ele><time>2026-03-28T17:25:21.771Z</time></trkpt><trkpt lat="45.5686231" lon="10.4947873"><ele>282.0</ele><time>2026-03-28T17:25:22.771Z</time></trkpt><trkpt lat="45.5687258" lon="10.4947313"><ele>282.0</ele><time>2026-03-28T17:25:23.769Z</time></trkpt><trkpt lat="45.5688348" lon="10.4946715"><ele>282.0</ele><time>2026-03-28T17:25:24.771Z</time></trkpt><trkpt lat="45.5689348" lon="10.4946233"><ele>282.0</ele><time>2026-03-28T17:25:25.77Z</time></trkpt><trkpt lat="45.5690199" lon="10.4945877"><ele>283.0</ele><time>2026-03-28T17:25:26.769Z</time></trkpt><trkpt lat="45.5690876" lon="10.4945505"><ele>284.0</ele><time>2026-03-28T17:25:27.77Z</time></trkpt><trkpt lat="45.5691486" lon="10.4944994"><ele>285.0</ele><time>2026-03-28T17:25:28.77Z</time></trkpt><trkpt lat="45.5691979" lon="10.4944274"><ele>286.0</ele><time>2026-03-28T17:25:29.771Z</time></trkpt><trkpt lat="45.5692379" lon="10.4943494"><ele>287.0</ele><time>2026-03-28T17:25:30.771Z</time></trkpt><trkpt lat="45.5692747" lon="10.4942742"><ele>288.0</ele><time>2026-03-28T17:25:31.77Z</time></trkpt><trkpt lat="45.5693758" lon="10.4942042"><ele>288.0</ele><time>2026-03-28T17:25:33.769Z</time></trkpt><trkpt lat="45.5694433" lon="10.49419"><ele>288.0</ele><time>2026-03-28T17:25:34.77Z</time></trkpt><trkpt lat="45.5695235" lon="10.4941807"><ele>288.0</ele><time>2026-03-28T17:25:35.77Z</time></trkpt><trkpt lat="45.5696064" lon="10.4941681"><ele>288.0</ele><time>2026-03-28T17:25:36.77Z</time></trkpt><trkpt lat="45.5696905" lon="10.4941548"><ele>288.0</ele><time>2026-03-28T17:25:37.771Z</time></trkpt><trkpt lat="45.5697776" lon="10.4941329"><ele>288.0</ele><time>2026-03-28T17:25:38.771Z</time></trkpt><trkpt lat="45.5698541" lon="10.4941055"><ele>288.4</ele><time>2026-03-28T17:25:39.77Z</time></trkpt><trkpt lat="45.5699291" lon="10.4940726"><ele>288.8</ele><time>2026-03-28T17:25:40.77Z</time></trkpt><trkpt lat="45.5700095" lon="10.494085"><ele>289.2</ele><time>2026-03-28T17:25:42.77Z</time></trkpt><trkpt lat="45.5700902" lon="10.4942203"><ele>289.6</ele><time>2026-03-28T17:25:44.769Z</time></trkpt><trkpt lat="45.570125" lon="10.4943302"><ele>290.0</ele><time>2026-03-28T17:25:45.769Z</time></trkpt><trkpt lat="45.5701494" lon="10.4944679"><ele>290.4</ele><time>2026-03-28T17:25:46.77Z</time></trkpt><trkpt lat="45.5701852" lon="10.4945901"><ele>290.8</ele><time>2026-03-28T17:25:47.77Z</time></trkpt><trkpt lat="45.5702401" lon="10.4946748"><ele>291.2</ele><time>2026-03-28T17:25:48.771Z</time></trkpt><trkpt lat="45.5703259" lon="10.4947478"><ele>291.6</ele><time>2026-03-28T17:25:49.769Z</time></trkpt><trkpt lat="45.5704366" lon="10.4948072"><ele>292.0</ele><time>2026-03-28T17:25:50.771Z</time></trkpt><trkpt lat="45.570555" lon="10.4948743"><ele>292.3333333333333</ele><time>2026-03-28T17:25:51.77Z</time></trkpt><trkpt lat="45.5706869" lon="10.4949483"><ele>292.6666666666667</ele><time>2026-03-28T17:25:52.77Z</time></trkpt><trkpt lat="45.5708328" lon="10.4950214"><ele>293.0</ele><time>2026-03-28T17:25:53.769Z</time></trkpt><trkpt lat="45.570984" lon="10.4950877"><ele>293.0</ele><time>2026-03-28T17:25:54.771Z</time></trkpt><trkpt lat="45.5711271" lon="10.4951535"><ele>293.0</ele><time>2026-03-28T17:25:55.771Z</time></trkpt><trkpt lat="45.5712468" lon="10.4952119"><ele>293.0</ele><time>2026-03-28T17:25:56.769Z</time></trkpt><trkpt lat="45.5713463" lon="10.4952703"><ele>293.0</ele><time>2026-03-28T17:25:57.769Z</time></trkpt><trkpt lat="45.5714396" lon="10.4953418"><ele>293.6666666666667</ele><time>2026-03-28T17:25:58.769Z</time></trkpt><trkpt lat="45.5715136" lon="10.4954181"><ele>294.33333333333337</ele><time>2026-03-28T17:25:59.769Z</time></trkpt><trkpt lat="45.5715656" lon="10.4954963"><ele>295.0</ele><time>2026-03-28T17:26:00.77Z</time></trkpt><trkpt lat="45.5716092" lon="10.4955832"><ele>295.6666666666667</ele><time>2026-03-28T17:26:01.77Z</time></trkpt><trkpt lat="45.5716349" lon="10.4956802"><ele>296.3333333333333</ele><time>2026-03-28T17:26:02.77Z</time></trkpt><trkpt lat="45.5716526" lon="10.4957992"><ele>297.0</ele><time>2026-03-28T17:26:03.771Z</time></trkpt><trkpt lat="45.5716685" lon="10.4959394"><ele>297.0</ele><time>2026-03-28T17:26:04.77Z</time></trkpt><trkpt lat="45.5716884" lon="10.4960925"><ele>297.0</ele><time>2026-03-28T17:26:05.769Z</time></trkpt><trkpt lat="45.5717231" lon="10.4962569"><ele>297.0</ele><time>2026-03-28T17:26:06.77Z</time></trkpt><trkpt lat="45.5717694" lon="10.4964307"><ele>297.0</ele><time>2026-03-28T17:26:07.77Z</time></trkpt><trkpt lat="45.5718237" lon="10.4966133"><ele>298.0</ele><time>2026-03-28T17:26:08.769Z</time></trkpt><trkpt lat="45.571883" lon="10.4967941"><ele>299.0</ele><time>2026-03-28T17:26:09.77Z</time></trkpt><trkpt lat="45.5719379" lon="10.4969583"><ele>300.0</ele><time>2026-03-28T17:26:10.771Z</time></trkpt><trkpt lat="45.5719849" lon="10.4970952"><ele>301.0</ele><time>2026-03-28T17:26:11.77Z</time></trkpt><trkpt lat="45.572018" lon="10.4972157"><ele>298.8</ele><time>2026-03-28T17:26:12.769Z</time></trkpt><trkpt lat="45.5720429" lon="10.4973245"><ele>296.6</ele><time>2026-03-28T17:26:13.771Z</time></trkpt><trkpt lat="45.5720601" lon="10.497501"><ele>294.4</ele><time>2026-03-28T17:26:15.77Z</time></trkpt><trkpt lat="45.5720593" lon="10.4976066"><ele>292.2</ele><time>2026-03-28T17:26:16.769Z</time></trkpt><trkpt lat="45.572042" lon="10.4977581"><ele>290.0</ele><time>2026-03-28T17:26:17.77Z</time></trkpt><trkpt lat="45.5720167" lon="10.4979324"><ele>290.0</ele><time>2026-03-28T17:26:18.77Z</time></trkpt><trkpt lat="45.5720031" lon="10.4980811"><ele>290.0</ele><time>2026-03-28T17:26:19.769Z</time></trkpt><trkpt lat="45.5720069" lon="10.498221"><ele>290.0</ele><time>2026-03-28T17:26:20.771Z</time></trkpt><trkpt lat="45.572031" lon="10.4983568"><ele>290.0</ele><time>2026-03-28T17:26:21.771Z</time></trkpt><trkpt lat="45.5720656" lon="10.4984803"><ele>290.0</ele><time>2026-03-28T17:26:22.77Z</time></trkpt><trkpt lat="45.572096" lon="10.4986363"><ele>287.8</ele><time>2026-03-28T17:26:23.769Z</time></trkpt><trkpt lat="45.5721243" lon="10.4987963"><ele>285.6</ele><time>2026-03-28T17:26:24.769Z</time></trkpt><trkpt lat="45.5721534" lon="10.4989404"><ele>283.4</ele><time>2026-03-28T17:26:25.77Z</time></trkpt><trkpt lat="45.5721784" lon="10.4990651"><ele>281.2</ele><time>2026-03-28T17:26:26.769Z</time></trkpt><trkpt lat="45.5721878" lon="10.4991843"><ele>279.0</ele><time>2026-03-28T17:26:27.771Z</time></trkpt><trkpt lat="45.5721856" lon="10.4992927"><ele>279.0</ele><time>2026-03-28T17:26:28.77Z</time></trkpt><trkpt lat="45.5721756" lon="10.4994153"><ele>279.0</ele><time>2026-03-28T17:26:30.769Z</time></trkpt><trkpt lat="45.5722389" lon="10.4993665"><ele>279.0</ele><time>2026-03-28T17:26:34.77Z</time></trkpt><trkpt lat="45.5722595" lon="10.4991639"><ele>279.0</ele><time>2026-03-28T17:26:36.77Z</time></trkpt><trkpt lat="45.5722718" lon="10.4990321"><ele>279.0</ele><time>2026-03-28T17:26:37.769Z</time></trkpt><trkpt lat="45.5722809" lon="10.4988924"><ele>280.0</ele><time>2026-03-28T17:26:38.77Z</time></trkpt><trkpt lat="45.5722988" lon="10.4987233"><ele>281.0</ele><time>2026-03-28T17:26:39.771Z</time></trkpt><trkpt lat="45.5723179" lon="10.4985476"><ele>282.0</ele><time>2026-03-28T17:26:40.77Z</time></trkpt><trkpt lat="45.5723526" lon="10.4983482"><ele>283.0</ele><time>2026-03-28T17:26:41.77Z</time></trkpt><trkpt lat="45.5724037" lon="10.4981542"><ele>283.0</ele><time>2026-03-28T17:26:42.77Z</time></trkpt><trkpt lat="45.5724742" lon="10.4979608"><ele>283.0</ele><time>2026-03-28T17:26:43.769Z</time></trkpt><trkpt lat="45.5725546" lon="10.4977624"><ele>283.0</ele><time>2026-03-28T17:26:44.77Z</time></trkpt><trkpt lat="45.5726275" lon="10.4975709"><ele>284.5</ele><time>2026-03-28T17:26:45.771Z</time></trkpt><trkpt lat="45.5726882" lon="10.4973812"><ele>286.0</ele><time>2026-03-28T17:26:46.769Z</time></trkpt><trkpt lat="45.5727343" lon="10.4971854"><ele>287.5</ele><time>2026-03-28T17:26:47.77Z</time></trkpt><trkpt lat="45.5727581" lon="10.4969832"><ele>289.0</ele><time>2026-03-28T17:26:48.769Z</time></trkpt><trkpt lat="45.5727657" lon="10.496782"><ele>289.2</ele><time>2026-03-28T17:26:49.77Z</time></trkpt><trkpt lat="45.5727662" lon="10.4965983"><ele>289.4</ele><time>2026-03-28T17:26:50.769Z</time></trkpt><trkpt lat="45.5727676" lon="10.4964474"><ele>289.6</ele><time>2026-03-28T17:26:51.769Z</time></trkpt><trkpt lat="45.5727619" lon="10.4963177"><ele>289.8</ele><time>2026-03-28T17:26:52.769Z</time></trkpt><trkpt lat="45.5727537" lon="10.4962013"><ele>290.0</ele><time>2026-03-28T17:26:53.77Z</time></trkpt><trkpt lat="45.5727389" lon="10.4960909"><ele>290.5</ele><time>2026-03-28T17:26:54.769Z</time></trkpt><trkpt lat="45.5727154" lon="10.4959837"><ele>291.0</ele><time>2026-03-28T17:26:55.769Z</time></trkpt><trkpt lat="45.5726938" lon="10.4958701"><ele>291.5</ele><time>2026-03-28T17:26:56.77Z</time></trkpt><trkpt lat="45.5726734" lon="10.4957518"><ele>292.0</ele><time>2026-03-28T17:26:57.769Z</time></trkpt><trkpt lat="45.572659" lon="10.495619"><ele>292.5</ele><time>2026-03-28T17:26:58.77Z</time></trkpt><trkpt lat="45.5726623" lon="10.4954689"><ele>293.0</ele><time>2026-03-28T17:26:59.771Z</time></trkpt><trkpt lat="45.5726957" lon="10.4953092"><ele>292.5</ele><time>2026-03-28T17:27:00.77Z</time></trkpt><trkpt lat="45.5727474" lon="10.4951573"><ele>292.0</ele><time>2026-03-28T17:27:01.77Z</time></trkpt><trkpt lat="45.5728184" lon="10.4950153"><ele>291.5</ele><time>2026-03-28T17:27:02.77Z</time></trkpt><trkpt lat="45.5729085" lon="10.4948807"><ele>291.0</ele><time>2026-03-28T17:27:03.771Z</time></trkpt><trkpt lat="45.5730036" lon="10.4947488"><ele>291.0</ele><time>2026-03-28T17:27:04.77Z</time></trkpt><trkpt lat="45.5731032" lon="10.4946193"><ele>291.0</ele><time>2026-03-28T17:27:05.771Z</time></trkpt><trkpt lat="45.5732054" lon="10.4944903"><ele>291.0</ele><time>2026-03-28T17:27:06.771Z</time></trkpt><trkpt lat="45.5733052" lon="10.4943749"><ele>291.0</ele><time>2026-03-28T17:27:07.769Z</time></trkpt><trkpt lat="45.5733854" lon="10.4942438"><ele>295.25</ele><time>2026-03-28T17:27:08.769Z</time></trkpt><trkpt lat="45.5734548" lon="10.4940855"><ele>299.5</ele><time>2026-03-28T17:27:09.769Z</time></trkpt><trkpt lat="45.5735163" lon="10.4939181"><ele>303.75</ele><time>2026-03-28T17:27:10.769Z</time></trkpt><trkpt lat="45.573586" lon="10.4937583"><ele>308.0</ele><time>2026-03-28T17:27:11.771Z</time></trkpt><trkpt lat="45.5736497" lon="10.4936065"><ele>306.25</ele><time>2026-03-28T17:27:12.77Z</time></trkpt><trkpt lat="45.573691" lon="10.4934524"><ele>304.5</ele><time>2026-03-28T17:27:13.77Z</time></trkpt><trkpt lat="45.5737129" lon="10.4932856"><ele>302.75</ele><time>2026-03-28T17:27:14.77Z</time></trkpt><trkpt lat="45.5737229" lon="10.4931106"><ele>301.0</ele><time>2026-03-28T17:27:15.77Z</time></trkpt><trkpt lat="45.5737303" lon="10.4929327"><ele>303.0</ele><time>2026-03-28T17:27:16.77Z</time></trkpt><trkpt lat="45.5737526" lon="10.4927708"><ele>305.0</ele><time>2026-03-28T17:27:17.77Z</time></trkpt><trkpt lat="45.5737897" lon="10.4926178"><ele>307.0</ele><time>2026-03-28T17:27:18.769Z</time></trkpt><trkpt lat="45.5738535" lon="10.4924897"><ele>309.0</ele><time>2026-03-28T17:27:19.77Z</time></trkpt><trkpt lat="45.573951" lon="10.492389"><ele>309.0</ele><time>2026-03-28T17:27:20.77Z</time></trkpt><trkpt lat="45.5740594" lon="10.4923291"><ele>309.0</ele><time>2026-03-28T17:27:21.769Z</time></trkpt><trkpt lat="45.5741617" lon="10.4922987"><ele>309.0</ele><time>2026-03-28T17:27:22.769Z</time></trkpt><trkpt lat="45.5742532" lon="10.4922845"><ele>309.0</ele><time>2026-03-28T17:27:23.77Z</time></trkpt><trkpt lat="45.574331" lon="10.4922546"><ele>309.0</ele><time>2026-03-28T17:27:24.77Z</time></trkpt><trkpt lat="45.574386" lon="10.4921852"><ele>309.4</ele><time>2026-03-28T17:27:25.771Z</time></trkpt><trkpt lat="45.5744155" lon="10.4920823"><ele>309.79999999999995</ele><time>2026-03-28T17:27:26.77Z</time></trkpt><trkpt lat="45.5744163" lon="10.4919464"><ele>310.20000000000005</ele><time>2026-03-28T17:27:27.771Z</time></trkpt><trkpt lat="45.5743999" lon="10.49179"><ele>310.6</ele><time>2026-03-28T17:27:28.771Z</time></trkpt><trkpt lat="45.5743789" lon="10.4916126"><ele>311.0</ele><time>2026-03-28T17:27:29.771Z</time></trkpt><trkpt lat="45.5743677" lon="10.4914222"><ele>311.0</ele><time>2026-03-28T17:27:30.77Z</time></trkpt><trkpt lat="45.5743701" lon="10.4912344"><ele>311.0</ele><time>2026-03-28T17:27:31.769Z</time></trkpt><trkpt lat="45.574389" lon="10.4910538"><ele>311.0</ele><time>2026-03-28T17:27:32.769Z</time></trkpt><trkpt lat="45.5744242" lon="10.4908851"><ele>311.0</ele><time>2026-03-28T17:27:33.77Z</time></trkpt><trkpt lat="45.5744559" lon="10.490709"><ele>311.0</ele><time>2026-03-28T17:27:34.77Z</time></trkpt><trkpt lat="45.5744594" lon="10.490513"><ele>311.0</ele><time>2026-03-28T17:27:35.769Z</time></trkpt><trkpt lat="45.5744582" lon="10.4903117"><ele>311.0</ele><time>2026-03-28T17:27:36.769Z</time></trkpt><trkpt lat="45.5744536" lon="10.4901116"><ele>311.0</ele><time>2026-03-28T17:27:37.771Z</time></trkpt><trkpt lat="45.5744516" lon="10.4899198"><ele>311.75</ele><time>2026-03-28T17:27:38.77Z</time></trkpt><trkpt lat="45.5744616" lon="10.4897523"><ele>312.5</ele><time>2026-03-28T17:27:39.769Z</time></trkpt><trkpt lat="45.5744969" lon="10.4896164"><ele>313.25</ele><time>2026-03-28T17:27:40.769Z</time></trkpt><trkpt lat="45.5745504" lon="10.4894973"><ele>314.0</ele><time>2026-03-28T17:27:41.77Z</time></trkpt><trkpt lat="45.5746663" lon="10.4893956"><ele>315.0</ele><time>2026-03-28T17:27:42.77Z</time></trkpt><trkpt lat="45.5747547" lon="10.4892586"><ele>316.0</ele><time>2026-03-28T17:27:43.77Z</time></trkpt><trkpt lat="45.5748373" lon="10.4891164"><ele>317.0</ele><time>2026-03-28T17:27:44.769Z</time></trkpt><trkpt lat="45.5749342" lon="10.4889889"><ele>318.0</ele><time>2026-03-28T17:27:45.77Z</time></trkpt><trkpt lat="45.5750496" lon="10.4888878"><ele>318.0</ele><time>2026-03-28T17:27:46.77Z</time></trkpt><trkpt lat="45.575166" lon="10.4888018"><ele>318.0</ele><time>2026-03-28T17:27:47.771Z</time></trkpt><trkpt lat="45.5752754" lon="10.4887251"><ele>318.0</ele><time>2026-03-28T17:27:48.77Z</time></trkpt><trkpt lat="45.5753728" lon="10.4886594"><ele>318.0</ele><time>2026-03-28T17:27:49.77Z</time></trkpt><trkpt lat="45.5754418" lon="10.488578"><ele>318.0</ele><time>2026-03-28T17:27:50.77Z</time></trkpt><trkpt lat="45.5754924" lon="10.4884869"><ele>318.0</ele><time>2026-03-28T17:27:51.769Z</time></trkpt><trkpt lat="45.5755226" lon="10.4883971"><ele>318.0</ele><time>2026-03-28T17:27:52.769Z</time></trkpt><trkpt lat="45.5755324" lon="10.4883019"><ele>318.0</ele><time>2026-03-28T17:27:53.769Z</time></trkpt><trkpt lat="45.5755159" lon="10.4881567"><ele>318.0</ele><time>2026-03-28T17:27:55.769Z</time></trkpt><trkpt lat="45.5755109" lon="10.4880503"><ele>318.0</ele><time>2026-03-28T17:27:57.77Z</time></trkpt><trkpt lat="45.5755171" lon="10.4878917"><ele>318.0</ele><time>2026-03-28T17:28:00.769Z</time></trkpt><trkpt lat="45.5755257" lon="10.4877858"><ele>318.0</ele><time>2026-03-28T17:28:01.771Z</time></trkpt><trkpt lat="45.5755414" lon="10.4876602"><ele>318.0</ele><time>2026-03-28T17:28:02.77Z</time></trkpt><trkpt lat="45.5755585" lon="10.4875223"><ele>318.0</ele><time>2026-03-28T17:28:03.77Z</time></trkpt><trkpt lat="45.5755724" lon="10.4873734"><ele>318.0</ele><time>2026-03-28T17:28:04.769Z</time></trkpt><trkpt lat="45.5755837" lon="10.4872112"><ele>316.75</ele><time>2026-03-28T17:28:05.77Z</time></trkpt><trkpt lat="45.5755894" lon="10.4870449"><ele>315.5</ele><time>2026-03-28T17:28:06.77Z</time></trkpt><trkpt lat="45.5755925" lon="10.4868752"><ele>314.25</ele><time>2026-03-28T17:28:07.77Z</time></trkpt><trkpt lat="45.5755883" lon="10.4867062"><ele>313.0</ele><time>2026-03-28T17:28:08.771Z</time></trkpt><trkpt lat="45.5755797" lon="10.4865333"><ele>313.0</ele><time>2026-03-28T17:28:09.77Z</time></trkpt><trkpt lat="45.5755602" lon="10.486367"><ele>313.0</ele><time>2026-03-28T17:28:10.77Z</time></trkpt><trkpt lat="45.5755304" lon="10.4862156"><ele>313.0</ele><time>2026-03-28T17:28:11.77Z</time></trkpt><trkpt lat="45.575497" lon="10.4860678"><ele>313.0</ele><time>2026-03-28T17:28:12.769Z</time></trkpt><trkpt lat="45.5754549" lon="10.4859217"><ele>313.0</ele><time>2026-03-28T17:28:13.77Z</time></trkpt><trkpt lat="45.5754101" lon="10.4857912"><ele>312.2</ele><time>2026-03-28T17:28:14.77Z</time></trkpt><trkpt lat="45.5753814" lon="10.4856662"><ele>311.4</ele><time>2026-03-28T17:28:15.77Z</time></trkpt><trkpt lat="45.5753758" lon="10.4855322"><ele>310.59999999999997</ele><time>2026-03-28T17:28:16.769Z</time></trkpt><trkpt lat="45.575398" lon="10.4853855"><ele>309.8</ele><time>2026-03-28T17:28:17.77Z</time></trkpt><trkpt lat="45.5754405" lon="10.4852284"><ele>309.0</ele><time>2026-03-28T17:28:18.769Z</time></trkpt><trkpt lat="45.5754868" lon="10.4850559"><ele>307.5</ele><time>2026-03-28T17:28:19.77Z</time></trkpt><trkpt lat="45.5755285" lon="10.4848698"><ele>306.0</ele><time>2026-03-28T17:28:20.769Z</time></trkpt><trkpt lat="45.5755633" lon="10.4846675"><ele>304.5</ele><time>2026-03-28T17:28:21.77Z</time></trkpt><trkpt lat="45.5755905" lon="10.4844596"><ele>303.0</ele><time>2026-03-28T17:28:22.77Z</time></trkpt><trkpt lat="45.5756226" lon="10.4842538"><ele>301.0</ele><time>2026-03-28T17:28:23.769Z</time></trkpt><trkpt lat="45.5756669" lon="10.4840502"><ele>299.0</ele><time>2026-03-28T17:28:24.77Z</time></trkpt><trkpt lat="45.5757133" lon="10.4838459"><ele>297.0</ele><time>2026-03-28T17:28:25.769Z</time></trkpt><trkpt lat="45.5757522" lon="10.4836541"><ele>295.0</ele><time>2026-03-28T17:28:26.771Z</time></trkpt><trkpt lat="45.5757815" lon="10.4834716"><ele>293.5</ele><time>2026-03-28T17:28:27.769Z</time></trkpt><trkpt lat="45.5757998" lon="10.4832902"><ele>292.0</ele><time>2026-03-28T17:28:28.77Z</time></trkpt><trkpt lat="45.5758139" lon="10.4831084"><ele>290.5</ele><time>2026-03-28T17:28:29.769Z</time></trkpt><trkpt lat="45.5758207" lon="10.4829372"><ele>289.0</ele><time>2026-03-28T17:28:30.77Z</time></trkpt><trkpt lat="45.5758239" lon="10.4827871"><ele>288.5</ele><time>2026-03-28T17:28:31.771Z</time></trkpt><trkpt lat="45.5758291" lon="10.4826596"><ele>288.0</ele><time>2026-03-28T17:28:32.77Z</time></trkpt><trkpt lat="45.5758225" lon="10.4825341"><ele>287.5</ele><time>2026-03-28T17:28:34.77Z</time></trkpt><trkpt lat="45.5757604" lon="10.4824894"><ele>287.0</ele><time>2026-03-28T17:28:36.771Z</time></trkpt><trkpt lat="45.5756835" lon="10.4824855"><ele>286.5</ele><time>2026-03-28T17:28:37.77Z</time></trkpt><trkpt lat="45.5755851" lon="10.4825172"><ele>286.0</ele><time>2026-03-28T17:28:38.77Z</time></trkpt><trkpt lat="45.5754681" lon="10.4825507"><ele>287.0</ele><time>2026-03-28T17:28:39.769Z</time></trkpt><trkpt lat="45.575335" lon="10.4825773"><ele>288.0</ele><time>2026-03-28T17:28:40.77Z</time></trkpt><trkpt lat="45.575202" lon="10.4826086"><ele>289.0</ele><time>2026-03-28T17:28:41.77Z</time></trkpt><trkpt lat="45.5750725" lon="10.482633"><ele>290.0</ele><time>2026-03-28T17:28:42.771Z</time></trkpt><trkpt lat="45.5749193" lon="10.482652"><ele>290.0</ele><time>2026-03-28T17:28:43.77Z</time></trkpt><trkpt lat="45.5747702" lon="10.4826612"><ele>290.0</ele><time>2026-03-28T17:28:44.77Z</time></trkpt><trkpt lat="45.5746176" lon="10.4826632"><ele>290.0</ele><time>2026-03-28T17:28:45.77Z</time></trkpt><trkpt lat="45.5744639" lon="10.4826587"><ele>289.33333333333337</ele><time>2026-03-28T17:28:46.77Z</time></trkpt><trkpt lat="45.5743054" lon="10.4826474"><ele>288.6666666666667</ele><time>2026-03-28T17:28:47.77Z</time></trkpt><trkpt lat="45.5741466" lon="10.4826379"><ele>288.0</ele><time>2026-03-28T17:28:48.77Z</time></trkpt><trkpt lat="45.5739865" lon="10.4826332"><ele>288.0</ele><time>2026-03-28T17:28:49.771Z</time></trkpt><trkpt lat="45.5738316" lon="10.4826303"><ele>288.0</ele><time>2026-03-28T17:28:50.77Z</time></trkpt><trkpt lat="45.5736815" lon="10.4826245"><ele>288.0</ele><time>2026-03-28T17:28:51.769Z</time></trkpt><trkpt lat="45.5735283" lon="10.4826159"><ele>289.0</ele><time>2026-03-28T17:28:52.77Z</time></trkpt><trkpt lat="45.5733801" lon="10.4826016"><ele>290.0</ele><time>2026-03-28T17:28:53.77Z</time></trkpt><trkpt lat="45.5732346" lon="10.4825889"><ele>291.0</ele><time>2026-03-28T17:28:54.771Z</time></trkpt><trkpt lat="45.5730893" lon="10.4825774"><ele>292.0</ele><time>2026-03-28T17:28:55.769Z</time></trkpt><trkpt lat="45.572953" lon="10.4825753"><ele>293.5</ele><time>2026-03-28T17:28:56.77Z</time></trkpt><trkpt lat="45.5728318" lon="10.4825753"><ele>295.0</ele><time>2026-03-28T17:28:57.77Z</time></trkpt><trkpt lat="45.5727148" lon="10.4825742"><ele>296.5</ele><time>2026-03-28T17:28:58.77Z</time></trkpt><trkpt lat="45.5726053" lon="10.4825669"><ele>298.0</ele><time>2026-03-28T17:28:59.77Z</time></trkpt><trkpt lat="45.5724938" lon="10.4825555"><ele>298.0</ele><time>2026-03-28T17:29:00.769Z</time></trkpt><trkpt lat="45.5723886" lon="10.482545"><ele>298.0</ele><time>2026-03-28T17:29:01.77Z</time></trkpt><trkpt lat="45.5722848" lon="10.4825321"><ele>298.0</ele><time>2026-03-28T17:29:02.77Z</time></trkpt><trkpt lat="45.5721833" lon="10.4825374"><ele>298.0</ele><time>2026-03-28T17:29:03.771Z</time></trkpt><trkpt lat="45.5720833" lon="10.4825475"><ele>298.0</ele><time>2026-03-28T17:29:04.77Z</time></trkpt><trkpt lat="45.5719895" lon="10.4825454"><ele>298.4</ele><time>2026-03-28T17:29:05.771Z</time></trkpt><trkpt lat="45.5718949" lon="10.4825389"><ele>298.8</ele><time>2026-03-28T17:29:06.77Z</time></trkpt><trkpt lat="45.5717933" lon="10.4825393"><ele>299.2</ele><time>2026-03-28T17:29:07.769Z</time></trkpt><trkpt lat="45.5716806" lon="10.482537"><ele>299.6</ele><time>2026-03-28T17:29:08.77Z</time></trkpt><trkpt lat="45.5715566" lon="10.4825311"><ele>300.0</ele><time>2026-03-28T17:29:09.771Z</time></trkpt><trkpt lat="45.571423" lon="10.4825236"><ele>300.0</ele><time>2026-03-28T17:29:10.77Z</time></trkpt><trkpt lat="45.5712807" lon="10.4825137"><ele>300.0</ele><time>2026-03-28T17:29:11.77Z</time></trkpt><trkpt lat="45.5711321" lon="10.4825004"><ele>300.0</ele><time>2026-03-28T17:29:12.769Z</time></trkpt><trkpt lat="45.570976" lon="10.4824841"><ele>300.0</ele><time>2026-03-28T17:29:13.77Z</time></trkpt><trkpt lat="45.570816" lon="10.4824708"><ele>301.6666666666667</ele><time>2026-03-28T17:29:14.77Z</time></trkpt><trkpt lat="45.5706564" lon="10.4824534"><ele>303.33333333333337</ele><time>2026-03-28T17:29:15.77Z</time></trkpt><trkpt lat="45.5704948" lon="10.4824249"><ele>305.0</ele><time>2026-03-28T17:29:16.77Z</time></trkpt><trkpt lat="45.5703324" lon="10.4823881"><ele>307.0</ele><time>2026-03-28T17:29:17.77Z</time></trkpt><trkpt lat="45.5701723" lon="10.4823484"><ele>309.0</ele><time>2026-03-28T17:29:18.77Z</time></trkpt><trkpt lat="45.5700103" lon="10.4823067"><ele>311.0</ele><time>2026-03-28T17:29:19.769Z</time></trkpt><trkpt lat="45.5698454" lon="10.4822646"><ele>311.0</ele><time>2026-03-28T17:29:20.771Z</time></trkpt><trkpt lat="45.5696795" lon="10.4822181"><ele>311.0</ele><time>2026-03-28T17:29:21.77Z</time></trkpt><trkpt lat="45.5695143" lon="10.4821645"><ele>311.0</ele><time>2026-03-28T17:29:22.769Z</time></trkpt><trkpt lat="45.5693461" lon="10.4821124"><ele>312.33333333333337</ele><time>2026-03-28T17:29:23.77Z</time></trkpt><trkpt lat="45.5691753" lon="10.4820555"><ele>313.6666666666667</ele><time>2026-03-28T17:29:24.769Z</time></trkpt><trkpt lat="45.5690021" lon="10.4820073"><ele>315.0</ele><time>2026-03-28T17:29:25.769Z</time></trkpt><trkpt lat="45.5688265" lon="10.4819624"><ele>316.0</ele><time>2026-03-28T17:29:26.771Z</time></trkpt><trkpt lat="45.5686498" lon="10.4819126"><ele>317.0</ele><time>2026-03-28T17:29:27.771Z</time></trkpt><trkpt lat="45.5684699" lon="10.4818596"><ele>318.0</ele><time>2026-03-28T17:29:28.77Z</time></trkpt><trkpt lat="45.5682861" lon="10.4818027"><ele>318.0</ele><time>2026-03-28T17:29:29.769Z</time></trkpt><trkpt lat="45.5680999" lon="10.4817472"><ele>318.0</ele><time>2026-03-28T17:29:30.77Z</time></trkpt><trkpt lat="45.5679108" lon="10.4816903"><ele>318.0</ele><time>2026-03-28T17:29:31.771Z</time></trkpt><trkpt lat="45.5677221" lon="10.4816332"><ele>320.0</ele><time>2026-03-28T17:29:32.77Z</time></trkpt><trkpt lat="45.5675321" lon="10.4815799"><ele>322.0</ele><time>2026-03-28T17:29:33.769Z</time></trkpt><trkpt lat="45.5673393" lon="10.4815343"><ele>324.0</ele><time>2026-03-28T17:29:34.77Z</time></trkpt><trkpt lat="45.5671428" lon="10.4815038"><ele>323.0</ele><time>2026-03-28T17:29:35.771Z</time></trkpt><trkpt lat="45.5669432" lon="10.4814921"><ele>322.0</ele><time>2026-03-28T17:29:36.77Z</time></trkpt><trkpt lat="45.5667416" lon="10.4814938"><ele>321.0</ele><time>2026-03-28T17:29:37.77Z</time></trkpt><trkpt lat="45.5665389" lon="10.4815039"><ele>321.0</ele><time>2026-03-28T17:29:38.769Z</time></trkpt><trkpt lat="45.5663352" lon="10.481524"><ele>321.0</ele><time>2026-03-28T17:29:39.771Z</time></trkpt><trkpt lat="45.5661342" lon="10.4815581"><ele>321.0</ele><time>2026-03-28T17:29:40.77Z</time></trkpt><trkpt lat="45.565938" lon="10.4816067"><ele>321.3333333333333</ele><time>2026-03-28T17:29:41.771Z</time></trkpt><trkpt lat="45.5657434" lon="10.4816658"><ele>321.66666666666663</ele><time>2026-03-28T17:29:42.771Z</time></trkpt><trkpt lat="45.5655498" lon="10.4817385"><ele>322.0</ele><time>2026-03-28T17:29:43.77Z</time></trkpt><trkpt lat="45.5653574" lon="10.4818155"><ele>321.3333333333333</ele><time>2026-03-28T17:29:44.769Z</time></trkpt><trkpt lat="45.5651637" lon="10.4818925"><ele>320.6666666666667</ele><time>2026-03-28T17:29:45.771Z</time></trkpt><trkpt lat="45.564974" lon="10.481967"><ele>320.0</ele><time>2026-03-28T17:29:46.769Z</time></trkpt><trkpt lat="45.5647828" lon="10.4820388"><ele>321.33333333333337</ele><time>2026-03-28T17:29:47.77Z</time></trkpt><trkpt lat="45.5645918" lon="10.4821078"><ele>322.6666666666667</ele><time>2026-03-28T17:29:48.77Z</time></trkpt><trkpt lat="45.5643994" lon="10.4821722"><ele>324.0</ele><time>2026-03-28T17:29:49.77Z</time></trkpt><trkpt lat="45.5642065" lon="10.4822306"><ele>324.0</ele><time>2026-03-28T17:29:50.77Z</time></trkpt><trkpt lat="45.5640113" lon="10.4822806"><ele>324.0</ele><time>2026-03-28T17:29:51.77Z</time></trkpt><trkpt lat="45.5638151" lon="10.4823274"><ele>324.0</ele><time>2026-03-28T17:29:52.77Z</time></trkpt><trkpt lat="45.5636207" lon="10.4823703"><ele>324.0</ele><time>2026-03-28T17:29:53.77Z</time></trkpt><trkpt lat="45.5634246" lon="10.482411"><ele>324.0</ele><time>2026-03-28T17:29:54.771Z</time></trkpt><trkpt lat="45.5632315" lon="10.4824559"><ele>324.0</ele><time>2026-03-28T17:29:55.771Z</time></trkpt><trkpt lat="45.5630404" lon="10.4824983"><ele>324.3333333333333</ele><time>2026-03-28T17:29:56.77Z</time></trkpt><trkpt lat="45.5628479" lon="10.4825448"><ele>324.66666666666663</ele><time>2026-03-28T17:29:57.77Z</time></trkpt><trkpt lat="45.5626564" lon="10.4825903"><ele>325.0</ele><time>2026-03-28T17:29:58.769Z</time></trkpt><trkpt lat="45.5624615" lon="10.4826362"><ele>325.0</ele><time>2026-03-28T17:29:59.77Z</time></trkpt><trkpt lat="45.5622673" lon="10.4826813"><ele>325.0</ele><time>2026-03-28T17:30:00.77Z</time></trkpt><trkpt lat="45.5620812" lon="10.4827302"><ele>325.0</ele><time>2026-03-28T17:30:01.77Z</time></trkpt><trkpt lat="45.5619099" lon="10.4827724"><ele>324.75</ele><time>2026-03-28T17:30:02.77Z</time></trkpt><trkpt lat="45.5617566" lon="10.4828084"><ele>324.5</ele><time>2026-03-28T17:30:03.77Z</time></trkpt><trkpt lat="45.5616206" lon="10.4828339"><ele>324.25</ele><time>2026-03-28T17:30:04.77Z</time></trkpt><trkpt lat="45.5615009" lon="10.4828219"><ele>324.0</ele><time>2026-03-28T17:30:05.77Z</time></trkpt><trkpt lat="45.5613832" lon="10.4827754"><ele>324.0</ele><time>2026-03-28T17:30:06.771Z</time></trkpt><trkpt lat="45.5612906" lon="10.4826666"><ele>324.0</ele><time>2026-03-28T17:30:07.77Z</time></trkpt><trkpt lat="45.5612141" lon="10.4825191"><ele>324.0</ele><time>2026-03-28T17:30:08.77Z</time></trkpt><trkpt lat="45.5611534" lon="10.4823472"><ele>324.0</ele><time>2026-03-28T17:30:09.77Z</time></trkpt><trkpt lat="45.5610961" lon="10.4821628"><ele>323.75</ele><time>2026-03-28T17:30:10.77Z</time></trkpt><trkpt lat="45.5610351" lon="10.4819793"><ele>323.5</ele><time>2026-03-28T17:30:11.771Z</time></trkpt><trkpt lat="45.5609627" lon="10.4818019"><ele>323.25</ele><time>2026-03-28T17:30:12.77Z</time></trkpt><trkpt lat="45.5608783" lon="10.4816297"><ele>323.0</ele><time>2026-03-28T17:30:13.77Z</time></trkpt><trkpt lat="45.5607758" lon="10.4814756"><ele>323.0</ele><time>2026-03-28T17:30:14.769Z</time></trkpt><trkpt lat="45.5606548" lon="10.481341"><ele>323.0</ele><time>2026-03-28T17:30:15.77Z</time></trkpt><trkpt lat="45.5605203" lon="10.4812385"><ele>323.0</ele><time>2026-03-28T17:30:16.77Z</time></trkpt><trkpt lat="45.5603785" lon="10.4811615"><ele>326.5</ele><time>2026-03-28T17:30:17.77Z</time></trkpt><trkpt lat="45.560237" lon="10.4810907"><ele>330.0</ele><time>2026-03-28T17:30:18.77Z</time></trkpt><trkpt lat="45.5600994" lon="10.4810188"><ele>333.5</ele><time>2026-03-28T17:30:19.77Z</time></trkpt><trkpt lat="45.559973" lon="10.4809448"><ele>337.0</ele><time>2026-03-28T17:30:20.77Z</time></trkpt><trkpt lat="45.5598643" lon="10.4808521"><ele>337.0</ele><time>2026-03-28T17:30:21.77Z</time></trkpt><trkpt lat="45.559783" lon="10.4807324"><ele>337.0</ele><time>2026-03-28T17:30:22.77Z</time></trkpt><trkpt lat="45.5597357" lon="10.4805914"><ele>337.0</ele><time>2026-03-28T17:30:23.77Z</time></trkpt><trkpt lat="45.5597089" lon="10.4804345"><ele>337.0</ele><time>2026-03-28T17:30:24.771Z</time></trkpt><trkpt lat="45.5596861" lon="10.4802698"><ele>338.25</ele><time>2026-03-28T17:30:25.77Z</time></trkpt><trkpt lat="45.5596806" lon="10.4801059"><ele>339.5</ele><time>2026-03-28T17:30:26.77Z</time></trkpt><trkpt lat="45.5596735" lon="10.4799334"><ele>340.75</ele><time>2026-03-28T17:30:27.77Z</time></trkpt><trkpt lat="45.5596716" lon="10.479757"><ele>342.0</ele><time>2026-03-28T17:30:28.77Z</time></trkpt><trkpt lat="45.5596757" lon="10.4795946"><ele>342.0</ele><time>2026-03-28T17:30:29.77Z</time></trkpt><trkpt lat="45.5596994" lon="10.4794267"><ele>342.0</ele><time>2026-03-28T17:30:30.77Z</time></trkpt><trkpt lat="45.5597441" lon="10.4792534"><ele>342.0</ele><time>2026-03-28T17:30:31.769Z</time></trkpt><trkpt lat="45.5597963" lon="10.4790758"><ele>342.0</ele><time>2026-03-28T17:30:32.77Z</time></trkpt><trkpt lat="45.5598491" lon="10.4788991"><ele>341.0</ele><time>2026-03-28T17:30:33.769Z</time></trkpt><trkpt lat="45.5599013" lon="10.4787257"><ele>340.0</ele><time>2026-03-28T17:30:34.77Z</time></trkpt><trkpt lat="45.5599469" lon="10.478558"><ele>339.0</ele><time>2026-03-28T17:30:35.769Z</time></trkpt><trkpt lat="45.5599847" lon="10.4783853"><ele>338.0</ele><time>2026-03-28T17:30:36.77Z</time></trkpt><trkpt lat="45.5600074" lon="10.4782085"><ele>338.0</ele><time>2026-03-28T17:30:37.77Z</time></trkpt><trkpt lat="45.5600162" lon="10.4780175"><ele>338.0</ele><time>2026-03-28T17:30:38.77Z</time></trkpt><trkpt lat="45.5600233" lon="10.477817"><ele>338.0</ele><time>2026-03-28T17:30:39.769Z</time></trkpt><trkpt lat="45.5600221" lon="10.4776126"><ele>338.0</ele><time>2026-03-28T17:30:40.771Z</time></trkpt><trkpt lat="45.5600134" lon="10.4774096"><ele>337.5</ele><time>2026-03-28T17:30:41.769Z</time></trkpt><trkpt lat="45.5600013" lon="10.4772174"><ele>337.0</ele><time>2026-03-28T17:30:42.769Z</time></trkpt><trkpt lat="45.5599955" lon="10.4770355"><ele>336.5</ele><time>2026-03-28T17:30:43.769Z</time></trkpt><trkpt lat="45.5600089" lon="10.4768712"><ele>336.0</ele><time>2026-03-28T17:30:44.769Z</time></trkpt><trkpt lat="45.5600448" lon="10.4767025"><ele>334.25</ele><time>2026-03-28T17:30:45.77Z</time></trkpt><trkpt lat="45.5601011" lon="10.4765341"><ele>332.5</ele><time>2026-03-28T17:30:46.771Z</time></trkpt><trkpt lat="45.5601667" lon="10.4763628"><ele>330.75</ele><time>2026-03-28T17:30:47.769Z</time></trkpt><trkpt lat="45.5602429" lon="10.4761936"><ele>329.0</ele><time>2026-03-28T17:30:48.77Z</time></trkpt><trkpt lat="45.5603308" lon="10.4760257"><ele>326.75</ele><time>2026-03-28T17:30:49.77Z</time></trkpt><trkpt lat="45.5604211" lon="10.4758532"><ele>324.5</ele><time>2026-03-28T17:30:50.77Z</time></trkpt><trkpt lat="45.56051" lon="10.4756802"><ele>322.25</ele><time>2026-03-28T17:30:51.77Z</time></trkpt><trkpt lat="45.560589" lon="10.475514"><ele>320.0</ele><time>2026-03-28T17:30:52.771Z</time></trkpt><trkpt lat="45.5606593" lon="10.4753489"><ele>317.8</ele><time>2026-03-28T17:30:53.77Z</time></trkpt><trkpt lat="45.560723" lon="10.4751921"><ele>315.6</ele><time>2026-03-28T17:30:54.77Z</time></trkpt><trkpt lat="45.5607776" lon="10.4750551"><ele>313.4</ele><time>2026-03-28T17:30:55.77Z</time></trkpt><trkpt lat="45.5608142" lon="10.4749269"><ele>311.2</ele><time>2026-03-28T17:30:56.77Z</time></trkpt><trkpt lat="45.5608147" lon="10.4747975"><ele>309.0</ele><time>2026-03-28T17:30:57.771Z</time></trkpt><trkpt lat="45.5607759" lon="10.4746835"><ele>307.4</ele><time>2026-03-28T17:30:58.769Z</time></trkpt><trkpt lat="45.5607051" lon="10.4745931"><ele>305.79999999999995</ele><time>2026-03-28T17:30:59.77Z</time></trkpt><trkpt lat="45.5606045" lon="10.4745338"><ele>304.20000000000005</ele><time>2026-03-28T17:31:00.77Z</time></trkpt><trkpt lat="45.5604879" lon="10.4745039"><ele>302.6</ele><time>2026-03-28T17:31:01.77Z</time></trkpt><trkpt lat="45.5603706" lon="10.4744896"><ele>301.0</ele><time>2026-03-28T17:31:02.77Z</time></trkpt><trkpt lat="45.5602642" lon="10.4744548"><ele>300.25</ele><time>2026-03-28T17:31:03.77Z</time></trkpt><trkpt lat="45.5601753" lon="10.4743902"><ele>299.5</ele><time>2026-03-28T17:31:04.77Z</time></trkpt><trkpt lat="45.5601132" lon="10.4742764"><ele>298.75</ele><time>2026-03-28T17:31:05.769Z</time></trkpt><trkpt lat="45.560067" lon="10.4741157"><ele>298.0</ele><time>2026-03-28T17:31:06.769Z</time></trkpt><trkpt lat="45.5600232" lon="10.4739297"><ele>297.0</ele><time>2026-03-28T17:31:07.769Z</time></trkpt><trkpt lat="45.5599692" lon="10.4737332"><ele>296.0</ele><time>2026-03-28T17:31:08.771Z</time></trkpt><trkpt lat="45.5599117" lon="10.4735348"><ele>295.0</ele><time>2026-03-28T17:31:09.77Z</time></trkpt><trkpt lat="45.559855" lon="10.4733359"><ele>294.0</ele><time>2026-03-28T17:31:10.77Z</time></trkpt><trkpt lat="45.5597974" lon="10.4731393"><ele>294.0</ele><time>2026-03-28T17:31:11.77Z</time></trkpt><trkpt lat="45.5597414" lon="10.4729507"><ele>294.0</ele><time>2026-03-28T17:31:12.77Z</time></trkpt><trkpt lat="45.5596885" lon="10.4727767"><ele>294.0</ele><time>2026-03-28T17:31:13.77Z</time></trkpt><trkpt lat="45.5596394" lon="10.4726057"><ele>294.0</ele><time>2026-03-28T17:31:14.769Z</time></trkpt><trkpt lat="45.5595973" lon="10.4724459"><ele>293.59999999999997</ele><time>2026-03-28T17:31:15.771Z</time></trkpt><trkpt lat="45.5595652" lon="10.4722921"><ele>293.2</ele><time>2026-03-28T17:31:16.77Z</time></trkpt><trkpt lat="45.5595418" lon="10.4721413"><ele>292.79999999999995</ele><time>2026-03-28T17:31:17.77Z</time></trkpt><trkpt lat="45.5595288" lon="10.4720008"><ele>292.4</ele><time>2026-03-28T17:31:18.77Z</time></trkpt><trkpt lat="45.559519" lon="10.4718728"><ele>292.0</ele><time>2026-03-28T17:31:19.769Z</time></trkpt><trkpt lat="45.5595055" lon="10.4717676"><ele>291.6</ele><time>2026-03-28T17:31:20.77Z</time></trkpt><trkpt lat="45.5594235" lon="10.4716583"><ele>291.2</ele><time>2026-03-28T17:31:22.769Z</time></trkpt><trkpt lat="45.5592831" lon="10.4716535"><ele>290.8</ele><time>2026-03-28T17:31:24.769Z</time></trkpt><trkpt lat="45.5591987" lon="10.4716215"><ele>290.4</ele><time>2026-03-28T17:31:25.77Z</time></trkpt><trkpt lat="45.5591125" lon="10.4715426"><ele>290.0</ele><time>2026-03-28T17:31:26.77Z</time></trkpt><trkpt lat="45.559024" lon="10.4714375"><ele>290.0</ele><time>2026-03-28T17:31:27.77Z</time></trkpt><trkpt lat="45.5589333" lon="10.4713304"><ele>290.0</ele><time>2026-03-28T17:31:28.77Z</time></trkpt><trkpt lat="45.5588405" lon="10.4712231"><ele>290.0</ele><time>2026-03-28T17:31:29.77Z</time></trkpt><trkpt lat="45.5587482" lon="10.4711149"><ele>290.0</ele><time>2026-03-28T17:31:30.77Z</time></trkpt><trkpt lat="45.558664" lon="10.4710122"><ele>288.83333333333337</ele><time>2026-03-28T17:31:31.769Z</time></trkpt><trkpt lat="45.558587" lon="10.4709166"><ele>287.6666666666667</ele><time>2026-03-28T17:31:32.77Z</time></trkpt><trkpt lat="45.5585352" lon="10.470822"><ele>286.5</ele><time>2026-03-28T17:31:33.77Z</time></trkpt><trkpt lat="45.5585099" lon="10.4707129"><ele>285.3333333333333</ele><time>2026-03-28T17:31:34.769Z</time></trkpt><trkpt lat="45.5584968" lon="10.4706117"><ele>284.16666666666663</ele><time>2026-03-28T17:31:35.771Z</time></trkpt><trkpt lat="45.5584558" lon="10.4705206"><ele>283.0</ele><time>2026-03-28T17:31:36.769Z</time></trkpt><trkpt lat="45.5583854" lon="10.4704623"><ele>283.5</ele><time>2026-03-28T17:31:37.77Z</time></trkpt><trkpt lat="45.5582863" lon="10.4704143"><ele>284.0</ele><time>2026-03-28T17:31:38.771Z</time></trkpt><trkpt lat="45.5581774" lon="10.4703702"><ele>284.5</ele><time>2026-03-28T17:31:39.77Z</time></trkpt><trkpt lat="45.5580499" lon="10.4703346"><ele>285.0</ele><time>2026-03-28T17:31:40.77Z</time></trkpt><trkpt lat="45.5579085" lon="10.4703059"><ele>284.0</ele><time>2026-03-28T17:31:41.771Z</time></trkpt><trkpt lat="45.5577605" lon="10.4702806"><ele>283.0</ele><time>2026-03-28T17:31:42.77Z</time></trkpt><trkpt lat="45.5576131" lon="10.4702585"><ele>282.0</ele><time>2026-03-28T17:31:43.771Z</time></trkpt><trkpt lat="45.5574576" lon="10.470233"><ele>282.0</ele><time>2026-03-28T17:31:44.77Z</time></trkpt><trkpt lat="45.5572994" lon="10.4702036"><ele>282.0</ele><time>2026-03-28T17:31:45.771Z</time></trkpt><trkpt lat="45.5571409" lon="10.4701603"><ele>282.0</ele><time>2026-03-28T17:31:46.769Z</time></trkpt><trkpt lat="45.5569831" lon="10.4700902"><ele>281.6666666666667</ele><time>2026-03-28T17:31:47.771Z</time></trkpt><trkpt lat="45.5568236" lon="10.4699951"><ele>281.33333333333337</ele><time>2026-03-28T17:31:48.771Z</time></trkpt><trkpt lat="45.5566676" lon="10.4698783"><ele>281.0</ele><time>2026-03-28T17:31:49.769Z</time></trkpt><trkpt lat="45.5565145" lon="10.469742"><ele>280.0</ele><time>2026-03-28T17:31:50.769Z</time></trkpt><trkpt lat="45.556361" lon="10.4695956"><ele>279.0</ele><time>2026-03-28T17:31:51.77Z</time></trkpt><trkpt lat="45.5562098" lon="10.4694412"><ele>278.0</ele><time>2026-03-28T17:31:52.77Z</time></trkpt><trkpt lat="45.5560671" lon="10.4692842"><ele>277.0</ele><time>2026-03-28T17:31:53.77Z</time></trkpt><trkpt lat="45.5559417" lon="10.4691273"><ele>276.0</ele><time>2026-03-28T17:31:54.77Z</time></trkpt><trkpt lat="45.5558247" lon="10.4689754"><ele>275.0</ele><time>2026-03-28T17:31:55.77Z</time></trkpt><trkpt lat="45.5556923" lon="10.4688442"><ele>274.6666666666667</ele><time>2026-03-28T17:31:56.771Z</time></trkpt><trkpt lat="45.5555455" lon="10.4687345"><ele>274.3333333333333</ele><time>2026-03-28T17:31:57.771Z</time></trkpt><trkpt lat="45.5553887" lon="10.4686366"><ele>274.0</ele><time>2026-03-28T17:31:58.77Z</time></trkpt><trkpt lat="45.5552178" lon="10.4685533"><ele>272.66666666666663</ele><time>2026-03-28T17:31:59.769Z</time></trkpt><trkpt lat="45.5550442" lon="10.468471"><ele>271.3333333333333</ele><time>2026-03-28T17:32:00.769Z</time></trkpt><trkpt lat="45.5548672" lon="10.4683887"><ele>270.0</ele><time>2026-03-28T17:32:01.77Z</time></trkpt><trkpt lat="45.5546894" lon="10.4683037"><ele>268.0</ele><time>2026-03-28T17:32:02.769Z</time></trkpt><trkpt lat="45.5545126" lon="10.4682206"><ele>266.0</ele><time>2026-03-28T17:32:03.77Z</time></trkpt><trkpt lat="45.5543333" lon="10.4681368"><ele>264.0</ele><time>2026-03-28T17:32:04.77Z</time></trkpt><trkpt lat="45.5541534" lon="10.4680546"><ele>264.0</ele><time>2026-03-28T17:32:05.77Z</time></trkpt><trkpt lat="45.5539693" lon="10.4679852"><ele>264.0</ele><time>2026-03-28T17:32:06.77Z</time></trkpt><trkpt lat="45.5537801" lon="10.467938"><ele>264.0</ele><time>2026-03-28T17:32:07.77Z</time></trkpt><trkpt lat="45.5535866" lon="10.4679111"><ele>261.6666666666667</ele><time>2026-03-28T17:32:08.769Z</time></trkpt><trkpt lat="45.5533887" lon="10.4679039"><ele>259.33333333333337</ele><time>2026-03-28T17:32:09.77Z</time></trkpt><trkpt lat="45.5531883" lon="10.4679106"><ele>257.0</ele><time>2026-03-28T17:32:10.771Z</time></trkpt><trkpt lat="45.5529896" lon="10.4679246"><ele>256.6666666666667</ele><time>2026-03-28T17:32:11.77Z</time></trkpt><trkpt lat="45.5527931" lon="10.4679395"><ele>256.3333333333333</ele><time>2026-03-28T17:32:12.771Z</time></trkpt><trkpt lat="45.5525994" lon="10.4679524"><ele>256.0</ele><time>2026-03-28T17:32:13.77Z</time></trkpt><trkpt lat="45.5524084" lon="10.4679635"><ele>257.3333333333333</ele><time>2026-03-28T17:32:14.77Z</time></trkpt><trkpt lat="45.5522198" lon="10.4679722"><ele>258.6666666666667</ele><time>2026-03-28T17:32:15.771Z</time></trkpt><trkpt lat="45.5520354" lon="10.4679733"><ele>260.0</ele><time>2026-03-28T17:32:16.77Z</time></trkpt><trkpt lat="45.5518516" lon="10.4679588"><ele>259.0</ele><time>2026-03-28T17:32:17.769Z</time></trkpt><trkpt lat="45.5516703" lon="10.4679249"><ele>258.0</ele><time>2026-03-28T17:32:18.771Z</time></trkpt><trkpt lat="45.5514967" lon="10.4678657"><ele>257.0</ele><time>2026-03-28T17:32:19.77Z</time></trkpt><trkpt lat="45.5513327" lon="10.4677726"><ele>259.0</ele><time>2026-03-28T17:32:20.77Z</time></trkpt><trkpt lat="45.5511808" lon="10.4676485"><ele>261.0</ele><time>2026-03-28T17:32:21.77Z</time></trkpt><trkpt lat="45.5510421" lon="10.4674969"><ele>263.0</ele><time>2026-03-28T17:32:22.77Z</time></trkpt><trkpt lat="45.55091" lon="10.4673416"><ele>263.0</ele><time>2026-03-28T17:32:23.77Z</time></trkpt><trkpt lat="45.550779" lon="10.4671947"><ele>263.0</ele><time>2026-03-28T17:32:24.77Z</time></trkpt><trkpt lat="45.5506568" lon="10.4670594"><ele>263.0</ele><time>2026-03-28T17:32:25.769Z</time></trkpt><trkpt lat="45.5505397" lon="10.4669508"><ele>262.6</ele><time>2026-03-28T17:32:26.771Z</time></trkpt><trkpt lat="45.5504239" lon="10.4668889"><ele>262.20000000000005</ele><time>2026-03-28T17:32:27.771Z</time></trkpt><trkpt lat="45.5503144" lon="10.4668868"><ele>261.8</ele><time>2026-03-28T17:32:28.77Z</time></trkpt><trkpt lat="45.5502204" lon="10.4669498"><ele>261.40000000000003</ele><time>2026-03-28T17:32:29.77Z</time></trkpt><trkpt lat="45.5501437" lon="10.4670584"><ele>261.0</ele><time>2026-03-28T17:32:30.769Z</time></trkpt><trkpt lat="45.55008" lon="10.4671943"><ele>262.5</ele><time>2026-03-28T17:32:31.77Z</time></trkpt><trkpt lat="45.5500121" lon="10.4673376"><ele>264.0</ele><time>2026-03-28T17:32:32.77Z</time></trkpt><trkpt lat="45.5499291" lon="10.4674675"><ele>265.5</ele><time>2026-03-28T17:32:33.77Z</time></trkpt><trkpt lat="45.5498413" lon="10.4675778"><ele>267.0</ele><time>2026-03-28T17:32:34.77Z</time></trkpt><trkpt lat="45.5497545" lon="10.4676698"><ele>267.0</ele><time>2026-03-28T17:32:35.769Z</time></trkpt><trkpt lat="45.5496629" lon="10.4677661"><ele>267.0</ele><time>2026-03-28T17:32:36.769Z</time></trkpt><trkpt lat="45.5495654" lon="10.4678421"><ele>267.0</ele><time>2026-03-28T17:32:37.77Z</time></trkpt><trkpt lat="45.5494618" lon="10.4678745"><ele>267.0</ele><time>2026-03-28T17:32:38.77Z</time></trkpt><trkpt lat="45.5493535" lon="10.467872"><ele>267.0</ele><time>2026-03-28T17:32:39.77Z</time></trkpt><trkpt lat="45.5492453" lon="10.4678302"><ele>267.0</ele><time>2026-03-28T17:32:40.771Z</time></trkpt><trkpt lat="45.5491404" lon="10.4677574"><ele>267.0</ele><time>2026-03-28T17:32:41.77Z</time></trkpt><trkpt lat="45.5490304" lon="10.4676801"><ele>267.0</ele><time>2026-03-28T17:32:42.771Z</time></trkpt><trkpt lat="45.5489181" lon="10.4676057"><ele>267.0</ele><time>2026-03-28T17:32:43.771Z</time></trkpt><trkpt lat="45.5488037" lon="10.4675325"><ele>266.5</ele><time>2026-03-28T17:32:44.769Z</time></trkpt><trkpt lat="45.5486909" lon="10.4674556"><ele>266.0</ele><time>2026-03-28T17:32:45.77Z</time></trkpt><trkpt lat="45.5485795" lon="10.4673773"><ele>265.5</ele><time>2026-03-28T17:32:46.769Z</time></trkpt><trkpt lat="45.5484685" lon="10.4673017"><ele>265.0</ele><time>2026-03-28T17:32:47.77Z</time></trkpt><trkpt lat="45.5483636" lon="10.4672328"><ele>265.0</ele><time>2026-03-28T17:32:48.769Z</time></trkpt><trkpt lat="45.5482613" lon="10.4671652"><ele>265.0</ele><time>2026-03-28T17:32:49.77Z</time></trkpt><trkpt lat="45.5481572" lon="10.467091"><ele>265.0</ele><time>2026-03-28T17:32:50.77Z</time></trkpt><trkpt lat="45.5480513" lon="10.4670167"><ele>265.0</ele><time>2026-03-28T17:32:51.77Z</time></trkpt><trkpt lat="45.5479438" lon="10.4669427"><ele>263.6</ele><time>2026-03-28T17:32:52.769Z</time></trkpt><trkpt lat="45.547836" lon="10.4668618"><ele>262.2</ele><time>2026-03-28T17:32:53.769Z</time></trkpt><trkpt lat="45.5477397" lon="10.4667752"><ele>260.8</ele><time>2026-03-28T17:32:54.769Z</time></trkpt><trkpt lat="45.5476569" lon="10.4666831"><ele>259.4</ele><time>2026-03-28T17:32:55.771Z</time></trkpt><trkpt lat="45.5475872" lon="10.4665865"><ele>258.0</ele><time>2026-03-28T17:32:56.77Z</time></trkpt><trkpt lat="45.5475321" lon="10.4664815"><ele>258.0</ele><time>2026-03-28T17:32:57.769Z</time></trkpt><trkpt lat="45.5474887" lon="10.4663709"><ele>258.0</ele><time>2026-03-28T17:32:58.77Z</time></trkpt><trkpt lat="45.547452" lon="10.466246"><ele>258.0</ele><time>2026-03-28T17:32:59.771Z</time></trkpt><trkpt lat="45.5474258" lon="10.4661063"><ele>258.0</ele><time>2026-03-28T17:33:00.769Z</time></trkpt><trkpt lat="45.5474024" lon="10.4659481"><ele>258.0</ele><time>2026-03-28T17:33:01.77Z</time></trkpt><trkpt lat="45.5473836" lon="10.4657734"><ele>257.75</ele><time>2026-03-28T17:33:02.769Z</time></trkpt><trkpt lat="45.5473819" lon="10.4655862"><ele>257.5</ele><time>2026-03-28T17:33:03.769Z</time></trkpt><trkpt lat="45.5473921" lon="10.4653935"><ele>257.25</ele><time>2026-03-28T17:33:04.77Z</time></trkpt><trkpt lat="45.5474099" lon="10.4651945"><ele>257.0</ele><time>2026-03-28T17:33:05.769Z</time></trkpt><trkpt lat="45.5474309" lon="10.4649922"><ele>257.0</ele><time>2026-03-28T17:33:06.771Z</time></trkpt><trkpt lat="45.5474522" lon="10.4647879"><ele>257.0</ele><time>2026-03-28T17:33:07.77Z</time></trkpt><trkpt lat="45.5474728" lon="10.4645801"><ele>257.0</ele><time>2026-03-28T17:33:08.77Z</time></trkpt><trkpt lat="45.5474936" lon="10.464373"><ele>257.0</ele><time>2026-03-28T17:33:09.77Z</time></trkpt><trkpt lat="45.5475142" lon="10.4641658"><ele>257.0</ele><time>2026-03-28T17:33:10.769Z</time></trkpt><trkpt lat="45.547535" lon="10.4639599"><ele>257.0</ele><time>2026-03-28T17:33:11.77Z</time></trkpt><trkpt lat="45.5475574" lon="10.4637552"><ele>257.0</ele><time>2026-03-28T17:33:12.769Z</time></trkpt><trkpt lat="45.5475817" lon="10.4635456"><ele>257.0</ele><time>2026-03-28T17:33:13.77Z</time></trkpt><trkpt lat="45.5476049" lon="10.463329"><ele>256.0</ele><time>2026-03-28T17:33:14.77Z</time></trkpt><trkpt lat="45.5476263" lon="10.4631074"><ele>255.0</ele><time>2026-03-28T17:33:15.769Z</time></trkpt><trkpt lat="45.5476503" lon="10.4628827"><ele>254.0</ele><time>2026-03-28T17:33:16.77Z</time></trkpt><trkpt lat="45.5476726" lon="10.4626572"><ele>252.66666666666669</ele><time>2026-03-28T17:33:17.77Z</time></trkpt><trkpt lat="45.5476944" lon="10.46243"><ele>251.33333333333331</ele><time>2026-03-28T17:33:18.769Z</time></trkpt><trkpt lat="45.5477149" lon="10.4621956"><ele>250.0</ele><time>2026-03-28T17:33:19.769Z</time></trkpt><trkpt lat="45.5477338" lon="10.4619637"><ele>249.0</ele><time>2026-03-28T17:33:20.77Z</time></trkpt><trkpt lat="45.5477538" lon="10.461734"><ele>248.0</ele><time>2026-03-28T17:33:21.769Z</time></trkpt><trkpt lat="45.5477784" lon="10.4615039"><ele>247.0</ele><time>2026-03-28T17:33:22.77Z</time></trkpt><trkpt lat="45.5478157" lon="10.4612739"><ele>247.0</ele><time>2026-03-28T17:33:23.77Z</time></trkpt><trkpt lat="45.5478643" lon="10.4610505"><ele>247.0</ele><time>2026-03-28T17:33:24.771Z</time></trkpt><trkpt lat="45.5479271" lon="10.4608362"><ele>247.0</ele><time>2026-03-28T17:33:25.77Z</time></trkpt><trkpt lat="45.5479941" lon="10.460636"><ele>246.5</ele><time>2026-03-28T17:33:26.77Z</time></trkpt><trkpt lat="45.5480612" lon="10.4604527"><ele>246.0</ele><time>2026-03-28T17:33:27.77Z</time></trkpt><trkpt lat="45.5481232" lon="10.4602879"><ele>245.5</ele><time>2026-03-28T17:33:28.771Z</time></trkpt><trkpt lat="45.5481804" lon="10.4601367"><ele>245.0</ele><time>2026-03-28T17:33:29.77Z</time></trkpt><trkpt lat="45.5482368" lon="10.4599934"><ele>245.0</ele><time>2026-03-28T17:33:30.77Z</time></trkpt><trkpt lat="45.5482973" lon="10.4598556"><ele>245.0</ele><time>2026-03-28T17:33:31.769Z</time></trkpt><trkpt lat="45.5483587" lon="10.4597289"><ele>245.0</ele><time>2026-03-28T17:33:32.77Z</time></trkpt><trkpt lat="45.5484143" lon="10.4596163"><ele>245.0</ele><time>2026-03-28T17:33:33.77Z</time></trkpt><trkpt lat="45.5484597" lon="10.4595026"><ele>245.0</ele><time>2026-03-28T17:33:34.771Z</time></trkpt><trkpt lat="45.5484901" lon="10.4593805"><ele>245.0</ele><time>2026-03-28T17:33:35.771Z</time></trkpt><trkpt lat="45.5484902" lon="10.45925"><ele>245.0</ele><time>2026-03-28T17:33:36.769Z</time></trkpt><trkpt lat="45.5484508" lon="10.4591288"><ele>245.0</ele><time>2026-03-28T17:33:37.771Z</time></trkpt><trkpt lat="45.5483836" lon="10.4590269"><ele>245.0</ele><time>2026-03-28T17:33:38.77Z</time></trkpt><trkpt lat="45.5483151" lon="10.4589214"><ele>245.0</ele><time>2026-03-28T17:33:39.77Z</time></trkpt><trkpt lat="45.5482677" lon="10.4587727"><ele>244.0</ele><time>2026-03-28T17:33:40.769Z</time></trkpt><trkpt lat="45.5482147" lon="10.4586208"><ele>243.0</ele><time>2026-03-28T17:33:41.77Z</time></trkpt><trkpt lat="45.5481323" lon="10.458471"><ele>242.0</ele><time>2026-03-28T17:33:42.77Z</time></trkpt><trkpt lat="45.5480319" lon="10.4583332"><ele>241.0</ele><time>2026-03-28T17:33:43.77Z</time></trkpt><trkpt lat="45.5479174" lon="10.4582"><ele>240.66666666666666</ele><time>2026-03-28T17:33:44.77Z</time></trkpt><trkpt lat="45.5478068" lon="10.4580575"><ele>240.33333333333331</ele><time>2026-03-28T17:33:45.771Z</time></trkpt><trkpt lat="45.5476946" lon="10.4579014"><ele>240.0</ele><time>2026-03-28T17:33:46.77Z</time></trkpt><trkpt lat="45.5475773" lon="10.4577465"><ele>240.0</ele><time>2026-03-28T17:33:47.77Z</time></trkpt><trkpt lat="45.5474611" lon="10.4575925"><ele>240.0</ele><time>2026-03-28T17:33:48.77Z</time></trkpt><trkpt lat="45.5473444" lon="10.4574436"><ele>240.0</ele><time>2026-03-28T17:33:49.769Z</time></trkpt><trkpt lat="45.5472288" lon="10.457299"><ele>240.0</ele><time>2026-03-28T17:33:50.769Z</time></trkpt><trkpt lat="45.5471258" lon="10.4571599"><ele>240.0</ele><time>2026-03-28T17:33:51.769Z</time></trkpt><trkpt lat="45.5470331" lon="10.4570119"><ele>240.0</ele><time>2026-03-28T17:33:52.77Z</time></trkpt><trkpt lat="45.5469501" lon="10.4568406"><ele>240.0</ele><time>2026-03-28T17:33:53.77Z</time></trkpt><trkpt lat="45.5468878" lon="10.456647"><ele>240.0</ele><time>2026-03-28T17:33:54.769Z</time></trkpt><trkpt lat="45.5468402" lon="10.4564446"><ele>240.0</ele><time>2026-03-28T17:33:55.77Z</time></trkpt><trkpt lat="45.5468099" lon="10.4562295"><ele>240.0</ele><time>2026-03-28T17:33:56.77Z</time></trkpt><trkpt lat="45.546788" lon="10.4560139"><ele>240.0</ele><time>2026-03-28T17:33:57.769Z</time></trkpt><trkpt lat="45.5467702" lon="10.4557949"><ele>240.0</ele><time>2026-03-28T17:33:58.77Z</time></trkpt><trkpt lat="45.5467555" lon="10.4555755"><ele>240.0</ele><time>2026-03-28T17:33:59.77Z</time></trkpt><trkpt lat="45.5467368" lon="10.4553562"><ele>240.0</ele><time>2026-03-28T17:34:00.769Z</time></trkpt><trkpt lat="45.5467186" lon="10.4551377"><ele>240.0</ele><time>2026-03-28T17:34:01.769Z</time></trkpt><trkpt lat="45.5467016" lon="10.4549167"><ele>240.0</ele><time>2026-03-28T17:34:02.771Z</time></trkpt><trkpt lat="45.54668" lon="10.4546963"><ele>239.33333333333331</ele><time>2026-03-28T17:34:03.77Z</time></trkpt><trkpt lat="45.5466604" lon="10.4544766"><ele>238.66666666666666</ele><time>2026-03-28T17:34:04.77Z</time></trkpt><trkpt lat="45.5466385" lon="10.454254"><ele>238.0</ele><time>2026-03-28T17:34:05.769Z</time></trkpt><trkpt lat="45.5466188" lon="10.4540318"><ele>238.0</ele><time>2026-03-28T17:34:06.769Z</time></trkpt><trkpt lat="45.5466006" lon="10.4538119"><ele>238.0</ele><time>2026-03-28T17:34:07.771Z</time></trkpt><trkpt lat="45.546581" lon="10.4535997"><ele>238.0</ele><time>2026-03-28T17:34:08.77Z</time></trkpt><trkpt lat="45.5465576" lon="10.4534005"><ele>238.0</ele><time>2026-03-28T17:34:09.769Z</time></trkpt><trkpt lat="45.5465236" lon="10.4532103"><ele>237.75</ele><time>2026-03-28T17:34:10.77Z</time></trkpt><trkpt lat="45.5464786" lon="10.45303"><ele>237.5</ele><time>2026-03-28T17:34:11.77Z</time></trkpt><trkpt lat="45.546422" lon="10.4528594"><ele>237.25</ele><time>2026-03-28T17:34:12.77Z</time></trkpt><trkpt lat="45.5463635" lon="10.4526896"><ele>237.0</ele><time>2026-03-28T17:34:13.77Z</time></trkpt><trkpt lat="45.5462986" lon="10.4525182"><ele>237.25</ele><time>2026-03-28T17:34:14.77Z</time></trkpt><trkpt lat="45.5462289" lon="10.45235"><ele>237.5</ele><time>2026-03-28T17:34:15.769Z</time></trkpt><trkpt lat="45.5461556" lon="10.4521766"><ele>237.75</ele><time>2026-03-28T17:34:16.77Z</time></trkpt><trkpt lat="45.5460822" lon="10.4519991"><ele>238.0</ele><time>2026-03-28T17:34:17.769Z</time></trkpt><trkpt lat="45.5460059" lon="10.4518197"><ele>237.0</ele><time>2026-03-28T17:34:18.77Z</time></trkpt><trkpt lat="45.5459259" lon="10.4516383"><ele>236.0</ele><time>2026-03-28T17:34:19.77Z</time></trkpt><trkpt lat="45.5458464" lon="10.4514567"><ele>235.0</ele><time>2026-03-28T17:34:20.771Z</time></trkpt><trkpt lat="45.5457677" lon="10.4512738"><ele>235.0</ele><time>2026-03-28T17:34:21.771Z</time></trkpt><trkpt lat="45.5456885" lon="10.4510929"><ele>235.0</ele><time>2026-03-28T17:34:22.77Z</time></trkpt><trkpt lat="45.5456099" lon="10.4509137"><ele>235.0</ele><time>2026-03-28T17:34:23.77Z</time></trkpt><trkpt lat="45.5455363" lon="10.4507339"><ele>235.0</ele><time>2026-03-28T17:34:24.769Z</time></trkpt><trkpt lat="45.545459" lon="10.4505654"><ele>234.5</ele><time>2026-03-28T17:34:25.77Z</time></trkpt><trkpt lat="45.5453819" lon="10.4503963"><ele>234.0</ele><time>2026-03-28T17:34:26.77Z</time></trkpt><trkpt lat="45.5453081" lon="10.4502249"><ele>233.5</ele><time>2026-03-28T17:34:27.77Z</time></trkpt><trkpt lat="45.5452386" lon="10.4500543"><ele>233.0</ele><time>2026-03-28T17:34:28.771Z</time></trkpt><trkpt lat="45.5451659" lon="10.4498866"><ele>233.0</ele><time>2026-03-28T17:34:29.77Z</time></trkpt><trkpt lat="45.5450934" lon="10.4497144"><ele>233.0</ele><time>2026-03-28T17:34:30.77Z</time></trkpt><trkpt lat="45.5450185" lon="10.4495362"><ele>233.0</ele><time>2026-03-28T17:34:31.77Z</time></trkpt><trkpt lat="45.5449421" lon="10.4493559"><ele>233.0</ele><time>2026-03-28T17:34:32.769Z</time></trkpt><trkpt lat="45.5448642" lon="10.4491758"><ele>232.75</ele><time>2026-03-28T17:34:33.771Z</time></trkpt><trkpt lat="45.5447883" lon="10.448997"><ele>232.5</ele><time>2026-03-28T17:34:34.77Z</time></trkpt><trkpt lat="45.5447146" lon="10.4488182"><ele>232.25</ele><time>2026-03-28T17:34:35.771Z</time></trkpt><trkpt lat="45.5446405" lon="10.4486374"><ele>232.0</ele><time>2026-03-28T17:34:36.77Z</time></trkpt><trkpt lat="45.5445648" lon="10.4484571"><ele>231.25</ele><time>2026-03-28T17:34:37.771Z</time></trkpt><trkpt lat="45.5444861" lon="10.4482774"><ele>230.5</ele><time>2026-03-28T17:34:38.77Z</time></trkpt><trkpt lat="45.5444079" lon="10.4480997"><ele>229.75</ele><time>2026-03-28T17:34:39.77Z</time></trkpt><trkpt lat="45.5443285" lon="10.4479157"><ele>229.0</ele><time>2026-03-28T17:34:40.77Z</time></trkpt><trkpt lat="45.5442505" lon="10.4477329"><ele>229.0</ele><time>2026-03-28T17:34:41.77Z</time></trkpt><trkpt lat="45.5441708" lon="10.4475465"><ele>229.0</ele><time>2026-03-28T17:34:42.77Z</time></trkpt><trkpt lat="45.5440906" lon="10.4473607"><ele>229.0</ele><time>2026-03-28T17:34:43.769Z</time></trkpt><trkpt lat="45.5440088" lon="10.4471758"><ele>229.0</ele><time>2026-03-28T17:34:44.77Z</time></trkpt><trkpt lat="45.5439283" lon="10.446986"><ele>229.0</ele><time>2026-03-28T17:34:45.769Z</time></trkpt><trkpt lat="45.5438467" lon="10.4467938"><ele>229.0</ele><time>2026-03-28T17:34:46.769Z</time></trkpt><trkpt lat="45.5437685" lon="10.4466058"><ele>229.0</ele><time>2026-03-28T17:34:47.77Z</time></trkpt><trkpt lat="45.5436883" lon="10.4464149"><ele>229.0</ele><time>2026-03-28T17:34:48.77Z</time></trkpt><trkpt lat="45.5436081" lon="10.4462257"><ele>229.0</ele><time>2026-03-28T17:34:49.77Z</time></trkpt><trkpt lat="45.5435251" lon="10.4460372"><ele>229.0</ele><time>2026-03-28T17:34:50.771Z</time></trkpt><trkpt lat="45.5434367" lon="10.4458474"><ele>229.0</ele><time>2026-03-28T17:34:51.77Z</time></trkpt><trkpt lat="45.5433506" lon="10.4456527"><ele>229.0</ele><time>2026-03-28T17:34:52.77Z</time></trkpt><trkpt lat="45.5432648" lon="10.4454525"><ele>229.66666666666666</ele><time>2026-03-28T17:34:53.769Z</time></trkpt><trkpt lat="45.5431774" lon="10.4452462"><ele>230.33333333333331</ele><time>2026-03-28T17:34:54.77Z</time></trkpt><trkpt lat="45.5430903" lon="10.4450332"><ele>231.0</ele><time>2026-03-28T17:34:55.77Z</time></trkpt><trkpt lat="45.5430008" lon="10.4448205"><ele>229.33333333333331</ele><time>2026-03-28T17:34:56.77Z</time></trkpt><trkpt lat="45.5429127" lon="10.4446141"><ele>227.66666666666666</ele><time>2026-03-28T17:34:57.77Z</time></trkpt><trkpt lat="45.542826" lon="10.4444126"><ele>226.0</ele><time>2026-03-28T17:34:58.769Z</time></trkpt><trkpt lat="45.5427413" lon="10.4442166"><ele>226.0</ele><time>2026-03-28T17:34:59.77Z</time></trkpt><trkpt lat="45.5426443" lon="10.4440343"><ele>226.0</ele><time>2026-03-28T17:35:00.769Z</time></trkpt><trkpt lat="45.5425335" lon="10.443879"><ele>226.0</ele><time>2026-03-28T17:35:01.769Z</time></trkpt><trkpt lat="45.5424145" lon="10.4437592"><ele>223.5</ele><time>2026-03-28T17:35:02.77Z</time></trkpt><trkpt lat="45.5422914" lon="10.4436712"><ele>221.0</ele><time>2026-03-28T17:35:03.77Z</time></trkpt><trkpt lat="45.5421674" lon="10.4436164"><ele>218.5</ele><time>2026-03-28T17:35:04.771Z</time></trkpt><trkpt lat="45.5420575" lon="10.4435799"><ele>216.0</ele><time>2026-03-28T17:35:05.771Z</time></trkpt><trkpt lat="45.5419664" lon="10.4435517"><ele>216.0</ele><time>2026-03-28T17:35:06.77Z</time></trkpt><trkpt lat="45.5418965" lon="10.4435338"><ele>216.00000000000003</ele><time>2026-03-28T17:35:07.771Z</time></trkpt><trkpt lat="45.5418062" lon="10.443526"><ele>216.00000000000003</ele><time>2026-03-28T17:35:09.77Z</time></trkpt><trkpt lat="45.5417621" lon="10.4436066"><ele>216.0</ele><time>2026-03-28T17:35:11.769Z</time></trkpt><trkpt lat="45.5417325" lon="10.4437169"><ele>216.0</ele><time>2026-03-28T17:35:13.77Z</time></trkpt><trkpt lat="45.5416891" lon="10.4439074"><ele>217.4</ele><time>2026-03-28T17:35:15.77Z</time></trkpt><trkpt lat="45.5416551" lon="10.4440388"><ele>218.8</ele><time>2026-03-28T17:35:16.77Z</time></trkpt><trkpt lat="45.5416205" lon="10.4441815"><ele>220.20000000000002</ele><time>2026-03-28T17:35:17.77Z</time></trkpt><trkpt lat="45.5415818" lon="10.4443412"><ele>221.60000000000002</ele><time>2026-03-28T17:35:18.769Z</time></trkpt><trkpt lat="45.5415418" lon="10.4444995"><ele>223.0</ele><time>2026-03-28T17:35:19.77Z</time></trkpt><trkpt lat="45.5415035" lon="10.444646"><ele>223.33333333333331</ele><time>2026-03-28T17:35:20.77Z</time></trkpt><trkpt lat="45.5414672" lon="10.4447756"><ele>223.66666666666666</ele><time>2026-03-28T17:35:21.77Z</time></trkpt><trkpt lat="45.5414355" lon="10.4448897"><ele>224.0</ele><time>2026-03-28T17:35:22.771Z</time></trkpt><trkpt lat="45.5414072" lon="10.444997"><ele>224.33333333333331</ele><time>2026-03-28T17:35:23.769Z</time></trkpt><trkpt lat="45.5413759" lon="10.4451048"><ele>224.66666666666666</ele><time>2026-03-28T17:35:24.77Z</time></trkpt><trkpt lat="45.5413456" lon="10.4452082"><ele>225.0</ele><time>2026-03-28T17:35:25.771Z</time></trkpt><trkpt lat="45.5413194" lon="10.4452967"><ele>225.0</ele><time>2026-03-28T17:35:26.77Z</time></trkpt><trkpt lat="45.5412832" lon="10.4454061"><ele>225.0</ele><time>2026-03-28T17:35:28.771Z</time></trkpt><trkpt lat="45.5412415" lon="10.4455165"><ele>225.0</ele><time>2026-03-28T17:35:31.769Z</time></trkpt><trkpt lat="45.541206" lon="10.4456383"><ele>225.0</ele><time>2026-03-28T17:35:33.769Z</time></trkpt><trkpt lat="45.541134" lon="10.4457362"><ele>225.0</ele><time>2026-03-28T17:35:35.769Z</time></trkpt><trkpt lat="45.5410382" lon="10.4457669"><ele>224.8</ele><time>2026-03-28T17:35:37.77Z</time></trkpt><trkpt lat="45.5409722" lon="10.4457506"><ele>224.6</ele><time>2026-03-28T17:35:38.77Z</time></trkpt><trkpt lat="45.5408845" lon="10.4457441"><ele>224.39999999999998</ele><time>2026-03-28T17:35:39.77Z</time></trkpt><trkpt lat="45.5407588" lon="10.4457199"><ele>224.2</ele><time>2026-03-28T17:35:40.77Z</time></trkpt><trkpt lat="45.5406266" lon="10.4456765"><ele>224.0</ele><time>2026-03-28T17:35:41.77Z</time></trkpt><trkpt lat="45.5405046" lon="10.4456326"><ele>224.0</ele><time>2026-03-28T17:35:42.77Z</time></trkpt><trkpt lat="45.5403936" lon="10.4456007"><ele>224.0</ele><time>2026-03-28T17:35:43.771Z</time></trkpt><trkpt lat="45.5402759" lon="10.4455598"><ele>224.0</ele><time>2026-03-28T17:35:44.771Z</time></trkpt><trkpt lat="45.5401453" lon="10.4455196"><ele>224.0</ele><time>2026-03-28T17:35:45.77Z</time></trkpt><trkpt lat="45.5400061" lon="10.4454739"><ele>223.25</ele><time>2026-03-28T17:35:46.77Z</time></trkpt><trkpt lat="45.5398661" lon="10.4454148"><ele>222.5</ele><time>2026-03-28T17:35:47.771Z</time></trkpt><trkpt lat="45.5397257" lon="10.4453568"><ele>221.75</ele><time>2026-03-28T17:35:48.77Z</time></trkpt><trkpt lat="45.5395863" lon="10.4453084"><ele>221.0</ele><time>2026-03-28T17:35:49.77Z</time></trkpt><trkpt lat="45.5394599" lon="10.445265"><ele>220.60000000000002</ele><time>2026-03-28T17:35:50.769Z</time></trkpt><trkpt lat="45.5393431" lon="10.4452265"><ele>220.20000000000002</ele><time>2026-03-28T17:35:51.77Z</time></trkpt><trkpt lat="45.5392429" lon="10.4451916"><ele>219.79999999999998</ele><time>2026-03-28T17:35:52.769Z</time></trkpt><trkpt lat="45.5391592" lon="10.4451582"><ele>219.39999999999998</ele><time>2026-03-28T17:35:53.771Z</time></trkpt><trkpt lat="45.5390893" lon="10.4451226"><ele>219.0</ele><time>2026-03-28T17:35:54.771Z</time></trkpt><trkpt lat="45.5389897" lon="10.4450507"><ele>219.0</ele><time>2026-03-28T17:35:56.77Z</time></trkpt><trkpt lat="45.538884" lon="10.4449694"><ele>218.99999999999997</ele><time>2026-03-28T17:35:58.769Z</time></trkpt><trkpt lat="45.5388061" lon="10.4449764"><ele>218.99999999999997</ele><time>2026-03-28T17:35:59.769Z</time></trkpt><trkpt lat="45.5387143" lon="10.4449822"><ele>219.0</ele><time>2026-03-28T17:36:00.77Z</time></trkpt><trkpt lat="45.5386057" lon="10.4449609"><ele>219.0</ele><time>2026-03-28T17:36:01.77Z</time></trkpt><trkpt lat="45.5384754" lon="10.4449136"><ele>219.5</ele><time>2026-03-28T17:36:02.77Z</time></trkpt><trkpt lat="45.5383408" lon="10.4448635"><ele>220.0</ele><time>2026-03-28T17:36:03.77Z</time></trkpt><trkpt lat="45.5381939" lon="10.4448057"><ele>220.5</ele><time>2026-03-28T17:36:04.77Z</time></trkpt><trkpt lat="45.5380425" lon="10.4447507"><ele>221.0</ele><time>2026-03-28T17:36:05.769Z</time></trkpt><trkpt lat="45.5378842" lon="10.4446935"><ele>221.33333333333334</ele><time>2026-03-28T17:36:06.771Z</time></trkpt><trkpt lat="45.5377273" lon="10.4446358"><ele>221.66666666666669</ele><time>2026-03-28T17:36:07.769Z</time></trkpt><trkpt lat="45.5375726" lon="10.4445854"><ele>222.0</ele><time>2026-03-28T17:36:08.77Z</time></trkpt><trkpt lat="45.537419" lon="10.4445289"><ele>220.66666666666669</ele><time>2026-03-28T17:36:09.77Z</time></trkpt><trkpt lat="45.5372663" lon="10.444468"><ele>219.33333333333334</ele><time>2026-03-28T17:36:10.77Z</time></trkpt><trkpt lat="45.537107" lon="10.4444149"><ele>218.0</ele><time>2026-03-28T17:36:11.769Z</time></trkpt><trkpt lat="45.5369458" lon="10.4443749"><ele>217.33333333333334</ele><time>2026-03-28T17:36:12.77Z</time></trkpt><trkpt lat="45.5367805" lon="10.4443492"><ele>216.66666666666669</ele><time>2026-03-28T17:36:13.77Z</time></trkpt><trkpt lat="45.5366085" lon="10.444346"><ele>216.0</ele><time>2026-03-28T17:36:14.771Z</time></trkpt><trkpt lat="45.5364287" lon="10.4443534"><ele>216.0</ele><time>2026-03-28T17:36:15.769Z</time></trkpt><trkpt lat="45.5362434" lon="10.4443721"><ele>216.0</ele><time>2026-03-28T17:36:16.77Z</time></trkpt><trkpt lat="45.5360556" lon="10.4443967"><ele>216.0</ele><time>2026-03-28T17:36:17.77Z</time></trkpt><trkpt lat="45.5358694" lon="10.4444149"><ele>214.66666666666669</ele><time>2026-03-28T17:36:18.769Z</time></trkpt><trkpt lat="45.5356855" lon="10.4444246"><ele>213.33333333333334</ele><time>2026-03-28T17:36:19.769Z</time></trkpt><trkpt lat="45.5355023" lon="10.4444248"><ele>212.0</ele><time>2026-03-28T17:36:20.77Z</time></trkpt><trkpt lat="45.5353174" lon="10.4444047"><ele>211.66666666666669</ele><time>2026-03-28T17:36:21.769Z</time></trkpt><trkpt lat="45.5351329" lon="10.4443593"><ele>211.33333333333331</ele><time>2026-03-28T17:36:22.77Z</time></trkpt><trkpt lat="45.5349508" lon="10.4442957"><ele>211.0</ele><time>2026-03-28T17:36:23.77Z</time></trkpt><trkpt lat="45.5347775" lon="10.4442044"><ele>211.0</ele><time>2026-03-28T17:36:24.769Z</time></trkpt><trkpt lat="45.5346102" lon="10.4441027"><ele>211.0</ele><time>2026-03-28T17:36:25.769Z</time></trkpt><trkpt lat="45.5344508" lon="10.4440212"><ele>211.0</ele><time>2026-03-28T17:36:26.77Z</time></trkpt><trkpt lat="45.534295" lon="10.4439706"><ele>211.0</ele><time>2026-03-28T17:36:27.77Z</time></trkpt><trkpt lat="45.5341377" lon="10.4439357"><ele>211.0</ele><time>2026-03-28T17:36:28.769Z</time></trkpt><trkpt lat="45.5339781" lon="10.44392"><ele>211.0</ele><time>2026-03-28T17:36:29.77Z</time></trkpt><trkpt lat="45.5338119" lon="10.4439133"><ele>210.66666666666666</ele><time>2026-03-28T17:36:30.769Z</time></trkpt><trkpt lat="45.5336434" lon="10.4439061"><ele>210.33333333333331</ele><time>2026-03-28T17:36:31.769Z</time></trkpt><trkpt lat="45.533474" lon="10.4439021"><ele>210.0</ele><time>2026-03-28T17:36:32.769Z</time></trkpt><trkpt lat="45.5333044" lon="10.4438969"><ele>210.0</ele><time>2026-03-28T17:36:33.769Z</time></trkpt><trkpt lat="45.5331349" lon="10.4438905"><ele>210.0</ele><time>2026-03-28T17:36:34.769Z</time></trkpt><trkpt lat="45.5329647" lon="10.4438819"><ele>210.0</ele><time>2026-03-28T17:36:35.771Z</time></trkpt><trkpt lat="45.5327957" lon="10.4438724"><ele>210.33333333333331</ele><time>2026-03-28T17:36:36.77Z</time></trkpt><trkpt lat="45.5326266" lon="10.4438553"><ele>210.66666666666666</ele><time>2026-03-28T17:36:37.77Z</time></trkpt><trkpt lat="45.532456" lon="10.4438319"><ele>211.0</ele><time>2026-03-28T17:36:38.77Z</time></trkpt><trkpt lat="45.5322854" lon="10.4438031"><ele>210.33333333333331</ele><time>2026-03-28T17:36:39.77Z</time></trkpt><trkpt lat="45.5321159" lon="10.4437678"><ele>209.66666666666669</ele><time>2026-03-28T17:36:40.771Z</time></trkpt><trkpt lat="45.5319474" lon="10.4437331"><ele>209.0</ele><time>2026-03-28T17:36:41.771Z</time></trkpt><trkpt lat="45.5317777" lon="10.4436988"><ele>209.0</ele><time>2026-03-28T17:36:42.769Z</time></trkpt><trkpt lat="45.5316076" lon="10.4436627"><ele>209.0</ele><time>2026-03-28T17:36:43.77Z</time></trkpt><trkpt lat="45.5314393" lon="10.4436237"><ele>209.0</ele><time>2026-03-28T17:36:44.769Z</time></trkpt><trkpt lat="45.5312731" lon="10.4435869"><ele>209.0</ele><time>2026-03-28T17:36:45.77Z</time></trkpt><trkpt lat="45.5311216" lon="10.4435471"><ele>209.0</ele><time>2026-03-28T17:36:46.771Z</time></trkpt><trkpt lat="45.5309791" lon="10.4434887"><ele>209.0</ele><time>2026-03-28T17:36:47.769Z</time></trkpt><trkpt lat="45.5308629" lon="10.4434018"><ele>209.0</ele><time>2026-03-28T17:36:48.769Z</time></trkpt><trkpt lat="45.5307734" lon="10.4432944"><ele>209.00000000000003</ele><time>2026-03-28T17:36:49.77Z</time></trkpt><trkpt lat="45.5306955" lon="10.4431993"><ele>209.0</ele><time>2026-03-28T17:36:50.77Z</time></trkpt><trkpt lat="45.5306121" lon="10.4431326"><ele>209.0</ele><time>2026-03-28T17:36:51.769Z</time></trkpt><trkpt lat="45.5305335" lon="10.4431298"><ele>209.0</ele><time>2026-03-28T17:36:52.77Z</time></trkpt><trkpt lat="45.5304649" lon="10.4431672"><ele>209.00000000000003</ele><time>2026-03-28T17:36:53.771Z</time></trkpt><trkpt lat="45.5304239" lon="10.4432543"><ele>209.0</ele><time>2026-03-28T17:36:54.77Z</time></trkpt><trkpt lat="45.5304161" lon="10.4433741"><ele>209.0</ele><time>2026-03-28T17:36:55.769Z</time></trkpt><trkpt lat="45.5304373" lon="10.4435131"><ele>209.0</ele><time>2026-03-28T17:36:56.769Z</time></trkpt><trkpt lat="45.5304802" lon="10.4436667"><ele>209.0</ele><time>2026-03-28T17:36:57.77Z</time></trkpt><trkpt lat="45.5305168" lon="10.443824"><ele>209.0</ele><time>2026-03-28T17:36:58.769Z</time></trkpt><trkpt lat="45.5305194" lon="10.4440134"><ele>209.0</ele><time>2026-03-28T17:36:59.77Z</time></trkpt><trkpt lat="45.5305018" lon="10.4442148"><ele>209.0</ele><time>2026-03-28T17:37:00.77Z</time></trkpt><trkpt lat="45.5304598" lon="10.4444385"><ele>209.0</ele><time>2026-03-28T17:37:01.769Z</time></trkpt><trkpt lat="45.5304179" lon="10.4446654"><ele>210.66666666666669</ele><time>2026-03-28T17:37:02.77Z</time></trkpt><trkpt lat="45.5303757" lon="10.4448992"><ele>212.33333333333331</ele><time>2026-03-28T17:37:03.769Z</time></trkpt><trkpt lat="45.5303306" lon="10.445135"><ele>214.0</ele><time>2026-03-28T17:37:04.77Z</time></trkpt><trkpt lat="45.5302853" lon="10.4453783"><ele>213.66666666666666</ele><time>2026-03-28T17:37:05.77Z</time></trkpt><trkpt lat="45.5302413" lon="10.4456203"><ele>213.33333333333331</ele><time>2026-03-28T17:37:06.769Z</time></trkpt><trkpt lat="45.5301969" lon="10.4458599"><ele>213.0</ele><time>2026-03-28T17:37:07.77Z</time></trkpt><trkpt lat="45.5301505" lon="10.446088"><ele>212.75</ele><time>2026-03-28T17:37:08.77Z</time></trkpt><trkpt lat="45.5300988" lon="10.4463072"><ele>212.5</ele><time>2026-03-28T17:37:09.77Z</time></trkpt><trkpt lat="45.5300478" lon="10.4465049"><ele>212.25</ele><time>2026-03-28T17:37:10.769Z</time></trkpt><trkpt lat="45.5299961" lon="10.4466856"><ele>212.0</ele><time>2026-03-28T17:37:11.769Z</time></trkpt><trkpt lat="45.5299422" lon="10.4468469"><ele>212.0</ele><time>2026-03-28T17:37:12.771Z</time></trkpt><trkpt lat="45.5298789" lon="10.4469849"><ele>212.0</ele><time>2026-03-28T17:37:13.769Z</time></trkpt><trkpt lat="45.5297952" lon="10.4471151"><ele>212.0</ele><time>2026-03-28T17:37:14.769Z</time></trkpt><trkpt lat="45.5296995" lon="10.4472299"><ele>212.0</ele><time>2026-03-28T17:37:15.771Z</time></trkpt><trkpt lat="45.5295907" lon="10.4473377"><ele>212.5</ele><time>2026-03-28T17:37:16.77Z</time></trkpt><trkpt lat="45.5294761" lon="10.4474442"><ele>213.0</ele><time>2026-03-28T17:37:17.771Z</time></trkpt><trkpt lat="45.5293552" lon="10.4475468"><ele>213.5</ele><time>2026-03-28T17:37:18.77Z</time></trkpt><trkpt lat="45.5292333" lon="10.4476528"><ele>214.0</ele><time>2026-03-28T17:37:19.77Z</time></trkpt><trkpt lat="45.5291132" lon="10.4477594"><ele>214.0</ele><time>2026-03-28T17:37:20.77Z</time></trkpt><trkpt lat="45.5289922" lon="10.4478768"><ele>214.0</ele><time>2026-03-28T17:37:21.771Z</time></trkpt><trkpt lat="45.5288733" lon="10.4480072"><ele>214.0</ele><time>2026-03-28T17:37:22.77Z</time></trkpt><trkpt lat="45.5287622" lon="10.448162"><ele>212.0</ele><time>2026-03-28T17:37:23.77Z</time></trkpt><trkpt lat="45.5286691" lon="10.4483379"><ele>210.0</ele><time>2026-03-28T17:37:24.77Z</time></trkpt><trkpt lat="45.5285993" lon="10.4485335"><ele>208.0</ele><time>2026-03-28T17:37:25.769Z</time></trkpt><trkpt lat="45.5285551" lon="10.4487398"><ele>208.0</ele><time>2026-03-28T17:37:26.769Z</time></trkpt><trkpt lat="45.5285359" lon="10.4489521"><ele>208.0</ele><time>2026-03-28T17:37:27.77Z</time></trkpt><trkpt lat="45.5285383" lon="10.4491738"><ele>208.0</ele><time>2026-03-28T17:37:28.769Z</time></trkpt><trkpt lat="45.5285495" lon="10.4494009"><ele>208.33333333333331</ele><time>2026-03-28T17:37:29.77Z</time></trkpt><trkpt lat="45.5285582" lon="10.4496314"><ele>208.66666666666669</ele><time>2026-03-28T17:37:30.769Z</time></trkpt><trkpt lat="45.5285582" lon="10.4498571"><ele>209.0</ele><time>2026-03-28T17:37:31.77Z</time></trkpt><trkpt lat="45.5285452" lon="10.4500786"><ele>209.0</ele><time>2026-03-28T17:37:32.771Z</time></trkpt><trkpt lat="45.5285148" lon="10.4502932"><ele>209.0</ele><time>2026-03-28T17:37:33.769Z</time></trkpt><trkpt lat="45.5284673" lon="10.450495"><ele>209.0</ele><time>2026-03-28T17:37:34.769Z</time></trkpt><trkpt lat="45.5284052" lon="10.4506872"><ele>208.75</ele><time>2026-03-28T17:37:35.77Z</time></trkpt><trkpt lat="45.5283311" lon="10.4508693"><ele>208.5</ele><time>2026-03-28T17:37:36.771Z</time></trkpt><trkpt lat="45.5282426" lon="10.4510376"><ele>208.25</ele><time>2026-03-28T17:37:37.77Z</time></trkpt><trkpt lat="45.5281403" lon="10.4511894"><ele>208.0</ele><time>2026-03-28T17:37:38.77Z</time></trkpt><trkpt lat="45.5280295" lon="10.4513341"><ele>208.0</ele><time>2026-03-28T17:37:39.769Z</time></trkpt><trkpt lat="45.5279147" lon="10.4514769"><ele>208.0</ele><time>2026-03-28T17:37:40.771Z</time></trkpt><trkpt lat="45.5277995" lon="10.4516289"><ele>208.0</ele><time>2026-03-28T17:37:41.771Z</time></trkpt><trkpt lat="45.5276878" lon="10.4517824"><ele>208.0</ele><time>2026-03-28T17:37:42.77Z</time></trkpt><trkpt lat="45.5275835" lon="10.4519418"><ele>208.0</ele><time>2026-03-28T17:37:43.77Z</time></trkpt><trkpt lat="45.5274932" lon="10.4521034"><ele>208.0</ele><time>2026-03-28T17:37:44.77Z</time></trkpt><trkpt lat="45.5274113" lon="10.4522728"><ele>208.0</ele><time>2026-03-28T17:37:45.77Z</time></trkpt><trkpt lat="45.5273347" lon="10.4524407"><ele>208.25</ele><time>2026-03-28T17:37:46.769Z</time></trkpt><trkpt lat="45.5272644" lon="10.4525974"><ele>208.5</ele><time>2026-03-28T17:37:47.771Z</time></trkpt><trkpt lat="45.5272019" lon="10.4527405"><ele>208.75</ele><time>2026-03-28T17:37:48.769Z</time></trkpt><trkpt lat="45.5271394" lon="10.4528732"><ele>209.0</ele><time>2026-03-28T17:37:49.77Z</time></trkpt><trkpt lat="45.5270749" lon="10.4530035"><ele>208.25</ele><time>2026-03-28T17:37:50.769Z</time></trkpt><trkpt lat="45.5270057" lon="10.4531355"><ele>207.5</ele><time>2026-03-28T17:37:51.77Z</time></trkpt><trkpt lat="45.5269314" lon="10.4532692"><ele>206.75</ele><time>2026-03-28T17:37:52.769Z</time></trkpt><trkpt lat="45.5268537" lon="10.4534027"><ele>206.0</ele><time>2026-03-28T17:37:53.77Z</time></trkpt><trkpt lat="45.5267734" lon="10.4535356"><ele>206.0</ele><time>2026-03-28T17:37:54.769Z</time></trkpt><trkpt lat="45.5266909" lon="10.4536666"><ele>206.0</ele><time>2026-03-28T17:37:55.771Z</time></trkpt><trkpt lat="45.5266109" lon="10.4537987"><ele>206.0</ele><time>2026-03-28T17:37:56.77Z</time></trkpt><trkpt lat="45.5265325" lon="10.4539373"><ele>206.0</ele><time>2026-03-28T17:37:57.77Z</time></trkpt><trkpt lat="45.5264592" lon="10.4540883"><ele>205.75</ele><time>2026-03-28T17:37:58.769Z</time></trkpt><trkpt lat="45.5263965" lon="10.4542573"><ele>205.5</ele><time>2026-03-28T17:37:59.77Z</time></trkpt><trkpt lat="45.5263364" lon="10.4544314"><ele>205.25</ele><time>2026-03-28T17:38:00.77Z</time></trkpt><trkpt lat="45.5262725" lon="10.4546077"><ele>205.0</ele><time>2026-03-28T17:38:01.771Z</time></trkpt><trkpt lat="45.5262049" lon="10.4547866"><ele>205.0</ele><time>2026-03-28T17:38:02.771Z</time></trkpt><trkpt lat="45.5261377" lon="10.4549704"><ele>205.0</ele><time>2026-03-28T17:38:03.769Z</time></trkpt><trkpt lat="45.5260757" lon="10.4551408"><ele>205.0</ele><time>2026-03-28T17:38:04.77Z</time></trkpt><trkpt lat="45.526015" lon="10.4553072"><ele>205.0</ele><time>2026-03-28T17:38:05.77Z</time></trkpt><trkpt lat="45.5259536" lon="10.4554726"><ele>205.0</ele><time>2026-03-28T17:38:06.771Z</time></trkpt><trkpt lat="45.5258945" lon="10.4556387"><ele>205.0</ele><time>2026-03-28T17:38:07.77Z</time></trkpt><trkpt lat="45.5258377" lon="10.4557993"><ele>205.0</ele><time>2026-03-28T17:38:08.77Z</time></trkpt><trkpt lat="45.5257813" lon="10.4559589"><ele>205.0</ele><time>2026-03-28T17:38:09.77Z</time></trkpt><trkpt lat="45.5257267" lon="10.4561025"><ele>205.0</ele><time>2026-03-28T17:38:10.77Z</time></trkpt><trkpt lat="45.525671" lon="10.4562319"><ele>205.0</ele><time>2026-03-28T17:38:11.769Z</time></trkpt><trkpt lat="45.5256197" lon="10.4563484"><ele>205.0</ele><time>2026-03-28T17:38:12.77Z</time></trkpt><trkpt lat="45.5255707" lon="10.4564507"><ele>205.0</ele><time>2026-03-28T17:38:13.771Z</time></trkpt><trkpt lat="45.5255221" lon="10.456556"><ele>205.0</ele><time>2026-03-28T17:38:14.769Z</time></trkpt><trkpt lat="45.5254647" lon="10.456678"><ele>205.0</ele><time>2026-03-28T17:38:15.77Z</time></trkpt><trkpt lat="45.5253979" lon="10.4568147"><ele>205.0</ele><time>2026-03-28T17:38:16.77Z</time></trkpt><trkpt lat="45.5253307" lon="10.4569527"><ele>205.0</ele><time>2026-03-28T17:38:17.77Z</time></trkpt><trkpt lat="45.5252618" lon="10.4570954"><ele>205.0</ele><time>2026-03-28T17:38:18.77Z</time></trkpt><trkpt lat="45.5251895" lon="10.4572394"><ele>204.5</ele><time>2026-03-28T17:38:19.77Z</time></trkpt><trkpt lat="45.525114" lon="10.4573944"><ele>204.0</ele><time>2026-03-28T17:38:20.77Z</time></trkpt><trkpt lat="45.5250342" lon="10.4575513"><ele>203.5</ele><time>2026-03-28T17:38:21.77Z</time></trkpt><trkpt lat="45.5249487" lon="10.4577142"><ele>203.0</ele><time>2026-03-28T17:38:22.77Z</time></trkpt><trkpt lat="45.5248657" lon="10.4578824"><ele>203.0</ele><time>2026-03-28T17:38:23.77Z</time></trkpt><trkpt lat="45.5247868" lon="10.4580519"><ele>203.0</ele><time>2026-03-28T17:38:24.769Z</time></trkpt><trkpt lat="45.5247137" lon="10.4582229"><ele>203.0</ele><time>2026-03-28T17:38:25.771Z</time></trkpt><trkpt lat="45.5246372" lon="10.4584103"><ele>203.0</ele><time>2026-03-28T17:38:26.769Z</time></trkpt><trkpt lat="45.5245624" lon="10.4585963"><ele>202.0</ele><time>2026-03-28T17:38:27.77Z</time></trkpt><trkpt lat="45.5244851" lon="10.4587856"><ele>201.0</ele><time>2026-03-28T17:38:28.77Z</time></trkpt><trkpt lat="45.5244067" lon="10.4589727"><ele>200.0</ele><time>2026-03-28T17:38:29.769Z</time></trkpt><trkpt lat="45.5243262" lon="10.4591592"><ele>200.0</ele><time>2026-03-28T17:38:30.77Z</time></trkpt><trkpt lat="45.5242364" lon="10.4593344"><ele>200.0</ele><time>2026-03-28T17:38:31.77Z</time></trkpt><trkpt lat="45.5241246" lon="10.4594915"><ele>200.0</ele><time>2026-03-28T17:38:32.771Z</time></trkpt><trkpt lat="45.5239894" lon="10.4596258"><ele>200.0</ele><time>2026-03-28T17:38:33.77Z</time></trkpt><trkpt lat="45.523844" lon="10.4597212"><ele>200.0</ele><time>2026-03-28T17:38:34.771Z</time></trkpt><trkpt lat="45.5236923" lon="10.4597878"><ele>200.0</ele><time>2026-03-28T17:38:35.77Z</time></trkpt><trkpt lat="45.5235406" lon="10.4598311"><ele>200.0</ele><time>2026-03-28T17:38:36.771Z</time></trkpt><trkpt lat="45.5233996" lon="10.4598673"><ele>200.0</ele><time>2026-03-28T17:38:37.771Z</time></trkpt><trkpt lat="45.5232684" lon="10.4599005"><ele>200.0</ele><time>2026-03-28T17:38:38.769Z</time></trkpt><trkpt lat="45.5231384" lon="10.45993"><ele>200.0</ele><time>2026-03-28T17:38:39.769Z</time></trkpt><trkpt lat="45.5230096" lon="10.4599614"><ele>200.25</ele><time>2026-03-28T17:38:40.771Z</time></trkpt><trkpt lat="45.5228758" lon="10.4599814"><ele>200.5</ele><time>2026-03-28T17:38:41.771Z</time></trkpt><trkpt lat="45.5227321" lon="10.4599945"><ele>200.75</ele><time>2026-03-28T17:38:42.77Z</time></trkpt><trkpt lat="45.5226002" lon="10.4600129"><ele>201.0</ele><time>2026-03-28T17:38:43.771Z</time></trkpt><trkpt lat="45.5224798" lon="10.4600296"><ele>201.0</ele><time>2026-03-28T17:38:44.77Z</time></trkpt><trkpt lat="45.5223655" lon="10.4600515"><ele>201.0</ele><time>2026-03-28T17:38:45.77Z</time></trkpt><trkpt lat="45.5222529" lon="10.4600726"><ele>201.0</ele><time>2026-03-28T17:38:46.769Z</time></trkpt><trkpt lat="45.5221487" lon="10.4600937"><ele>201.0</ele><time>2026-03-28T17:38:47.769Z</time></trkpt><trkpt lat="45.5220609" lon="10.4600966"><ele>201.0</ele><time>2026-03-28T17:38:48.769Z</time></trkpt><trkpt lat="45.5219892" lon="10.4600662"><ele>201.0</ele><time>2026-03-28T17:38:49.771Z</time></trkpt><trkpt lat="45.5219359" lon="10.4600032"><ele>201.0</ele><time>2026-03-28T17:38:50.77Z</time></trkpt><trkpt lat="45.5218823" lon="10.4599004"><ele>201.0</ele><time>2026-03-28T17:38:51.771Z</time></trkpt><trkpt lat="45.5218011" lon="10.4598031"><ele>201.0</ele><time>2026-03-28T17:38:52.77Z</time></trkpt><trkpt lat="45.5216976" lon="10.4597252"><ele>201.0</ele><time>2026-03-28T17:38:53.769Z</time></trkpt><trkpt lat="45.5215865" lon="10.4596521"><ele>200.5</ele><time>2026-03-28T17:38:54.77Z</time></trkpt><trkpt lat="45.5214642" lon="10.4595733"><ele>200.0</ele><time>2026-03-28T17:38:55.769Z</time></trkpt><trkpt lat="45.52133" lon="10.4594919"><ele>199.5</ele><time>2026-03-28T17:38:56.77Z</time></trkpt><trkpt lat="45.5211907" lon="10.4594089"><ele>199.0</ele><time>2026-03-28T17:38:57.77Z</time></trkpt><trkpt lat="45.5210551" lon="10.4593239"><ele>199.0</ele><time>2026-03-28T17:38:58.77Z</time></trkpt><trkpt lat="45.520922" lon="10.4592412"><ele>199.0</ele><time>2026-03-28T17:38:59.771Z</time></trkpt><trkpt lat="45.5207926" lon="10.4591528"><ele>199.0</ele><time>2026-03-28T17:39:00.77Z</time></trkpt><trkpt lat="45.5206686" lon="10.4590647"><ele>199.0</ele><time>2026-03-28T17:39:01.77Z</time></trkpt><trkpt lat="45.5205448" lon="10.4589689"><ele>199.0</ele><time>2026-03-28T17:39:02.77Z</time></trkpt><trkpt lat="45.5204241" lon="10.4588665"><ele>199.0</ele><time>2026-03-28T17:39:03.77Z</time></trkpt><trkpt lat="45.5203068" lon="10.4587546"><ele>199.0</ele><time>2026-03-28T17:39:04.771Z</time></trkpt><trkpt lat="45.5201896" lon="10.4586444"><ele>199.0</ele><time>2026-03-28T17:39:05.769Z</time></trkpt><trkpt lat="45.5200652" lon="10.4585504"><ele>198.25</ele><time>2026-03-28T17:39:06.769Z</time></trkpt><trkpt lat="45.5199346" lon="10.4584708"><ele>197.5</ele><time>2026-03-28T17:39:07.771Z</time></trkpt><trkpt lat="45.5198046" lon="10.4584015"><ele>196.75</ele><time>2026-03-28T17:39:08.771Z</time></trkpt><trkpt lat="45.5196838" lon="10.45835"><ele>196.0</ele><time>2026-03-28T17:39:09.77Z</time></trkpt><trkpt lat="45.5195723" lon="10.4583112"><ele>195.5</ele><time>2026-03-28T17:39:10.769Z</time></trkpt><trkpt lat="45.5194601" lon="10.4582874"><ele>195.0</ele><time>2026-03-28T17:39:11.771Z</time></trkpt><trkpt lat="45.5193323" lon="10.45828"><ele>194.5</ele><time>2026-03-28T17:39:12.77Z</time></trkpt><trkpt lat="45.5192038" lon="10.4582595"><ele>194.0</ele><time>2026-03-28T17:39:13.77Z</time></trkpt><trkpt lat="45.5190794" lon="10.4582214"><ele>194.0</ele><time>2026-03-28T17:39:14.77Z</time></trkpt><trkpt lat="45.5189724" lon="10.4581894"><ele>194.0</ele><time>2026-03-28T17:39:15.769Z</time></trkpt><trkpt lat="45.5188791" lon="10.4581547"><ele>194.0</ele><time>2026-03-28T17:39:16.771Z</time></trkpt><trkpt lat="45.5187886" lon="10.4581253"><ele>194.0</ele><time>2026-03-28T17:39:17.771Z</time></trkpt><trkpt lat="45.5186991" lon="10.4580887"><ele>194.0</ele><time>2026-03-28T17:39:18.771Z</time></trkpt><trkpt lat="45.5186041" lon="10.458046"><ele>194.2</ele><time>2026-03-28T17:39:19.77Z</time></trkpt><trkpt lat="45.5185195" lon="10.4580166"><ele>194.39999999999998</ele><time>2026-03-28T17:39:20.77Z</time></trkpt><trkpt lat="45.5184214" lon="10.4579868"><ele>194.6</ele><time>2026-03-28T17:39:21.77Z</time></trkpt><trkpt lat="45.5183318" lon="10.4579458"><ele>194.8</ele><time>2026-03-28T17:39:22.77Z</time></trkpt><trkpt lat="45.518231" lon="10.4579174"><ele>195.0</ele><time>2026-03-28T17:39:23.769Z</time></trkpt><trkpt lat="45.5181299" lon="10.4578776"><ele>194.6</ele><time>2026-03-28T17:39:24.769Z</time></trkpt><trkpt lat="45.5180338" lon="10.4578427"><ele>194.2</ele><time>2026-03-28T17:39:25.769Z</time></trkpt><trkpt lat="45.5179372" lon="10.4578103"><ele>193.8</ele><time>2026-03-28T17:39:26.769Z</time></trkpt><trkpt lat="45.5178334" lon="10.4577709"><ele>193.4</ele><time>2026-03-28T17:39:27.77Z</time></trkpt><trkpt lat="45.5177222" lon="10.4577332"><ele>193.0</ele><time>2026-03-28T17:39:28.769Z</time></trkpt><trkpt lat="45.5176076" lon="10.457695"><ele>192.5</ele><time>2026-03-28T17:39:29.771Z</time></trkpt><trkpt lat="45.5174907" lon="10.4576565"><ele>192.0</ele><time>2026-03-28T17:39:30.769Z</time></trkpt><trkpt lat="45.5173734" lon="10.4576096"><ele>191.5</ele><time>2026-03-28T17:39:31.769Z</time></trkpt><trkpt lat="45.5172581" lon="10.4575579"><ele>191.0</ele><time>2026-03-28T17:39:32.771Z</time></trkpt><trkpt lat="45.5171469" lon="10.4574984"><ele>191.0</ele><time>2026-03-28T17:39:33.769Z</time></trkpt><trkpt lat="45.5170426" lon="10.4574354"><ele>191.0</ele><time>2026-03-28T17:39:34.77Z</time></trkpt><trkpt lat="45.516935" lon="10.4573739"><ele>191.0</ele><time>2026-03-28T17:39:35.77Z</time></trkpt><trkpt lat="45.5168359" lon="10.4573145"><ele>191.0</ele><time>2026-03-28T17:39:36.77Z</time></trkpt><trkpt lat="45.5167422" lon="10.4572693"><ele>191.0</ele><time>2026-03-28T17:39:37.769Z</time></trkpt><trkpt lat="45.5166455" lon="10.457226"><ele>191.0</ele><time>2026-03-28T17:39:38.77Z</time></trkpt><trkpt lat="45.5165459" lon="10.4571776"><ele>191.0</ele><time>2026-03-28T17:39:39.771Z</time></trkpt><trkpt lat="45.516462" lon="10.4571374"><ele>191.0</ele><time>2026-03-28T17:39:40.769Z</time></trkpt><trkpt lat="45.5163724" lon="10.4570917"><ele>191.0</ele><time>2026-03-28T17:39:41.77Z</time></trkpt><trkpt lat="45.5162789" lon="10.4570382"><ele>191.0</ele><time>2026-03-28T17:39:42.77Z</time></trkpt><trkpt lat="45.5161833" lon="10.456984"><ele>190.60000000000002</ele><time>2026-03-28T17:39:43.77Z</time></trkpt><trkpt lat="45.5160878" lon="10.4569248"><ele>190.2</ele><time>2026-03-28T17:39:44.77Z</time></trkpt><trkpt lat="45.5159919" lon="10.4568651"><ele>189.8</ele><time>2026-03-28T17:39:45.77Z</time></trkpt><trkpt lat="45.5158965" lon="10.4567901"><ele>189.39999999999998</ele><time>2026-03-28T17:39:46.769Z</time></trkpt><trkpt lat="45.5157987" lon="10.4567123"><ele>189.0</ele><time>2026-03-28T17:39:47.77Z</time></trkpt><trkpt lat="45.5157051" lon="10.4566325"><ele>189.0</ele><time>2026-03-28T17:39:48.769Z</time></trkpt><trkpt lat="45.5156158" lon="10.4565581"><ele>189.0</ele><time>2026-03-28T17:39:49.77Z</time></trkpt><trkpt lat="45.5155312" lon="10.4564861"><ele>189.0</ele><time>2026-03-28T17:39:50.769Z</time></trkpt><trkpt lat="45.5154536" lon="10.4564247"><ele>189.0</ele><time>2026-03-28T17:39:51.77Z</time></trkpt><trkpt lat="45.5153781" lon="10.456379"><ele>189.0</ele><time>2026-03-28T17:39:52.769Z</time></trkpt><trkpt lat="45.5152887" lon="10.4563312"><ele>188.83333333333334</ele><time>2026-03-28T17:39:53.77Z</time></trkpt><trkpt lat="45.5152007" lon="10.4562902"><ele>188.66666666666666</ele><time>2026-03-28T17:39:54.769Z</time></trkpt><trkpt lat="45.5151186" lon="10.4562628"><ele>188.5</ele><time>2026-03-28T17:39:55.77Z</time></trkpt><trkpt lat="45.5150333" lon="10.4562425"><ele>188.33333333333331</ele><time>2026-03-28T17:39:56.769Z</time></trkpt><trkpt lat="45.5149368" lon="10.4562226"><ele>188.16666666666666</ele><time>2026-03-28T17:39:57.771Z</time></trkpt><trkpt lat="45.514851" lon="10.4562015"><ele>188.0</ele><time>2026-03-28T17:39:58.77Z</time></trkpt><trkpt lat="45.5147737" lon="10.4561723"><ele>188.0</ele><time>2026-03-28T17:39:59.769Z</time></trkpt><trkpt lat="45.5146901" lon="10.4561315"><ele>188.0</ele><time>2026-03-28T17:40:00.77Z</time></trkpt><trkpt lat="45.5146006" lon="10.456088"><ele>188.0</ele><time>2026-03-28T17:40:01.77Z</time></trkpt><trkpt lat="45.5145126" lon="10.4560441"><ele>188.0</ele><time>2026-03-28T17:40:02.77Z</time></trkpt><trkpt lat="45.5144189" lon="10.4559924"><ele>188.0</ele><time>2026-03-28T17:40:03.769Z</time></trkpt><trkpt lat="45.5143247" lon="10.4559487"><ele>187.60000000000002</ele><time>2026-03-28T17:40:04.769Z</time></trkpt><trkpt lat="45.5142339" lon="10.4559017"><ele>187.20000000000002</ele><time>2026-03-28T17:40:05.769Z</time></trkpt><trkpt lat="45.5141441" lon="10.4558663"><ele>186.8</ele><time>2026-03-28T17:40:06.77Z</time></trkpt><trkpt lat="45.5140467" lon="10.4558217"><ele>186.4</ele><time>2026-03-28T17:40:07.77Z</time></trkpt><trkpt lat="45.5139488" lon="10.4557675"><ele>186.0</ele><time>2026-03-28T17:40:08.769Z</time></trkpt><trkpt lat="45.5138492" lon="10.4557094"><ele>186.0</ele><time>2026-03-28T17:40:09.77Z</time></trkpt><trkpt lat="45.5137468" lon="10.4556522"><ele>186.0</ele><time>2026-03-28T17:40:10.77Z</time></trkpt><trkpt lat="45.5136451" lon="10.4555854"><ele>186.0</ele><time>2026-03-28T17:40:11.77Z</time></trkpt><trkpt lat="45.5135423" lon="10.4555166"><ele>186.0</ele><time>2026-03-28T17:40:12.77Z</time></trkpt><trkpt lat="45.5134316" lon="10.4554331"><ele>185.75</ele><time>2026-03-28T17:40:13.771Z</time></trkpt><trkpt lat="45.5133201" lon="10.4553535"><ele>185.5</ele><time>2026-03-28T17:40:14.77Z</time></trkpt><trkpt lat="45.5132069" lon="10.4552772"><ele>185.25</ele><time>2026-03-28T17:40:15.771Z</time></trkpt><trkpt lat="45.5130953" lon="10.4552151"><ele>185.0</ele><time>2026-03-28T17:40:16.771Z</time></trkpt><trkpt lat="45.5129818" lon="10.4551726"><ele>184.75</ele><time>2026-03-28T17:40:17.769Z</time></trkpt><trkpt lat="45.5128653" lon="10.4551475"><ele>184.5</ele><time>2026-03-28T17:40:18.77Z</time></trkpt><trkpt lat="45.5127486" lon="10.4551517"><ele>184.25</ele><time>2026-03-28T17:40:19.77Z</time></trkpt><trkpt lat="45.5126326" lon="10.4551829"><ele>184.0</ele><time>2026-03-28T17:40:20.77Z</time></trkpt><trkpt lat="45.5125231" lon="10.4552337"><ele>184.0</ele><time>2026-03-28T17:40:21.77Z</time></trkpt><trkpt lat="45.5124151" lon="10.4552954"><ele>184.0</ele><time>2026-03-28T17:40:22.769Z</time></trkpt><trkpt lat="45.5123129" lon="10.4553717"><ele>184.0</ele><time>2026-03-28T17:40:23.77Z</time></trkpt><trkpt lat="45.5122149" lon="10.4554502"><ele>184.0</ele><time>2026-03-28T17:40:24.77Z</time></trkpt><trkpt lat="45.5121215" lon="10.4555308"><ele>184.2</ele><time>2026-03-28T17:40:25.771Z</time></trkpt><trkpt lat="45.5120415" lon="10.4556153"><ele>184.39999999999998</ele><time>2026-03-28T17:40:26.77Z</time></trkpt><trkpt lat="45.5119632" lon="10.455703"><ele>184.6</ele><time>2026-03-28T17:40:27.77Z</time></trkpt><trkpt lat="45.5118957" lon="10.4557908"><ele>184.8</ele><time>2026-03-28T17:40:28.77Z</time></trkpt><trkpt lat="45.5118274" lon="10.4558755"><ele>185.0</ele><time>2026-03-28T17:40:29.77Z</time></trkpt><trkpt lat="45.5117577" lon="10.4559592"><ele>185.0</ele><time>2026-03-28T17:40:30.769Z</time></trkpt><trkpt lat="45.5116912" lon="10.4560469"><ele>185.0</ele><time>2026-03-28T17:40:31.769Z</time></trkpt><trkpt lat="45.5116224" lon="10.4561393"><ele>185.0</ele><time>2026-03-28T17:40:32.769Z</time></trkpt><trkpt lat="45.5115495" lon="10.4562327"><ele>185.0</ele><time>2026-03-28T17:40:33.771Z</time></trkpt><trkpt lat="45.511479" lon="10.4563221"><ele>185.0</ele><time>2026-03-28T17:40:34.771Z</time></trkpt><trkpt lat="45.511409" lon="10.4564115"><ele>185.0</ele><time>2026-03-28T17:40:35.771Z</time></trkpt><trkpt lat="45.511339" lon="10.4565022"><ele>185.0</ele><time>2026-03-28T17:40:36.77Z</time></trkpt><trkpt lat="45.5112655" lon="10.4565846"><ele>185.0</ele><time>2026-03-28T17:40:37.771Z</time></trkpt><trkpt lat="45.5111934" lon="10.4566771"><ele>185.0</ele><time>2026-03-28T17:40:38.769Z</time></trkpt><trkpt lat="45.5111229" lon="10.4567652"><ele>185.0</ele><time>2026-03-28T17:40:39.77Z</time></trkpt><trkpt lat="45.5110539" lon="10.4568542"><ele>185.0</ele><time>2026-03-28T17:40:40.77Z</time></trkpt><trkpt lat="45.5109853" lon="10.4569357"><ele>185.0</ele><time>2026-03-28T17:40:41.769Z</time></trkpt><trkpt lat="45.5109208" lon="10.4570157"><ele>185.0</ele><time>2026-03-28T17:40:42.77Z</time></trkpt><trkpt lat="45.510852" lon="10.4570912"><ele>185.0</ele><time>2026-03-28T17:40:43.77Z</time></trkpt><trkpt lat="45.5107853" lon="10.4571772"><ele>185.0</ele><time>2026-03-28T17:40:44.771Z</time></trkpt><trkpt lat="45.510719" lon="10.4572636"><ele>185.0</ele><time>2026-03-28T17:40:45.771Z</time></trkpt><trkpt lat="45.5106459" lon="10.4573616"><ele>185.0</ele><time>2026-03-28T17:40:46.77Z</time></trkpt><trkpt lat="45.5105627" lon="10.4574633"><ele>185.0</ele><time>2026-03-28T17:40:47.77Z</time></trkpt><trkpt lat="45.5104806" lon="10.4575711"><ele>185.0</ele><time>2026-03-28T17:40:48.771Z</time></trkpt><trkpt lat="45.5103955" lon="10.4576886"><ele>185.0</ele><time>2026-03-28T17:40:49.769Z</time></trkpt><trkpt lat="45.5103078" lon="10.4578153"><ele>184.75</ele><time>2026-03-28T17:40:50.769Z</time></trkpt><trkpt lat="45.5102187" lon="10.4579522"><ele>184.5</ele><time>2026-03-28T17:40:51.769Z</time></trkpt><trkpt lat="45.5101311" lon="10.4580967"><ele>184.25</ele><time>2026-03-28T17:40:52.771Z</time></trkpt><trkpt lat="45.5100466" lon="10.4582487"><ele>184.0</ele><time>2026-03-28T17:40:53.769Z</time></trkpt><trkpt lat="45.5099624" lon="10.4584"><ele>184.0</ele><time>2026-03-28T17:40:54.769Z</time></trkpt><trkpt lat="45.5098718" lon="10.4585564"><ele>184.0</ele><time>2026-03-28T17:40:55.77Z</time></trkpt><trkpt lat="45.5097725" lon="10.4587095"><ele>184.0</ele><time>2026-03-28T17:40:56.77Z</time></trkpt><trkpt lat="45.5096699" lon="10.458872"><ele>184.0</ele><time>2026-03-28T17:40:57.771Z</time></trkpt><trkpt lat="45.5095707" lon="10.4590434"><ele>183.33333333333334</ele><time>2026-03-28T17:40:58.77Z</time></trkpt><trkpt lat="45.5094738" lon="10.4592216"><ele>182.66666666666666</ele><time>2026-03-28T17:40:59.771Z</time></trkpt><trkpt lat="45.5093799" lon="10.459405"><ele>182.0</ele><time>2026-03-28T17:41:00.77Z</time></trkpt><trkpt lat="45.5092888" lon="10.4595885"><ele>182.66666666666666</ele><time>2026-03-28T17:41:01.769Z</time></trkpt><trkpt lat="45.509196" lon="10.4597723"><ele>183.33333333333334</ele><time>2026-03-28T17:41:02.769Z</time></trkpt><trkpt lat="45.5091061" lon="10.4599498"><ele>184.0</ele><time>2026-03-28T17:41:03.77Z</time></trkpt><trkpt lat="45.509018" lon="10.4601292"><ele>184.0</ele><time>2026-03-28T17:41:04.77Z</time></trkpt><trkpt lat="45.508929" lon="10.4603064"><ele>184.0</ele><time>2026-03-28T17:41:05.77Z</time></trkpt><trkpt lat="45.508837" lon="10.4604811"><ele>184.0</ele><time>2026-03-28T17:41:06.769Z</time></trkpt><trkpt lat="45.5087426" lon="10.4606507"><ele>184.0</ele><time>2026-03-28T17:41:07.77Z</time></trkpt><trkpt lat="45.5086394" lon="10.4608122"><ele>184.0</ele><time>2026-03-28T17:41:08.771Z</time></trkpt><trkpt lat="45.5085405" lon="10.4609608"><ele>184.0</ele><time>2026-03-28T17:41:09.77Z</time></trkpt><trkpt lat="45.5084499" lon="10.4610907"><ele>184.0</ele><time>2026-03-28T17:41:10.77Z</time></trkpt><trkpt lat="45.5083668" lon="10.4612095"><ele>184.39999999999998</ele><time>2026-03-28T17:41:11.769Z</time></trkpt><trkpt lat="45.5082929" lon="10.4613194"><ele>184.8</ele><time>2026-03-28T17:41:12.77Z</time></trkpt><trkpt lat="45.5082324" lon="10.4614509"><ele>185.2</ele><time>2026-03-28T17:41:13.77Z</time></trkpt><trkpt lat="45.5081937" lon="10.4615978"><ele>185.60000000000002</ele><time>2026-03-28T17:41:14.771Z</time></trkpt><trkpt lat="45.5081769" lon="10.4617451"><ele>186.0</ele><time>2026-03-28T17:41:15.77Z</time></trkpt><trkpt lat="45.5081765" lon="10.4618876"><ele>186.0</ele><time>2026-03-28T17:41:16.77Z</time></trkpt><trkpt lat="45.5081871" lon="10.4620318"><ele>186.0</ele><time>2026-03-28T17:41:17.77Z</time></trkpt><trkpt lat="45.5082002" lon="10.4621748"><ele>186.0</ele><time>2026-03-28T17:41:18.769Z</time></trkpt><trkpt lat="45.5082155" lon="10.4623206"><ele>186.0</ele><time>2026-03-28T17:41:19.77Z</time></trkpt><trkpt lat="45.5082329" lon="10.4624707"><ele>186.0</ele><time>2026-03-28T17:41:20.77Z</time></trkpt><trkpt lat="45.5082519" lon="10.4626267"><ele>186.33333333333334</ele><time>2026-03-28T17:41:21.771Z</time></trkpt><trkpt lat="45.5082686" lon="10.4627833"><ele>186.66666666666666</ele><time>2026-03-28T17:41:22.77Z</time></trkpt><trkpt lat="45.5082857" lon="10.4629235"><ele>187.0</ele><time>2026-03-28T17:41:23.77Z</time></trkpt><trkpt lat="45.5083029" lon="10.4630427"><ele>187.33333333333331</ele><time>2026-03-28T17:41:24.771Z</time></trkpt><trkpt lat="45.5083199" lon="10.4631529"><ele>187.66666666666666</ele><time>2026-03-28T17:41:25.769Z</time></trkpt><trkpt lat="45.5083318" lon="10.4632506"><ele>188.0</ele><time>2026-03-28T17:41:26.77Z</time></trkpt><trkpt lat="45.5083506" lon="10.4634052"><ele>188.0</ele><time>2026-03-28T17:41:28.771Z</time></trkpt><trkpt lat="45.5083503" lon="10.463509"><ele>188.0</ele><time>2026-03-28T17:41:30.77Z</time></trkpt><trkpt lat="45.5082848" lon="10.4635495"><ele>188.0</ele><time>2026-03-28T17:41:34.77Z</time></trkpt><trkpt lat="45.5082137" lon="10.4635028"><ele>188.0</ele><time>2026-03-28T17:41:37.77Z</time></trkpt><trkpt lat="45.5081619" lon="10.4633702"><ele>188.0</ele><time>2026-03-28T17:41:39.77Z</time></trkpt><trkpt lat="45.508077" lon="10.4632836"><ele>188.0</ele><time>2026-03-28T17:41:41.771Z</time></trkpt><trkpt lat="45.5079803" lon="10.4632449"><ele>188.0</ele><time>2026-03-28T17:41:43.77Z</time></trkpt><trkpt lat="45.5079079" lon="10.4632472"><ele>188.0</ele><time>2026-03-28T17:41:46.769Z</time></trkpt><trkpt lat="45.5084403" lon="10.4627648"><ele>188.0</ele><time>2026-03-28T17:45:44.191Z</time></trkpt><trkpt lat="45.5083778" lon="10.4627759"><ele>188.0</ele><time>2026-03-28T17:47:14.998Z</time></trkpt><trkpt lat="45.5085307" lon="10.4627151"><ele>188.0</ele><time>2026-03-28T18:06:10.283Z</time></trkpt></trkseg></trk></gpx>